.

MPMG - Transparência

Contracheque - Verbas indenizatórias e outras remunerações temporárias - Tabela III (Resolução nº 200/2019) - Pós Resolução CNMP 200/2019

Período: 2022 - Fevereiro

Ordem Matrícula Nome Cargo Lotação Verbas Indenizatórias *1 Outras Remunerações Temporárias *2 Data de Referência
Auxílio Alimentação Auxílio Creche Auxílio Saúde Auxílio Transporte Estagiário Indenizações Indenizações e Diligênias Adicionais de Periculosidade e Insalubridade Gratificações Outras Remunerações
1 498900 ABDON MARCIO BARBOSA DA SILVA OFICIAL DO MP ABRE CAMPO - COMARCA; ABRE CAMPO-PJ-01PJ 1.198,00 0,00 519,00 0,00 0,00 0,00 0,00 0,00 0,00 28/02/2022
2 293600 ABELARDO GUIMARAES CASTRO PROMOT.ENTRANC.ESPECIAL BELO HORIZONTE - COMARCA; BH-18PJ VIOLENCIA DOMESTICA-GAB 044PJ 1.198,00 0,00 2.905,50 0,00 11.229,70 0,00 0,00 0,00 514,69 28/02/2022
3 99200 ADALBERTO DE PAULA CHRISTO LEITE PROMOT.ENTRANC.ESPECIAL SÃO JOÃO DEL REI - COMARCA; SAO JOAO DEL REI-PJ-02PJ 1.198,00 0,00 3.368,91 0,00 16.844,55 0,00 0,00 0,00 514,69 28/02/2022
4 177800 ADALBERTO MENEZES FARIA SAMORA OFICIAL DO MP BELO HORIZONTE - COMARCA; DIR ESTRUTURA E PROCESSOS ORGANIZACIONAIS 1.198,00 0,00 519,00 0,00 5.628,28 0,00 0,00 0,00 515,93 28/02/2022
5 306400 ADALBERTO MOREIRA GONCALVES ANALISTA DO MP BELO HORIZONTE - COMARCA; BH-24PJ JUIZO REG BARREIRO-SECRETARIA 1.198,00 0,00 519,00 0,00 5.433,14 0,00 0,00 0,00 498,04 28/02/2022
6 1150100 ADAO ABADE DE BARROS JUNIOR ESTAGIARIO OLIVEIRA; OLIVEIRA-PJ-01PJ 0,00 0,00 0,00 153,00 0,00 0,00 0,00 0,00 0,00 28/02/2022
7 100400 ADELAIDE CRISTINA DE CARVALHO MACHADO PROCURADOR DE JUSTICA BELO HORIZONTE - COMARCA; GABINETE DE PROCURADOR DE JUSTIÇA - SALA 708 1.198,00 0,00 1.288,73 0,00 11.820,74 0,00 0,00 0,00 541,78 28/02/2022
8 96500 ADELIA LAGE DE OLIVEIRA PROCURADOR DE JUSTICA BELO HORIZONTE - COMARCA; GABINETE DE PROCURADOR DE JUSTIÇA - SALA 403 1.198,00 0,00 1.405,88 0,00 5.910,37 0,00 0,00 0,00 541,78 28/02/2022
9 49200 ADEMAR PEREIRA PROMOTOR 2A ENTRANCIA MACHADO - COMARCA; MACHADO-PJ-01PJ 1.198,00 0,00 3.200,47 0,00 5.334,11 0,00 0,00 0,00 488,96 28/02/2022
10 179300 ADENISE AUXILIADORA SOUZA SAD OFICIAL DO MP BARBACENA - COMARCA; BARBACENA-PJ-06PJ 1.198,00 0,00 519,00 0,00 5.986,63 0,00 0,00 0,00 548,77 28/02/2022
11 272200 ADILSON BATISTA ORNELAS OFICIAL DO MP LAVRAS - COMARCA; LAVRAS-PJ-SECRETARIA 1.198,00 0,00 519,00 0,00 2.229,06 0,00 0,00 0,00 204,33 28/02/2022
12 143000 ADILSON DE OLIVEIRA NASCIMENTO PROCURADOR DE JUSTICA BELO HORIZONTE - COMARCA; GABINETE DE PROCURADOR DE JUSTIÇA - SALA 614 1.198,00 0,00 2.999,22 0,00 11.820,74 0,00 0,00 0,00 541,78 28/02/2022
13 380100 ADILSON GONCALVES DE MELO JUNIOR ANALISTA DO MP ARAXÁ - COMARCA; ARAXA-PJ-05PJ 1.198,00 0,00 519,00 0,00 5.857,93 0,00 0,00 0,00 536,98 28/02/2022
14 148800 ADILSON JANUARIO OFICIAL DO MP BELO HORIZONTE - COMARCA; BH-22PJ PES COM DEF E IDOSOS-SECRETARIA 1.198,00 0,00 519,00 0,00 5.119,08 0,00 0,00 0,00 469,25 28/02/2022
15 322601 ADMILSON SILVEIRA ANALISTA DO MP SAO JOAO DO PARAISO COMARCA; SAO JOAO DO PARAISO-PJ-UNPJ 1.198,00 885,30 519,00 0,00 5.316,76 0,00 0,00 0,00 487,37 28/02/2022
16 333700 ADRIANA ABRITTA TEIXEIRA OFICIAL DO MP BELO HORIZONTE - COMARCA; DIRET DE PESSOAL DO MINISTERIO PUBLICO - DPMP 1.198,00 0,00 519,00 0,00 5.759,82 0,00 0,00 0,00 527,98 28/02/2022
17 1359300 ADRIANA ANTUNES DOS REIS ESTAGIARIO CONTAGEM; CONTAGEM-PJ-17PJ 0,00 0,00 0,00 171,00 0,00 0,00 0,00 0,00 0,00 28/02/2022
18 468500 ADRIANA APARECIDA FIRMINO ANALISTA DO MP CARATINGA - COMARCA; CARATINGA-PJ-04PJ 1.198,00 0,00 519,00 0,00 0,00 0,00 0,00 0,00 0,00 28/02/2022
19 326100 ADRIANA AUGUSTA AMARAL BELO OFICIAL DO MP BARBACENA - COMARCA; BARBACENA-PJ-08PJ 1.198,00 0,00 519,00 0,00 5.759,82 0,00 0,00 0,00 527,98 28/02/2022
20 363000 ADRIANA CARVALHO PEREIRA E SILVA COSTA PROMOTOR 2A ENTRANCIA ALÉM PARAÍBA - COMARCA; ALEM PARAIBA-PJ-02PJ 1.198,00 0,00 2.741,48 0,00 0,00 0,00 0,00 0,00 0,00 28/02/2022
21 1400800 ADRIANA CINTIA SANTOS DOS REIS ESTAGIARIO SANTA LUZIA; SANTA LUZIA-PJ-05PJ 0,00 0,00 0,00 45,00 0,00 0,00 0,00 0,00 0,00 28/02/2022
22 605700 ADRIANA COSTA LIRA ASSESSOR/OFICIAL BELO HORIZONTE - COMARCA; COORD ESTADUAL DE DEFESA DA EDUCACAO 1.198,00 0,00 519,00 0,00 3.235,51 0,00 0,00 0,00 296,59 28/02/2022
23 541100 ADRIANA CRISTINA DE OLIVEIRA OFICIAL DO MP GUAPÉ - COMARCA; GUAPE-PJ-UNPJ 1.198,00 885,30 519,00 0,00 0,00 0,00 0,00 0,00 0,00 28/02/2022
24 254800 ADRIANA DAS GRACAS FERNANDES ANALISTA DO MP UBERABA - COMARCA; UBERABA-PJ-07PJ 1.198,00 0,00 519,00 0,00 5.119,08 0,00 0,00 0,00 469,25 28/02/2022
25 217400 ADRIANA DE CARVALHO CATAO BRAGA ASSESSOR BELO HORIZONTE - COMARCA; DIV FISCAL ADM CONT TERCEIRIZACAO 1.198,00 0,00 519,00 0,00 0,00 0,00 0,00 0,00 0,00 28/02/2022
26 434600 ADRIANA FERREIRA DA SILVA ANALISTA DO MP BELO HORIZONTE - COMARCA; BH-14PJ DEFESA CONSUMIDOR-GAB 112PJ 1.198,00 0,00 519,00 0,00 0,00 0,00 0,00 0,00 0,00 28/02/2022
27 499800 ADRIANA FERREIRA TIAGO OFICIAL DO MP SALINAS - COMARCA; SALINAS-PJ-02PJ 1.198,00 0,00 519,00 0,00 0,00 0,00 0,00 0,00 0,00 28/02/2022
28 543400 ADRIANA GUIMARAES NUNES DE PAULA ANALISTA DO MP PATROCÍNIO - COMARCA; PATROCINIO-PJ-01PJ 1.198,00 0,00 519,00 0,00 0,00 0,00 0,00 0,00 0,00 28/02/2022
29 471500 ADRIANA HORTA DE CARVALHO RODRIGUES DE SOUSA ANALISTA DO MP BELO HORIZONTE - COMARCA; GRUPO ESP PROM JUST DEF PROB ADM PAT PUB 1.198,00 0,00 519,00 0,00 0,00 0,00 0,00 0,00 0,00 28/02/2022
30 314300 ADRIANA JULIA DE SOUZA PROMOT.ENTRANC.ESPECIAL BELO HORIZONTE - COMARCA; BH-25PJ DEFESA DA EDUCACAO-GAB 050PJ 1.198,00 0,00 3.224,85 0,00 5.614,85 0,00 0,00 0,00 514,69 28/02/2022
31 1148500 ADRIANA LACERDA SOARES ESTAGIARIO RAUL SOARES; RAUL SOARES-PJ-UNPJ
32 86400 ADRIANA MOREIRA CALDEIRA BRANT OFICIAL DO MP BELO HORIZONTE - COMARCA; BH-21PJ TUTELA FUNDACOES-SECRETARIA 1.198,00 0,00 519,00 0,00 0,00 0,00 0,00 0,00 0,00 28/02/2022
33 480700 ADRIANA MOREIRA DE AVELLAR CEZILIO OFICIAL DO MP BELO HORIZONTE - COMARCA; BH-12PJ JUIZO CRIMINAL-SECRETARIA 1.198,00 0,00 519,00 0,00 4.409,13 0,00 0,00 0,00 404,17 28/02/2022
34 326000 ADRIANA PEREIRA CARNEIRO RESENDE OFICIAL DO MP BELO HORIZONTE - COMARCA; BH-25PJ DEFESA DA EDUCACAO-SECRETARIA 1.198,00 0,00 519,00 0,00 5.759,82 0,00 0,00 0,00 527,98 28/02/2022
35 502200 ADRIANA PETRUCCI DAVINA OFICIAL DO MP PATROCÍNIO - COMARCA; PATROCINIO-PJ-01PJ 1.198,00 885,30 519,00 0,00 3.798,17 0,00 0,00 0,00 348,17 28/02/2022
36 685200 ADRIANA PRATES DOS SANTOS PROMOTOR SUBSTITUTO NOVA SERRANA - COMARCA; NOVA SERRANA-PJ-04PJ 1.198,00 0,00 3.040,44 0,00 15.202,20 0,00 0,00 0,00 464,51 28/02/2022
37 201900 ADRIANA REIS PIMENTA OFICIAL DO MP TEÓFILO OTONI - COMARCA; TEOFILO OTONI-PJ-03PJ 1.198,00 0,00 519,00 0,00 5.986,63 0,00 0,00 0,00 548,77 28/02/2022
38 278700 ADRIANA RODRIGUES PINTO COELHO AMARAL ANALISTA DO MP BELO HORIZONTE - COMARCA; CGMP-ASSESSORIA JURIDICA 1.198,00 0,00 519,00 0,00 5.648,25 0,00 0,00 0,00 517,76 28/02/2022
39 468000 ADRIANA SANTOS DE SANTANA MOREIRA ANALISTA DO MP ARAÇUAÍ - COMARCA; ARACUAI-PJ-02PJ 1.198,00 0,00 519,00 0,00 5.638,99 0,00 0,00 0,00 516,91 28/02/2022
40 1294000 ADRIANA SILVA CASTRO ESTAGIARIO BELO HORIZONTE; BH-12PJ JUIZO CRIMINAL-GAB 088PJ 0,00 0,00 0,00 189,00 0,00 0,00 0,00 0,00 0,00 28/02/2022
41 290900 ADRIANA TORRES BECK PROMOT.ENTRANC.ESPECIAL BELO HORIZONTE - COMARCA; BH-18PJ VIOLENCIA DOMESTICA-GAB 124PJ 1.198,00 0,00 3.368,91 0,00 5.614,85 0,00 0,00 0,00 514,69 28/02/2022
42 194700 ADRIANA TSUKIDE OFICIAL DO MP UBERABA - COMARCA; COORD REG BACIAS PARANAIBA BAIXO RIO GRANDE 1.198,00 0,00 519,00 0,00 0,00 0,00 0,00 0,00 0,00 28/02/2022
43 291500 ADRIANA VITAL DO VALLE PROMOT.ENTRANC.ESPECIAL SÃO JOÃO DEL REI - COMARCA; SAO JOAO DEL REI-PJ-06PJ 1.198,00 0,00 3.368,91 0,00 6.737,82 0,00 0,00 0,00 0,00 28/02/2022
44 212900 ADRIANO ARANTES BOZOLA PROMOT.ENTRANC.ESPECIAL UBERLÂNDIA - COMARCA; UBERLANDIA-PJ-21PJ 1.198,00 0,00 3.368,91 0,00 16.844,55 0,00 0,00 0,00 514,69 28/02/2022
45 174200 ADRIANO BOTELHO ESTRELA PROMOT.ENTRANC.ESPECIAL BELO HORIZONTE - COMARCA; BH-12PJ JUIZO CRIMINAL-GAB 095PJ 1.198,00 0,00 2.108,82 0,00 11.229,70 0,00 0,00 0,00 514,69 28/02/2022
46 465500 ADRIANO CASSIANO MATOS ANALISTA DO MP ARAXÁ - COMARCA; ARAXA-PJ-02PJ 1.198,00 0,00 519,00 0,00 0,00 0,00 0,00 0,00 0,00 28/02/2022
47 500500 ADRIANO DE ALMEIDA SILVA OFICIAL DO MP UBERABA - COMARCA; UBERABA-PJ-12PJ 1.198,00 885,30 519,00 0,00 5.697,25 0,00 0,00 0,00 522,25 28/02/2022
48 187200 ADRIANO DE FREITAS MARON OFICIAL DO MP PONTE NOVA - COMARCA; PONTE NOVA-PJ-03PJ 1.198,00 0,00 519,00 0,00 5.933,25 0,00 0,00 0,00 543,88 28/02/2022
49 344000 ADRIANO DUTRA GOMES DE FARIA PROMOT.ENTRANC.ESPECIAL VESPASIANO - COMARCA; VESPASIANO-PJ-04PJ 1.198,00 0,00 3.368,91 0,00 11.229,70 0,00 0,00 0,00 514,69 28/02/2022
50 477900 ADRIANO FERREIRA DE ALMEIDA OFICIAL DO MP TAIOBEIRAS - COMARCA; TAIOBEIRAS-PJ-UNPJ 1.198,00 0,00 519,00 0,00 3.798,17 0,00 0,00 0,00 348,17 28/02/2022
51 1301100 ADRIANO GUILHERME SILVA ESTAGIARIO POMPEU; POMPEU-PJ-UNPJ 0,00 0,00 0,00 189,00 0,00 0,00 0,00 0,00 0,00 28/02/2022
52 269101 ADRIANO PEREIRA SILVA ANALISTA DO MP UBERABA - COMARCA; UBERABA-PJ-02PJ 1.198,00 0,00 519,00 0,00 5.800,10 0,00 0,00 0,00 531,68 28/02/2022
53 414200 ADRIANO RODRIGUES FERNANDES ANALISTA DO MP CARANDAÍ - COMARCA; CARANDAI-PJ-UNPJ 1.198,00 0,00 519,00 0,00 0,00 0,00 0,00 0,00 0,00 28/02/2022
54 715300 ADRIANO SCHER DORNELAS 2O. SARGENTO BELO HORIZONTE - COMARCA; NUCLEO DE COMBATE AOS CRIMES AMBIENTAIS 1.198,00 0,00 0,00 0,00 0,00 0,00 0,00 0,00 0,00 28/02/2022
55 536700 ADRIELLE COSTA MARIA MOURAO FIGUEIREDO OFICIAL DO MP SERRO - COMARCA; SERRO-PJ-SECRETARIA 1.198,00 885,30 519,00 0,00 0,00 0,00 0,00 0,00 0,00 28/02/2022
56 514300 ADRIENE DAMASCENO BRAGA ANALISTA DO MP ALFENAS - COMARCA; ALFENAS-PJ-03PJ 1.198,00 885,30 519,00 0,00 5.800,10 0,00 0,00 0,00 531,68 28/02/2022
57 254600 ADRIENE DOMINGUES COSTA ANALISTA DO MP BELO HORIZONTE - COMARCA; SUPER DE GESTAO DE PESSOAS-LOTACAO TEMPORARIA
58 252001 ADRIENE GOMES BARRETO ANALISTA DO MP BELO HORIZONTE - COMARCA; BH-19PJ SAUDE-SECRETARIA 047PJ 1.198,00 0,00 519,00 0,00 5.797,94 0,00 0,00 0,00 531,48 28/02/2022
59 1349800 ADRISE LOPES DE MATOS ESTAGIARIO VISCONDE DO RIO BRANCO; VISCONDE DO RIO BRANCO-PJ-02PJ 0,00 0,00 0,00 189,00 0,00 0,00 0,00 0,00 0,00 28/02/2022
60 84100 ADROALDO JUNQUEIRA AYRES NETO PROMOT.ENTRANC.ESPECIAL UBERABA - COMARCA; UBERABA-PJ-12PJ 1.198,00 0,00 3.368,91 0,00 11.229,70 0,00 0,00 0,00 514,69 28/02/2022
61 714800 ADSON GUSTAVO DE OLIVEIRA ASSESSOR PROCURADOR JUSTICA BELO HORIZONTE - COMARCA; GABINETE DE PROCURADOR DE JUSTIÇA - SALA 803 1.198,00 0,00 519,00 0,00 0,00 0,00 0,00 0,00 0,00 28/02/2022
62 162700 AECIO RABELO PROMOTOR 2A ENTRANCIA LAVRAS - COMARCA; LAVRAS-PJ-04PJ 1.198,00 0,00 2.718,03 0,00 10.668,22 0,00 0,00 0,00 488,96 28/02/2022
63 97600 AFONSO HENRIQUE DE MIRANDA TEIXEIRA PROCURADOR DE JUSTICA BELO HORIZONTE - COMARCA; CAO-CONFLITOS AGRARIOS 1.198,00 0,00 2.928,92 0,00 11.820,74 0,00 0,00 0,00 541,78 28/02/2022
64 1207200 AFRA YASMIM DA SILVA ESTAGIARIO BELO HORIZONTE; DIRET DE FORMACAO, APERFEIC. E POS-GRADUACAO
65 610000 AGENOR ANDRADE LEAO PROMOT.ENTRANC.ESPECIAL TEÓFILO OTONI - COMARCA; TEOFILO OTONI-PJ-05PJ 1.198,00 0,00 3.368,91 0,00 11.229,70 0,00 0,00 0,00 514,69 28/02/2022
66 302500 AGENOR JOSE DA SILVA JUNIOR ANALISTA DO MP JUIZ DE FORA - COMARCA; JUIZ DE FORA-PJ-14PJ 1.198,00 0,00 519,00 0,00 5.433,14 0,00 0,00 0,00 498,04 28/02/2022
67 344100 AGNALDO LUCAS COTRIM PROMOT.ENTRANC.ESPECIAL POUSO ALEGRE - COMARCA; POUSO ALEGRE-PJ-02PJ 1.198,00 0,00 2.971,58 0,00 11.229,70 0,00 0,00 0,00 514,69 28/02/2022
68 1355600 AGRISLENE RODRIGUES DE ALMEIDA ESTAGIARIO GOVERNADOR VALADARES; GOVERNADOR VALADARES-PJ-04PJ 0,00 0,00 0,00 189,00 0,00 0,00 0,00 0,00 0,00 28/02/2022
69 67400 AIDA FERNANDES LISBOA MARINHO PROCURADOR DE JUSTICA BELO HORIZONTE - COMARCA; GABINETE DE PROCURADOR DE JUSTIÇA - SALA 604 1.198,00 0,00 2.577,46 0,00 11.820,74 0,00 0,00 0,00 541,78 28/02/2022
70 1160200 AIESKA TALITA QUEIROZ MOTA ESTAGIARIO PIRAPORA; PIRAPORA-PJ-01PJ 0,00 0,00 0,00 144,00 0,00 0,00 0,00 0,00 0,00 28/02/2022
71 1194700 AILA QUINTAO MAYR ESTAGIARIO BELO HORIZONTE; BH-26 CRIME CONT CRIAN ADOL-GAB 048PJ 0,00 0,00 0,00 180,00 0,00 0,00 0,00 0,00 0,00 28/02/2022
72 357500 AILSON WAGNER DE ALENCAR SILVA OFICIAL DO MP BELO HORIZONTE - COMARCA; BH-12PJ JUIZO CRIMINAL-SECRETARIA 1.198,00 0,00 519,00 0,00 5.587,12 0,00 0,00 0,00 512,15 28/02/2022
73 366400 AILTON ALEXSSANDRO ALVES OFICIAL DO MP PARÁ DE MINAS - COMARCA; PARA DE MINAS-PJ-05PJ 1.198,00 0,00 519,00 0,00 0,00 0,00 0,00 0,00 0,00 28/02/2022
74 318900 AILTON DE CASTRO RIBEIRO JUNIOR OFICIAL DO MP ITAJUBA - COMARCA; ITAJUBA-PJ-01PJ 1.198,00 885,30 519,00 0,00 5.759,82 0,00 0,00 0,00 527,98 28/02/2022
75 533100 AIMARA DE BRITTO DIAS LEITE PROMOTOR SUBSTITUTO SANTA LUZIA - COMARCA; SANTA LUZIA-PJ-02PJ 1.198,00 0,00 1.640,20 0,00 10.134,80 0,00 0,00 0,00 464,51 28/02/2022
76 439100 AIRTON BATISTA COSTA NETO NEPOMUCENO PROMOTOR 2A ENTRANCIA ITUIUTABA - COMARCA; ITUIUTABA-PJ-04PJ 1.198,00 0,00 3.200,47 0,00 10.668,22 0,00 0,00 0,00 488,96 28/02/2022
77 341600 ALAM BAENA BERTOLLA DOS SANTOS PROMOTOR 2A ENTRANCIA ARAGUARI - COMARCA; ARAGUARI-PJ-05PJ 1.198,00 0,00 2.916,76 0,00 16.002,33 0,00 0,00 0,00 488,96 28/02/2022
78 175700 ALAN CARRIJO RAMOS PROMOTOR 1A ENTRANCIA PRATÁPOLIS - COMARCA; PRATAPOLIS-PJ-UNPJ 1.198,00 0,00 3.040,44 0,00 15.202,20 0,00 0,00 0,00 464,51 28/02/2022
79 464400 ALAN MONTEIRO GASPAR ANALISTA DO MP SETE LAGOAS - COMARCA; SETE LAGOAS-PJ-08PJ 1.198,00 0,00 519,00 0,00 5.800,10 0,00 0,00 0,00 531,68 28/02/2022
80 1195800 ALAN PATRICK BORGES OLIVEIRA ESTAGIARIO UBERLANDIA; UBERLANDIA-PJ-02PJ 0,00 0,00 0,00 27,00 0,00 0,00 0,00 0,00 0,00 28/02/2022
81 1244100 ALANA COSTA SALES MOREIRA ESTAGIARIO LAVRAS; LAVRAS-PJ-03PJ 0,00 0,00 0,00 180,00 0,00 0,00 0,00 0,00 0,00 28/02/2022
82 492000 ALANA DE CASTRO FREITAS OFICIAL DO MP LAVRAS - COMARCA; LAVRAS-PJ-03PJ 1.198,00 0,00 519,00 0,00 0,00 0,00 0,00 0,00 0,00 28/02/2022
83 306700 ALANA MARCIA DE OLIVEIRA OFICIAL DO MP BELO HORIZONTE - COMARCA; DIRETORIA DE ADMINISTRACAO FINANCEIRA 1.198,00 0,00 519,00 0,00 5.759,82 0,00 0,00 0,00 527,98 28/02/2022
84 324500 ALANMAR COUTINHO COSTA OFICIAL DO MP LEOPOLDINA - COMARCA; LEOPOLDINA-PJ-02PJ 1.198,00 0,00 519,00 0,00 5.759,82 0,00 0,00 0,00 527,98 28/02/2022
85 170800 ALBERTO BOGLIOLO SIRIHAL PROMOT.ENTRANC.ESPECIAL BELO HORIZONTE - COMARCA; BH-05PJ JUIZO SUCESSÕES-GAB CARGO 045PJ 1.198,00 0,00 2.272,85 0,00 11.229,70 0,00 0,00 0,00 514,69 28/02/2022
86 1160400 ALBERTO DOS ANJOS GODEFROID ESTAGIARIO OURO PRETO; OURO PRETO-PJ-01PJ
87 407300 ALBERTO LUIZ SOARES DE OLIVEIRA ANALISTA DO MP BELO HORIZONTE - COMARCA; DIRETORIA DE PROJETOS DE EDIFICACOES 1.198,00 0,00 519,00 0,00 0,00 0,00 0,00 0,00 0,00 28/02/2022
88 118200 ALBERTO PEREIRA DA COSTA OFICIAL DO MP DORES DO INDAIÁ - COMARCA; DORES DO INDAIA-PJ-UNPJ 1.198,00 0,00 519,00 0,00 5.293,83 0,00 0,00 0,00 485,27 28/02/2022
89 72000 ALBINO VITORIO BERNARDO PROCURADOR DE JUSTICA BELO HORIZONTE - COMARCA; GABINETE DE PROCURADOR DE JUSTIÇA - SALA 710 1.198,00 0,00 1.405,88 0,00 5.910,37 0,00 0,00 0,00 541,78 28/02/2022
90 660700 ALCIDEZIO JOSE DE OLIVEIRA BISPO JUNIOR PROMOT.ENTRANC.ESPECIAL CARATINGA - COMARCA; CARATINGA-PJ-01PJ 1.198,00 0,00 3.368,91 0,00 16.844,55 0,00 0,00 0,00 514,69 28/02/2022
91 282400 ALCILENE MARISE DE ARAUJO ANALISTA DO MP BELO HORIZONTE - COMARCA; BH-23PJ INF-FISC MED SOC FEC 1.198,00 0,00 519,00 0,00 0,00 0,00 0,00 0,00 0,00 28/02/2022
92 112600 ALCIONE DA MOTA JARDIM OFICIAL DO MP BELO HORIZONTE - COMARCA; CAO-CRIANCAS E ADOLESCENTES-SECRETARIA 1.198,00 0,00 519,00 0,00 0,00 0,00 0,00 0,00 0,00 28/02/2022
93 396400 ALCIONE DE FREITAS E SILVA ANALISTA DO MP BELO HORIZONTE - COMARCA; ASSESS JUR DO CONS SUPERIOR DO MINISTERIO PUB 1.198,00 0,00 519,00 0,00 5.797,94 0,00 0,00 0,00 531,48 28/02/2022
94 657400 ALCIONE MARIA FERREIRA ASSESSOR PROCURADOR JUSTICA BELO HORIZONTE - COMARCA; GABINETE DE PROCURADOR DE JUSTIÇA - SALA 610 1.198,00 885,30 519,00 0,00 0,00 0,00 0,00 0,00 0,00 28/02/2022
95 161600 ALCIONE NERY SOUZA ASSESSOR BELO HORIZONTE - COMARCA; BH-18PJ DIREITOS HUMANOS-SECRETARIA 1.198,00 0,00 519,00 0,00 0,00 0,00 0,00 0,00 0,00 28/02/2022
96 92000 ALCIR ARANTES PROMOT.ENTRANC.ESPECIAL UBERABA - COMARCA; UBERABA-PJ-03PJ 1.198,00 0,00 2.811,76 0,00 5.614,85 0,00 0,00 0,00 514,69 28/02/2022
97 376000 ALDA GOMES LANA OFICIAL DO MP BELO HORIZONTE - COMARCA; BH-18PJ VIOLENCIA DOMESTICA-SECRETARIA 1.198,00 0,00 519,00 0,00 5.268,63 0,00 0,00 0,00 482,96 28/02/2022
98 148000 ALDA MARTINS SIMOES OFICIAL DO MP BELO HORIZONTE - COMARCA; BH-23PJ CIVEL- FISC ENT AB POL 1.198,00 0,00 519,00 0,00 5.431,01 0,00 0,00 0,00 497,84 28/02/2022
99 457700 ALDERICO DE CARVALHO JUNIOR PROMOTOR 2A ENTRANCIA BELO HORIZONTE - COMARCA; PROC JUST ATUACAO TRIBUNAIS SUPERIORES-GAB002 1.198,00 0,00 2.657,75 0,00 10.668,22 0,00 0,00 0,00 488,96 28/02/2022
100 318400 ALDO CREPALDI JUNIOR OFICIAL DO MP BELO HORIZONTE - COMARCA; DIVISAO DE MATERIAIS 1.198,00 0,00 519,00 0,00 5.759,82 0,00 0,00 0,00 527,98 28/02/2022
101 604500 ALENIZE APARECIDA RODRIGUES HENRIQUE OFICIAL DO MP RIO NOVO - COMARCA; RIO NOVO-PJ-UNPJ 1.198,00 0,00 519,00 0,00 2.447,56 0,00 0,00 0,00 224,36 28/02/2022
102 197900 ALESSA DE SOUSA E SILVA OFICIAL DO MP OLIVEIRA - COMARCA; OLIVEIRA-PJ-02PJ 1.198,00 0,00 519,00 0,00 5.628,28 0,00 0,00 0,00 515,93 28/02/2022
103 428500 ALESSANDRA ALVES DINIZ OFICIAL DO MP BELO HORIZONTE - COMARCA; CENTRAL DE APOIO TECNICO-SECRETARIA 1.198,00 0,00 519,00 0,00 0,00 0,00 0,00 0,00 0,00 28/02/2022
104 1239800 ALESSANDRA ARAUJO DE OLIVEIRA ESTAGIARIO CARANGOLA; CARANGOLA-PJ-02PJ 0,00 0,00 0,00 171,00 0,00 0,00 0,00 0,00 0,00 28/02/2022
105 286801 ALESSANDRA BOTELHO JUNQUEIRA DE MENEZES ANALISTA DO MP PASSOS - COMARCA; PASSOS-PJ-05PJ 1.198,00 885,30 519,00 0,00 5.615,10 0,00 0,00 0,00 514,72 28/02/2022
106 307000 ALESSANDRA CRISTINA SANTOS MENDES ANALISTA DO MP BELO HORIZONTE - COMARCA; BH-18PJ VIOLENCIA DOMESTICA-SECRETARIA 1.198,00 0,00 519,00 0,00 5.559,02 0,00 0,00 0,00 509,58 28/02/2022
107 264400 ALESSANDRA DE SOUZA SANTOS ANALISTA DO MP BELO HORIZONTE - COMARCA; SUPERINTENDENCIA DOS ORGAOS COLEGIADOS 1.198,00 0,00 519,00 0,00 0,00 0,00 0,00 0,00 0,00 28/02/2022
108 441500 ALESSANDRA DRUMMOND DE FIGUEIREDO ROSSI ANALISTA DO MP BELO HORIZONTE - COMARCA; DIRETORIA DE PROJETOS DE EDIFICACOES 1.198,00 0,00 519,00 0,00 0,00 0,00 0,00 0,00 0,00 28/02/2022
109 1309800 ALESSANDRA KELLY DA SILVA ROCHA ESTAGIARIO RIBEIRAO DAS NEVES; RIBEIRAO DAS NEVES-PJ-08PJ 0,00 0,00 0,00 45,00 0,00 0,00 0,00 0,00 0,00 28/02/2022
110 524000 ALESSANDRA LUCIOLI DE BARROS GUERRA ANALISTA DO MP BELO HORIZONTE - COMARCA; BH-19PJ SAUDE--SECRETARIA 1.198,00 0,00 519,00 0,00 5.316,76 0,00 0,00 0,00 487,37 28/02/2022
111 479900 ALESSANDRA MARA ANDRADE DE FARIA OFICIAL DO MP UBERABA - COMARCA; UBERABA-PJ-09PJ 1.198,00 0,00 519,00 0,00 3.798,17 0,00 0,00 0,00 348,17 28/02/2022
112 226700 ALESSANDRA MARA VASCONCELOS REZENDE OFICIAL DO MP CONSELHEIRO LAFAIETE - COMARCA; CONSELHEIRO LAFAIETE-PJ-07PJ 1.198,00 0,00 519,00 0,00 5.582,76 0,00 0,00 0,00 511,75 28/02/2022
113 112100 ALESSANDRA MARCIA FERREIRA OFICIAL DO MP BELO HORIZONTE - COMARCA; BELO HORIZONTE- SECRETARIA DAS PROMOTORIAS 1.198,00 0,00 519,00 0,00 1.369,47 0,00 0,00 0,00 125,53 28/02/2022
114 196500 ALESSANDRA MARIA RIBEIRO LUCIANO OFICIAL DO MP RIO PARANAÍBA - COMARCA; RIO PARANAIBA-PJ-UNPJ 1.198,00 0,00 519,00 0,00 0,00 0,00 0,00 0,00 0,00 28/02/2022
115 1257300 ALESSANDRA MIRANDA REZENDE ESTAGIARIO RIBEIRAO DAS NEVES; RIBEIRAO DAS NEVES-PJ-02PJ
116 290500 ALESSANDRA PINTO CASSIANO PROMOTOR 2A ENTRANCIA BOA ESPERANÇA - COMARCA; BOA ESPERANCA-PJ-02PJ 1.198,00 0,00 1.452,75 0,00 10.668,22 0,00 0,00 0,00 488,96 28/02/2022
117 651700 ALESSANDRA PROFIRIO SOUZA OFICIAL DO MP NOVA ERA - COMARCA; NOVA ERA-PJ-UNPJ 1.198,00 0,00 519,00 0,00 0,00 0,00 0,00 0,00 0,00 28/02/2022
118 384900 ALESSANDRA RODRIGUES ANALISTA DO MP VISCONDE DO RIO BRANCO - COMARCA; VISCONDE DO RIO BRANCO-PJ-03PJ 1.198,00 885,30 519,00 0,00 5.679,61 0,00 0,00 0,00 520,63 28/02/2022
119 390000 ALESSANDRA SPADANO MASSARA VASCONCELOS OFICIAL DO MP BETIM - COMARCA; BETIM-PJ-10PJ 1.198,00 0,00 519,00 0,00 0,00 0,00 0,00 0,00 0,00 28/02/2022
120 1373300 ALESSANDRA VIEIRA RODRIGUES ESTAGIARIO MONTES CLAROS; MONTES CLAROS-PJ-07PJ 0,00 0,00 0,00 135,00 0,00 0,00 0,00 0,00 0,00 28/02/2022
121 426500 ALESSANDRO CAMPOS DE PAIVA ANALISTA DO MP BELO HORIZONTE - COMARCA; DIR CRIACAO E MIDIAS 1.198,00 0,00 519,00 0,00 0,00 0,00 0,00 0,00 0,00 28/02/2022
122 623400 ALESSANDRO DE OLIVEIRA REZENDE ANALISTA DO MP BELO HORIZONTE - COMARCA; DIRET DE INFORMACAO E CONHECIMENTO-DINC/CEAF 1.198,00 0,00 519,00 0,00 0,00 0,00 0,00 0,00 0,00 28/02/2022
123 1137100 ALESSANDRO GARCIA ESTAGIARIO DIVINOPOLIS; DIVINOPOLIS-PJ-06PJ 0,00 0,00 0,00 135,00 0,00 0,00 0,00 0,00 0,00 28/02/2022
124 174100 ALESSANDRO GARCIA SILVA PROMOT.ENTRANC.ESPECIAL DIVINÓPOLIS - COMARCA; DIVINOPOLIS-PJ-12PJ 1.198,00 0,00 2.624,31 0,00 11.229,70 0,00 0,00 0,00 514,69 28/02/2022
125 308201 ALESSANDRO RAMOS MACHADO PROMOTOR 2A ENTRANCIA ALFENAS - COMARCA; ALFENAS-PJ-04PJ 1.198,00 0,00 2.868,79 0,00 0,00 0,00 0,00 0,00 0,00 28/02/2022
126 665700 ALESSANDRO ROGERIO DIAS DE OLIVEIRA PROMOT.ENTRANC.ESPECIAL CARATINGA - COMARCA; CARATINGA-PJ-03PJ 1.198,00 0,00 1.546,48 0,00 5.614,85 0,00 0,00 0,00 514,69 28/02/2022
127 420600 ALESSANDRO SILVA OFICIAL DO MP VISCONDE DO RIO BRANCO - COMARCA; VISCONDE DO RIO BRANCO-PJ-02PJ 1.198,00 0,00 519,00 0,00 5.353,36 0,00 0,00 0,00 490,72 28/02/2022
128 1388100 ALESSANDRO SOUZA PEREIRA ESTAGIARIO ALMENARA; ALMENARA-PJ-COORD PJ 0,00 0,00 0,00 162,00 0,00 0,00 0,00 0,00 0,00 28/02/2022
129 171100 ALESSIA ALVES DE ALVARENGA SANTA BARBARA PROMOT.ENTRANC.ESPECIAL CONSELHEIRO LAFAIETE - COMARCA; CONSELHEIRO LAFAIETE-PJ-06PJ 1.198,00 0,00 2.108,82 0,00 11.229,70 0,00 0,00 0,00 514,69 28/02/2022
130 57800 ALESSIO GUIMARAES PROCURADOR DE JUSTICA BELO HORIZONTE - COMARCA; GABINETE DE PROCURADOR DE JUSTIÇA - SALA 508 1.198,00 0,00 3.546,22 0,00 5.910,37 0,00 0,00 0,00 541,78 28/02/2022
131 375301 ALETHEIA PATRICIA ASSIS MORAIS MOREIRA ANALISTA DO MP ITABIRA - COMARCA; ITABIRA-PJ-02PJ 1.198,00 885,30 519,00 0,00 5.316,76 0,00 0,00 0,00 487,37 28/02/2022
132 1337000 ALEX ALVES DA SILVA ESTAGIARIO ABRE CAMPO; ABRE CAMPO-PJ-01PJ 0,00 0,00 0,00 189,00 0,00 0,00 0,00 0,00 0,00 28/02/2022
133 1296700 ALEX CANDIDO MACIEL LOPES ESTAGIARIO ITABIRITO; ITABIRITO-PJ-01PJ 0,00 0,00 0,00 162,00 0,00 0,00 0,00 0,00 0,00 28/02/2022
134 382300 ALEX CARVALHO LIMA ANALISTA DO MP UBERLÂNDIA - COMARCA; UBERLANDIA-PJ-14PJ 1.198,00 0,00 519,00 0,00 5.679,61 0,00 0,00 0,00 520,63 28/02/2022
135 195201 ALEX DE CASTRO PEREIRA ANALISTA DO MP UBERABA - COMARCA; UBERABA-PJ-09PJ 1.198,00 0,00 519,00 0,00 5.068,94 0,00 0,00 0,00 464,65 28/02/2022
136 358900 ALEX DE PAULA LANZA ASSESSOR BELO HORIZONTE - COMARCA; DIR CONTEUDO JORNALISTICO 1.198,00 885,30 519,00 0,00 0,00 0,00 0,00 0,00 0,00 28/02/2022
137 171400 ALEX FERNANDES SANTIAGO PROMOT.ENTRANC.ESPECIAL JUIZ DE FORA - COMARCA; JUIZ DE FORA-PJ-08PJ 1.198,00 0,00 2.366,57 0,00 11.229,70 0,00 0,00 0,00 514,69 28/02/2022
138 685300 ALEX RAFAEL BITTENCOURT PROMOTOR SUBSTITUTO LEOPOLDINA - COMARCA; LEOPOLDINA-PJ-04PJ 1.198,00 0,00 820,10 0,00 10.134,80 0,00 0,00 0,00 464,51 28/02/2022
139 178400 ALEX RODRIGO SALDANHA GUIMARAES OFICIAL DO MP BELO HORIZONTE - COMARCA; DIRETORIA DE SISTEMAS DE INFORMACAO 1.198,00 0,00 519,00 0,00 0,00 0,00 0,00 0,00 0,00 28/02/2022
140 314100 ALEX SOARES NACIF PROMOT.ENTRANC.ESPECIAL CONTAGEM - COMARCA; CONTAGEM-PJ-15PJ 1.198,00 0,00 2.832,74 0,00 5.614,85 0,00 0,00 0,00 514,69 28/02/2022
141 413500 ALEX VILELA OLIVEIRA ANALISTA DO MP GOVERNADOR VALADARES - COMARCA; COORD REG PJ DEF EDU DIR CRIANCA ADOL RIODOCE 1.198,00 0,00 519,00 0,00 4.812,94 0,00 0,00 0,00 441,19 28/02/2022
142 1274500 ALEXANDER MAXIMILIANO FERREIRA SILVA ESTAGIARIO BELO HORIZONTE; BH-13ª PJ JUÍXO DE TÓXICOS 0,00 0,00 0,00 36,00 0,00 0,00 0,00 0,00 0,00 28/02/2022
143 1356900 ALEXANDRA ANTUNES ESTAGIARIO UNAI; UNAI-PJ-04PJ 0,00 0,00 0,00 189,00 0,00 0,00 0,00 0,00 0,00 28/02/2022
144 264300 ALEXANDRA FATIMA SARAIVA SOARES ANALISTA DO MP BELO HORIZONTE - COMARCA; CENTRAL DE APOIO TECN-SETOR DE MEIO AMBIENTE 1.198,00 0,00 519,00 0,00 5.871,88 0,00 0,00 0,00 538,26 28/02/2022
145 488000 ALEXANDRA LARA PAIS DE CARVALHO ANALISTA DO MP SERRO - COMARCA; SERRO-PJ-UNPJ 1.198,00 0,00 519,00 0,00 5.800,10 0,00 0,00 0,00 531,68 28/02/2022
146 256300 ALEXANDRA SANTOS GOMES OFICIAL DO MP BELO HORIZONTE - COMARCA; DIRETORIA GESTAO COMPRAS LICITACOES 1.198,00 0,00 519,00 0,00 0,00 0,00 0,00 0,00 0,00 28/02/2022
147 236300 ALEXANDRE ALVES DE OLIVEIRA PROMOT.ENTRANC.ESPECIAL BELO HORIZONTE - COMARCA; BH-12PJ JUIZO CRIMINAL-GAB 101PJ 1.198,00 0,00 1.077,84 0,00 5.614,85 0,00 0,00 0,00 514,69 28/02/2022
148 403300 ALEXANDRE AUGUSTO RODRIGUES ANALISTA DO MP ÁGUAS FORMOSAS - COMARCA; AGUAS FORMOSAS-PJ-UNPJ 1.198,00 1.770,60 519,00 0,00 0,00 0,00 0,00 0,00 0,00 28/02/2022
149 640900 ALEXANDRE BARBOSA MASCARENHAS ANALISTA DO MP BETIM - COMARCA; BETIM-PJ-02PJ 1.198,00 0,00 519,00 0,00 0,00 0,00 0,00 0,00 0,00 28/02/2022
150 311700 ALEXANDRE BARCELOS RESENDE OFICIAL DO MP BELO HORIZONTE - COMARCA; BH-19PJ SAUDE-SECRETARIA 047PJ 1.198,00 885,30 519,00 0,00 0,00 0,00 0,00 0,00 0,00 28/02/2022
151 293700 ALEXANDRE BRASILEIRO DE QUEIROZ PROMOT.ENTRANC.ESPECIAL BELO HORIZONTE - COMARCA; BH-12PJ JUIZO CRIMINAL-GAB 092PJ 1.198,00 0,00 3.368,91 0,00 11.229,70 0,00 0,00 0,00 514,69 28/02/2022
152 285600 ALEXANDRE CAMPOS DE OLIVEIRA OFICIAL DO MP UBERABA - COMARCA; COORD REG BACIAS PARANAIBA BAIXO RIO GRANDE 1.198,00 0,00 519,00 0,00 5.759,82 0,00 0,00 0,00 527,98 28/02/2022
153 509200 ALEXANDRE CAPUANO DE REZENDE ANALISTA DO MP BELO HORIZONTE - COMARCA; BH-07PJ 02 TRIBUNAL DO JURI-GAB 109PJ 1.198,00 0,00 519,00 0,00 0,00 0,00 0,00 0,00 0,00 28/02/2022
154 229400 ALEXANDRE CARLOS BOTREL DIRETOR/OFICIAL BELO HORIZONTE - COMARCA; SUPERINTENDENCIA DOS ORGAOS COLEGIADOS 1.198,00 0,00 519,00 0,00 5.433,14 0,00 0,00 0,00 498,04 28/02/2022
155 411900 ALEXANDRE CARVALHO SANTOS RIBEIRO ANALISTA DO MP OLIVEIRA - COMARCA; OLIVEIRA-PJ-02PJ 1.198,00 885,30 519,00 0,00 5.500,51 0,00 0,00 0,00 504,21 28/02/2022
156 1245200 ALEXANDRE CHAVES SAMPAIO ESTAGIARIO BELO HORIZONTE; BH-12PJ JUIZO CRIMINAL-GAB 095PJ 0,00 0,00 0,00 99,00 0,00 0,00 0,00 0,00 0,00 28/02/2022
157 641600 ALEXANDRE DA SILVA ASSUNCAO OFICIAL DO MP BELO HORIZONTE - COMARCA; SERVICO MEDICO-DEPTO PERIC MEDICA SAUDE OCUP 1.198,00 0,00 519,00 0,00 0,00 0,00 0,00 0,00 0,00 28/02/2022
158 201200 ALEXANDRE DE ALENCAR CORDEIRO OFICIAL DO MP ÁGUAS FORMOSAS - COMARCA; AGUAS FORMOSAS-PJ-UNPJ 1.198,00 0,00 519,00 0,00 0,00 0,00 0,00 0,00 0,00 28/02/2022
159 288200 ALEXANDRE DE VASCONCELOS COSTA KER ANALISTA DO MP BELO HORIZONTE - COMARCA; BH-03PJ EMPRESARIAL-SECRETARIA 1.198,00 0,00 519,00 0,00 5.433,14 0,00 0,00 0,00 498,04 28/02/2022
160 445000 ALEXANDRE DIOGENES OLIVEIRA ANALISTA DO MP SALINAS - COMARCA; SALINAS-PJ-02PJ 1.198,00 885,30 519,00 0,00 5.668,65 0,00 0,00 0,00 519,63 28/02/2022
161 665800 ALEXANDRE FIGUEIREDO MORATO PROMOTOR 2A ENTRANCIA PIRAPORA - COMARCA; PIRAPORA-PJ-04PJ 1.198,00 0,00 1.125,24 0,00 5.334,11 0,00 0,00 0,00 488,96 28/02/2022
162 463400 ALEXANDRE LEAL WINKELSTROTER ANALISTA DO MP TEÓFILO OTONI - COMARCA; TEOFILO OTONI-PJ-04PJ 1.198,00 0,00 519,00 0,00 0,00 0,00 0,00 0,00 0,00 28/02/2022
163 96600 ALEXANDRE LIBERO BARONI PROMOT.ENTRANC.ESPECIAL SETE LAGOAS - COMARCA; SETE LAGOAS-PJ-04PJ 1.198,00 0,00 3.368,91 0,00 11.229,70 0,00 0,00 0,00 514,69 28/02/2022
164 1189100 ALEXANDRE LOPES PEREIRA ESTAGIARIO CANAPOLIS; CANAPOLIS-PJ-UNPJ 0,00 0,00 0,00 189,00 0,00 0,00 0,00 0,00 0,00 28/02/2022
165 615700 ALEXANDRE LUIZ DE CASTRO MACIEL ANALISTA DO MP BELO HORIZONTE - COMARCA; BH-08PJ JUIZADO ESPECIAL-SECRETARIA 1.198,00 0,00 519,00 0,00 0,00 0,00 0,00 0,00 0,00 28/02/2022
166 356900 ALEXANDRE MOISES MENDONCA E ARAUJO OFICIAL DO MP UBERABA - COMARCA; UBERABA-PJ-13PJ 1.198,00 0,00 519,00 0,00 0,00 0,00 0,00 0,00 0,00 28/02/2022
167 232100 ALEXANDRE MOTTA BENEVIDES PROMOT.ENTRANC.ESPECIAL BELO HORIZONTE - COMARCA; BH-12PJ JUIZO CRIMINAL-GAB 094PJ 1.198,00 0,00 2.530,59 0,00 11.229,70 0,00 0,00 0,00 514,69 28/02/2022
168 633300 ALEXANDRE NONATO MARTINS OFICIAL DO MP IGARAPÉ - COMARCA; IGARAPE-PJ-02PJ 1.198,00 0,00 519,00 0,00 0,00 0,00 0,00 0,00 0,00 28/02/2022
169 469900 ALEXANDRE PEREIRA GUEDES ANALISTA DO MP CATAGUASES - COMARCA; CATAGUASES-PJ-03PJ 1.198,00 0,00 519,00 0,00 5.800,10 0,00 0,00 0,00 531,68 28/02/2022
170 208700 ALEXANDRE RESENDE FRAGA ANALISTA DO MP BELO HORIZONTE - COMARCA; BH-19PJ SAUDE-SECRETARIA 130PJ 1.198,00 0,00 519,00 0,00 0,00 0,00 0,00 0,00 0,00 28/02/2022
171 156900 ALEXANDRE REZENDE GRILLO PROMOTOR 2A ENTRANCIA SÃO GONÇALO DO SAPUCAÍ - COMARCA; SAO GONCALO DO SAPUCAI-PJ-02PJ 1.198,00 0,00 2.952,35 0,00 16.002,33 0,00 0,00 0,00 488,96 28/02/2022
172 216401 ALEXANDRE RIBEIRO DE LIMA MAIORINO ANALISTA DO MP UBERABA - COMARCA; UBERABA-PJ-03PJ 1.198,00 0,00 519,00 0,00 5.851,08 0,00 0,00 0,00 536,35 28/02/2022
173 475100 ALEXANDRE TEOTONIO COSTA ANALISTA DO MP ARAGUARI - COMARCA; ARAGUARI-PJ-01PJ 1.198,00 0,00 519,00 0,00 966,68 0,00 0,00 0,00 88,61 28/02/2022
174 339000 ALEXANDRE VITOR CARDOSO OFICIAL DO MP BELO HORIZONTE - COMARCA; BH-12PJ JUIZO CRIMINAL-SECRETARIA 1.198,00 0,00 519,00 0,00 2.229,06 0,00 0,00 0,00 204,33 28/02/2022
175 694000 ALEXANDRO ANTONIO PORTO E SOUZA INVESTIGADOR DE POLICIA 2 BELO HORIZONTE - COMARCA; GAECO - SETOR POLICIAL CIVIL 1.198,00 0,00 0,00 0,00 0,00 0,00 0,00 0,00 0,00 28/02/2022
176 1321800 ALEXIA DE SOUSA PIRES ALVES ESTAGIARIO 0,00 0,00 0,00 180,00 0,00 0,00 0,00 0,00 0,00 28/02/2022
177 678900 ALEXIA DUARTE TORRES ASSESSOR PROCURADOR JUSTICA BELO HORIZONTE - COMARCA; GABINETE DE PROCURADOR DE JUSTIÇA - SALA 502 1.198,00 0,00 519,00 0,00 0,00 0,00 0,00 0,00 0,00 28/02/2022
178 1311700 ALEXIA VASCONCELOS MOREIRA ESTAGIARIO CONSELHEIRO PENA; CONSELHEIRO PENA-PJ-01PJ 0,00 0,00 0,00 90,00 0,00 0,00 0,00 0,00 0,00 28/02/2022
179 623100 ALEXSANDER BATISTA AGUIAR COORDENADOR/ANALISTA BELO HORIZONTE - COMARCA; DIRETORIA DE SUPORTE E MANUTENCAO 1.198,00 885,30 519,00 0,00 5.911,47 0,00 0,00 0,00 541,88 28/02/2022
180 1403500 ALEXSANDER SOARES DINIZ JUNIOR ESTAGIARIO BARBACENA; BARBACENA-PJ-01PJ 0,00 0,00 0,00 27,00 0,00 0,00 0,00 0,00 0,00 28/02/2022
181 1371800 ALEXSANDRA GONCALVES DA SILVA ESTAGIARIO BELO HORIZONTE; PROC. JUSTICA DIR. DIFUSOS E COLETIVOS 0,00 0,00 0,00 189,00 0,00 0,00 0,00 0,00 0,00 28/02/2022
182 513300 ALFSON MIRANDA BRAGA ANALISTA DO MP BELO HORIZONTE - COMARCA; BH-12PJ JUIZO CRIMINAL-GAB 087PJ 1.198,00 0,00 519,00 0,00 3.866,73 0,00 0,00 0,00 354,45 28/02/2022
183 157000 ALI MAHMOUD FAYEZ AYOUB PROMOTOR 2A ENTRANCIA GUAXUPÉ - COMARCA; GUAXUPE-PJ-02PJ 1.198,00 0,00 3.200,47 0,00 10.668,22 0,00 0,00 0,00 488,96 28/02/2022
184 1178100 ALICE ARAUJO CAMPOS ESTAGIARIO PARACATU; PARACATU-PJ-04PJ 0,00 0,00 0,00 144,00 0,00 0,00 0,00 0,00 0,00 28/02/2022
185 1393700 ALICE CRISTINA PEREIRA ESTAGIARIO POCOS DE CALDAS; POCOS DE CALDAS-PJ-05PJ 0,00 0,00 0,00 63,00 0,00 0,00 0,00 0,00 0,00 28/02/2022
186 1369100 ALICE DE FREITAS REZENDE TORRES ESTAGIARIO BELO HORIZONTE; GABINETE DE PROCURADOR DE JUSTIÇA - SALA 814
187 485300 ALICE DE MELLO VILELA PROMOT.ENTRANC.ESPECIAL CONTAGEM - COMARCA; CONTAGEM-PJ-06PJ 1.198,00 0,00 1.343,45 0,00 16.844,55 0,00 0,00 0,00 514,69 28/02/2022
188 1286400 ALICE FARIA TAYACOL ESTAGIARIO ITUIUTABA; ITUIUTABA-PJ-05PJ 0,00 0,00 0,00 180,00 0,00 0,00 0,00 0,00 0,00 28/02/2022
189 1321200 ALICE GOMES AMORIM ESTAGIARIO MONTES CLAROS; MONTES CLAROS-PJ-05PJ 0,00 0,00 0,00 144,00 0,00 0,00 0,00 0,00 0,00 28/02/2022
190 1270700 ALICE LEAO GUERRA ESTAGIARIO JUIZ DE FORA; JUIZ DE FORA-PJ-03PJ 0,00 0,00 0,00 108,00 0,00 0,00 0,00 0,00 0,00 28/02/2022
191 618400 ALICE MAGALHAES MACEDO DE CARVALHO ANALISTA DO MP IPATINGA - COMARCA; IPATINGA-PJ-10PJ 1.198,00 885,30 519,00 0,00 4.427,11 0,00 0,00 0,00 405,82 28/02/2022
192 707000 ALICE MARIA RIBEIRO DINIZ ASSESSOR PROMOTOR JUSTICA BELO HORIZONTE - COMARCA; PROC JUST ATUACAO TRIBUNAIS SUPERIORES-GAB004 1.198,00 0,00 519,00 0,00 0,00 0,00 0,00 0,00 0,00 28/02/2022
193 471000 ALICE TITONELI MOREIRA ANALISTA DO MP MIRADOURO - COMARCA; MIRADOURO-PJ-UNPJ 1.198,00 885,30 519,00 0,00 0,00 0,00 0,00 0,00 0,00 28/02/2022
194 1347000 ALICIA CAMPOS ARAUJO ESTAGIARIO BELO HORIZONTE; BH-07PJ 03 TRIBUNAL DO JURI-GAB 064PJ 0,00 0,00 0,00 90,00 0,00 0,00 0,00 0,00 0,00 28/02/2022
195 1387100 ALICIA PAULA RODRIGUES DE LIMA ESTAGIARIO TIROS; TIROS-PJ-UNPJ 0,00 0,00 0,00 189,00 0,00 0,00 0,00 0,00 48,20 28/02/2022
196 1303700 ALICIA SOUZA COSTA ESTAGIARIO IPATINGA; IPATINGA-PJ-09PJ 0,00 0,00 0,00 135,00 0,00 0,00 0,00 0,00 0,00 28/02/2022
197 1403100 ALINE APARECIDA CUSTODIO ESTAGIARIO SAO SEBASTIAO DO PARAISO; SAO SEBASTIAO DO PARAISO-PJ-01PJ 0,00 0,00 0,00 27,00 0,00 0,00 0,00 0,00 0,00 28/02/2022
198 622400 ALINE BALBINO PORTUGAL LOPES ANALISTA DO MP TRÊS PONTAS - COMARCA; TRES PONTAS-PJ-03PJ 1.198,00 885,30 519,00 0,00 4.427,11 0,00 0,00 0,00 405,82 28/02/2022
199 373000 ALINE BOTELHO RESENDE OFICIAL DO MP JUIZ DE FORA - COMARCA; JUIZ DE FORA-PJ-22PJ 1.198,00 0,00 519,00 0,00 0,00 0,00 0,00 0,00 0,00 28/02/2022
200 1276000 ALINE BRAGA MESSIAS ESTAGIARIO BELO HORIZONTE; BH-02PJ FAMILIA-GAB 023PJ
201 699800 ALINE CRISTINA DE OLIVEIRA AMARAL BARBOSA ASSESSOR PROCURADOR JUSTICA BELO HORIZONTE - COMARCA; GABINETE DE PROCURADOR DE JUSTIÇA - SALA 904 1.198,00 0,00 519,00 0,00 0,00 0,00 0,00 0,00 0,00 28/02/2022
202 407700 ALINE CRISTINA RODRIGUES PEREIRA COORDENADOR/ANALISTA BELO HORIZONTE - COMARCA; DIRETORIA DE PROJETOS DE EDIFICACOES 1.198,00 0,00 519,00 0,00 5.803,99 0,00 0,00 0,00 532,03 28/02/2022
203 193100 ALINE CRISTINA SENA OLIVEIRA OFICIAL DO MP UBERLÂNDIA - COMARCA; UBERLANDIA-PJ-03PJ 1.198,00 885,30 519,00 0,00 5.986,63 0,00 0,00 0,00 548,77 28/02/2022
204 554200 ALINE CRISTINA SILVA SOUZA OFICIAL DO MP TIROS - COMARCA; TIROS-PJ-UNPJ 1.198,00 0,00 519,00 0,00 0,00 0,00 0,00 0,00 0,00 28/02/2022
205 505500 ALINE DA CUNHA MARREIROS OLIVEIRA ANALISTA DO MP EUGENÓPOLIS - COMARCA; EUGENOPOLIS-PJ-UNPJ 1.198,00 1.770,60 519,00 0,00 0,00 0,00 0,00 0,00 0,00 28/02/2022
206 433500 ALINE DE MELO QUEIROZ ASSESSOR/OFICIAL BELO HORIZONTE - COMARCA; ASSESSORIA TECNICA DO PROCON-MG 1.198,00 885,30 519,00 0,00 5.988,97 0,00 0,00 0,00 548,99 28/02/2022
207 691100 ALINE DE MELO SOUZA ASSESSOR PROCURADOR JUSTICA BELO HORIZONTE - COMARCA; GABINETE DE PROCURADOR DE JUSTIÇA - SALA 401 1.198,00 0,00 519,00 0,00 0,00 0,00 0,00 0,00 0,00 28/02/2022
208 542700 ALINE DE SOUSA ALBINO ANALISTA DO MP CONTAGEM - COMARCA; CONTAGEM-PJ-09PJ 1.198,00 0,00 519,00 0,00 4.571,23 0,00 0,00 0,00 419,03 28/02/2022
209 330000 ALINE DIORIO MAYRINK OFICIAL DO MP BELO HORIZONTE - COMARCA; NUCLEO DE ACORDOS DE NAO PERSECUCAO PENAL BH 1.198,00 0,00 519,00 0,00 3.798,17 0,00 0,00 0,00 348,17 28/02/2022
210 499000 ALINE FERREIRA LOPES ANALISTA DO MP TEÓFILO OTONI - COMARCA; TEOFILO OTONI-PJ-09PJ 1.198,00 0,00 519,00 0,00 5.800,10 0,00 0,00 0,00 531,68 28/02/2022
211 405300 ALINE LAIA CARDOZO DIRETOR/ANALISTA BELO HORIZONTE - COMARCA; SUPERINTENDENCIA LOGISTICA SERVICOS 1.198,00 0,00 519,00 0,00 2.547,79 0,00 0,00 0,00 233,55 28/02/2022
212 1370000 ALINE LOPES DA SILVA ESTAGIARIO BELO HORIZONTE; BH-21PJ TUTELA FUNDACOES-SECRETARIA 0,00 0,00 0,00 135,00 0,00 0,00 0,00 0,00 0,00 28/02/2022
213 278200 ALINE MARCIA FARIA BARBOSA FERNANDES OFICIAL DO MP BARBACENA - COMARCA; BARBACENA-PJ-SECRETARIA 1.198,00 0,00 519,00 0,00 3.984,95 0,00 0,00 0,00 365,29 28/02/2022
214 1334100 ALINE MORGANE DE SOUZA ESTAGIARIO VARZEA DA PALMA; VARZEA DA PALMA-PJ-02PJ 0,00 0,00 0,00 180,00 0,00 0,00 0,00 0,00 0,00 28/02/2022
215 389000 ALINE NERI NOBRE ANALISTA DO MP MONTES CLAROS - COMARCA; COORD REG PJ DEF EDUC DIR CRIANCA ADOL NORTE 1.198,00 0,00 519,00 0,00 5.383,80 0,00 0,00 0,00 493,52 28/02/2022
216 1138600 ALINE OLIVEIRA DE FATIMA ESTAGIARIO PARACATU; GAECO REGIONAL DE PARACATU 0,00 0,00 0,00 171,00 0,00 0,00 0,00 0,00 0,00 28/02/2022
217 294600 ALINE PATRICIA SILVA VIEIRA OFICIAL DO MP UBERLÂNDIA - COMARCA; UBERLANDIA-PJ-03PJ 1.198,00 0,00 519,00 0,00 0,00 0,00 1.445,27 0,00 0,00 28/02/2022
218 420000 ALINE RODRIGUES CAMOROPIN ANALISTA DO MP SABARÁ - COMARCA; SABARA-PJ-02PJ 1.198,00 0,00 519,00 0,00 5.500,51 0,00 0,00 0,00 504,21 28/02/2022
219 715800 ALINE SANTOS PEDROSA MAIA BARBOSA ASSESSOR PROCURADOR JUSTICA BELO HORIZONTE - COMARCA; GABINETE DE PROCURADOR DE JUSTIÇA - SALA 1010 1.851,45 0,00 1.038,00 0,00 0,00 0,00 0,00 0,00 3.354,27 28/02/2022
220 699600 ALINE SEPULVEDA ROSA PIRES ASSESSOR PROCURADOR JUSTICA BELO HORIZONTE - COMARCA; GABINETE DE PROCURADOR DE JUSTIÇA - SALA 905 1.198,00 0,00 519,00 0,00 0,00 0,00 0,00 0,00 0,00 28/02/2022
221 408300 ALINE SILVA ARAUJO DE PAULA ANALISTA DO MP SÃO SEBASTIÃO DO PARAÍSO - COMARCA; SAO SEBASTIAO DO PARAISO-PJ-02PJ 1.198,00 372,37 519,00 0,00 5.500,51 0,00 0,00 0,00 504,21 28/02/2022
222 665900 ALINE SILVA BARROS PROMOTOR 2A ENTRANCIA VARZEA DA PALMA - COMARCA; VARZEA DA PALMA-PJ-01PJ 1.198,00 0,00 773,24 0,00 5.334,11 0,00 0,00 0,00 488,96 28/02/2022
223 1182600 ALINE SILVA MONTOVANI ESTAGIARIO VARGINHA; VARGINHA-PJ-07PJ 0,00 0,00 0,00 180,00 0,00 0,00 0,00 0,00 0,00 28/02/2022
224 1323500 ALINE SIMAO DE PAULA ESTAGIARIO BELO HORIZONTE; PROC. JUSTICA DIR. DIFUSOS E COLETIVOS 0,00 0,00 0,00 9,00 0,00 0,00 0,00 0,00 0,00 28/02/2022
225 1138200 ALINE STEFANE DE OLIVEIRA ASSUNCAO ESTAGIARIO BELO HORIZONTE; BH-23PJ INFRACIONAL-RECEPCAO 0,00 0,00 0,00 72,00 0,00 0,00 0,00 0,00 0,00 28/02/2022
226 425400 ALINE TRINDADE DE FREITAS CAMPOS OFICIAL DO MP BELO HORIZONTE - COMARCA; BH-14PJ DEFESA CONSUMIDOR-SECRETARIA 1.198,00 0,00 519,00 0,00 0,00 0,00 0,00 0,00 0,00 28/02/2022
227 1334800 ALINE VICTORIA SILVA MENDES ESTAGIARIO CONSELHEIRO LAFAIETE; CONSELHEIRO LAFAIETE-PJ-08PJ 0,00 0,00 0,00 180,00 0,00 0,00 0,00 0,00 0,00 28/02/2022
228 1367500 ALINY CRISTINA RODRIGUES ESTAGIARIO BELO HORIZONTE; BH-23PJ CIVEL-SETOR JURIDICO 0,00 0,00 0,00 54,00 0,00 0,00 0,00 0,00 0,00 28/02/2022
229 1255800 ALISANGELA DIAS DE SOUZA ESTAGIARIO 0,00 0,00 0,00 180,00 0,00 0,00 0,00 0,00 0,00 28/02/2022
230 517200 ALISSOM PEREIRA DA SILVA ANALISTA DO MP BORDA DA MATA - COMARCA; BORDA DA MATA-PJ-UNPJ 1.198,00 885,30 519,00 0,00 5.800,10 0,00 0,00 0,00 531,68 28/02/2022
231 1335600 ALISSON BRENNER ALVES DE OLIVEIRA ESTAGIARIO SALINAS; SALINAS-PJ-01PJ 0,00 0,00 0,00 99,00 0,00 0,00 0,00 0,00 0,00 28/02/2022
232 442400 ALISSON LABRE ANALISTA DO MP VARGINHA - COMARCA; VARGINHA-PJ-03PJ 1.198,00 0,00 519,00 0,00 5.800,10 0,00 0,00 0,00 531,68 28/02/2022
233 1372800 ALISSON SILVA SOUZA ESTAGIARIO ITUIUTABA; ITUIUTABA-PJ-06PJ 0,00 0,00 0,00 135,00 0,00 0,00 0,00 0,00 0,00 28/02/2022
234 643800 ALLAN PAUL FONSECA DE CASTRO OFICIAL DO MP CONTAGEM - COMARCA; CONTAGEM-PJ-SECRETARIA 1.198,00 885,30 519,00 0,00 0,00 0,00 0,00 0,00 0,00 28/02/2022
235 612900 ALLAN VINICIUS VIEIRA ARAUJO COORDENADOR/OFICIAL BELO HORIZONTE - COMARCA; DIRETORIA DE GESTAO DOCUMENTAL 1.198,00 0,00 519,00 0,00 5.911,47 0,00 0,00 0,00 541,88 28/02/2022
236 1275700 ALLAN WILIAN PRATES PINTO FIDELES ESTAGIARIO CURVELO; CURVELO-PJ-04PJ 0,00 0,00 0,00 108,00 0,00 0,00 0,00 0,00 0,00 28/02/2022
237 349000 ALLEC RODRIGUES VIEIRA OFICIAL DO MP BELO HORIZONTE - COMARCA; EXTINTA-COORD EST DEF DIR FAM PES DEFIC IDOSO 1.198,00 0,00 519,00 0,00 5.759,82 0,00 0,00 0,00 527,98 28/02/2022
238 532400 ALLENDER BARRETO LIMA DA SILVA PROMOTOR 1A ENTRANCIA BELO HORIZONTE - COMARCA; COORD COMB RACISMO E TODA FORM DISCRIM 1.198,00 0,00 820,10 0,00 5.067,40 0,00 0,00 0,00 0,00 28/02/2022
239 297300 ALLYSON SALIBA MONTEIRO LAIZO ANALISTA DO MP CONSELHEIRO LAFAIETE - COMARCA; CONSELHEIRO LAFAIETE-PJ-03PJ 1.198,00 1.770,60 519,00 0,00 5.871,88 0,00 0,00 0,00 538,26 28/02/2022
240 68900 ALMIR ALVES MOREIRA PROCURADOR DE JUSTICA BELO HORIZONTE - COMARCA; GABINETE DE PROCURADOR DE JUSTIÇA - SALA 1012 1.198,00 0,00 2.694,61 0,00 11.820,74 0,00 0,00 0,00 541,78 28/02/2022
241 226601 ALMIR GERALDO GUIMARAES PROMOTOR 2A ENTRANCIA MATEUS LEME - COMARCA; MATEUS LEME-PJ-02PJ 1.198,00 0,00 2.971,74 0,00 16.002,33 0,00 0,00 0,00 488,96 28/02/2022
242 303700 ALMIR LOPES LOURES ANALISTA DO MP BELO HORIZONTE - COMARCA; CENTRAL DE APOIO TECN-SETOR DE MEIO AMBIENTE 1.198,00 0,00 519,00 0,00 0,00 0,00 0,00 0,00 0,00 28/02/2022
243 1253700 ALOISIO CORREA DE FARIA JUNIOR ESTAGIARIO GOVERNADOR VALADARES; COORD REG DO MA DA BACIA DO RIO DOCE 0,00 0,00 0,00 135,00 0,00 0,00 0,00 0,00 0,00 28/02/2022
244 440700 ALOISIO CUNHA SOARES JUNIOR PROMOTOR 2A ENTRANCIA PATROCÍNIO - COMARCA; PATROCINIO-PJ-04PJ 1.198,00 0,00 3.139,49 0,00 16.002,33 0,00 0,00 0,00 488,96 28/02/2022
245 90600 ALOISIO RABELO DE REZENDE PROMOT.ENTRANC.ESPECIAL VARGINHA - COMARCA; VARGINHA-PJ-01PJ 1.198,00 0,00 2.928,92 0,00 11.229,70 0,00 0,00 0,00 514,69 28/02/2022
246 696600 ALOIZIO MARTINS JALES JUNIOR ASSESSOR PROMOTOR JUSTICA CAMPESTRE - COMARCA; CAMPESTRE-PJ-SECRETARIA 1.198,00 0,00 519,00 0,00 1.437,54 0,00 0,00 0,00 131,77 28/02/2022
247 515900 ALTAIR NEVES JUNIOR OFICIAL DO MP BELO HORIZONTE - COMARCA; BH-01PJ FAZENDA PUBLICA-SECRETARIA 1.198,00 0,00 519,00 0,00 3.310,57 0,00 0,00 0,00 303,47 28/02/2022
248 290800 ALUISIA BERALDO RIBEIRO PROMOT.ENTRANC.ESPECIAL UBERLÂNDIA - COMARCA; UBERLANDIA-PJ-14PJ 1.198,00 0,00 1.546,47 0,00 11.229,70 0,00 0,00 0,00 514,69 28/02/2022
249 233300 ALVARINDO BATISTA ANALISTA DO MP BELO HORIZONTE - COMARCA; NUCLEO APOIO TECNICO ESP COMUNICACAO 1.198,00 885,30 519,00 0,00 0,00 0,00 0,00 0,00 0,00 28/02/2022
250 1402600 ALVARO ARCANJO SILVA PEREIRA ESTAGIARIO FERROS; FERROS-PJ-UNPJ 0,00 0,00 0,00 45,00 0,00 0,00 0,00 0,00 0,00 28/02/2022
251 1234100 ALVARO DA SILVEIRA ROSA JUNIOR ESTAGIARIO DIVINOPOLIS; COORD REG DO MA DA BACIA DO ALTO SAO FRANC 0,00 0,00 0,00 81,00 0,00 0,00 0,00 0,00 0,00 28/02/2022
252 1171700 ALVIM JUNIO DE LIMA ESTAGIARIO BARBACENA; BARBACENA-PJ-02PJ 0,00 0,00 0,00 90,00 0,00 0,00 0,00 0,00 0,00 28/02/2022
253 1216900 ALYNE MARIA EMERICK RABELO ESTAGIARIO MANHUMIRIM; MANHUMIRIM-PJ-01PJ 0,00 0,00 0,00 189,00 0,00 0,00 0,00 0,00 0,00 28/02/2022
254 344400 ALYSSON CARDOZO CEMBRANEL PROMOT.ENTRANC.ESPECIAL BELO HORIZONTE - COMARCA; BH-CENTRAL DE RECEPÇÃO DE FLAGRANTES 1.198,00 0,00 1.710,49 0,00 11.229,70 0,00 0,00 0,00 514,69 28/02/2022
255 274100 ALYSSON CARVALHO VIDAL DE LACERDA OFICIAL DO MP MANHUAÇU - COMARCA; MANHUACU-PJ-01PJ 1.198,00 0,00 519,00 0,00 5.759,82 0,00 0,00 0,00 527,98 28/02/2022
256 1176600 AMANDA ANDREA IDENAGA CASTANHEIRA ESTAGIARIO FRUTAL; FRUTAL-PJ-05PJ 0,00 0,00 0,00 144,00 0,00 0,00 0,00 0,00 0,00 28/02/2022
257 621000 AMANDA BASTOS ALVES ANALISTA DO MP BELO HORIZONTE - COMARCA; BH-07PJ 02 TRIBUNAL DO JURI-GAB 066PJ 1.198,00 0,00 519,00 0,00 0,00 0,00 0,00 0,00 0,00 28/02/2022
258 1253500 AMANDA CAROLINE DIAS GONCALVES ESTAGIARIO PATROCINIO; PATROCINIO-PJ-05PJ 0,00 0,00 0,00 189,00 0,00 0,00 0,00 0,00 0,00 28/02/2022
259 1220800 AMANDA CAROLINY GONCALVES FONSECA ESTAGIARIO RIBEIRAO DAS NEVES; RIBEIRAO DAS NEVES-PJ-07PJ
260 1284600 AMANDA CHRISTINA OLIVEIRA DA SILVA ESTAGIARIO BELO HORIZONTE; PROC JUST ATUACAO TRIBUNAIS SUPERIORES-GAB002 0,00 0,00 0,00 180,00 0,00 0,00 0,00 0,00 0,00 28/02/2022
261 521700 AMANDA CRISTINA AGUIAR MACHADO OFICIAL DO MP CONGONHAS - COMARCA; CONGONHAS-PJ-01PJ 1.198,00 0,00 519,00 0,00 367,43 0,00 0,00 0,00 612,38 28/02/2022
262 1297200 AMANDA CRISTINA GONCALVES ESTAGIARIO BELO HORIZONTE; COORD DE INCLUSAO E MOBILIZACAO SOCIAIS
263 1322900 AMANDA DA SILVA BRAGA ESTAGIARIO BELO HORIZONTE; BH-18PJ VIOLENCIA DOMESTICA-GAB 177PJ 0,00 0,00 0,00 135,00 0,00 0,00 0,00 0,00 0,00 28/02/2022
264 713900 AMANDA DE ARAUJO CARVALHO ASSESSOR PROMOTOR JUSTICA ARAÇUAÍ - COMARCA; ARACUAI-PJ-01PJ 1.198,00 0,00 519,00 0,00 0,00 0,00 0,00 0,00 0,00 28/02/2022
265 613400 AMANDA DE ASSIS IUNES SANTOS ANALISTA DO MP CONGONHAS - COMARCA; CONGONHAS-PJ-01PJ 1.198,00 0,00 519,00 0,00 4.427,11 0,00 0,00 0,00 405,82 28/02/2022
266 695900 AMANDA DE OLIVEIRA ASSESSOR PROCURADOR JUSTICA BELO HORIZONTE - COMARCA; PROC JUST ATUACAO TRIBUNAIS SUPERIORES-GAB004 1.198,00 0,00 519,00 0,00 0,00 0,00 0,00 0,00 0,00 28/02/2022
267 520800 AMANDA DE SOUZA MACHADO ANALISTA DO MP BAEPENDI - COMARCA; BAEPENDI-PJ-UNPJ 1.198,00 0,00 519,00 0,00 6.323,72 0,00 0,00 0,00 1.538,64 28/02/2022
268 663900 AMANDA DENISE GONCALVES DA SILVA ASSESSOR BELO HORIZONTE - COMARCA; DIRET DE FORMACAO, APERFEIC. E POS-GRADUACAO 1.198,00 0,00 519,00 0,00 0,00 0,00 0,00 0,00 0,00 28/02/2022
269 1230600 AMANDA EMERICK DA SILVA ESTAGIARIO MANHUMIRIM; MANHUMIRIM-PJ-02PJ 0,00 0,00 0,00 117,00 0,00 0,00 0,00 0,00 0,00 28/02/2022
270 1183300 AMANDA GABRIELA GONCALVES DE MIRANDA ESTAGIARIO BETIM; BETIM-PJ-04PJ 0,00 0,00 0,00 171,00 0,00 0,00 0,00 0,00 0,00 28/02/2022
271 1153000 AMANDA GIL DE SOUZA ESTAGIARIO MONTES CLAROS; MONTES CLAROS-PJ-09PJ 0,00 0,00 0,00 162,00 0,00 0,00 0,00 0,00 0,00 28/02/2022
272 1378200 AMANDA KAROLINE DIAS SANTOS ESTAGIARIO CONTAGEM; CONTAGEM-PJ-21PJ 0,00 0,00 0,00 144,00 0,00 0,00 0,00 0,00 0,00 28/02/2022
273 677000 AMANDA LETICIA MESSIAS PEGO ASSESSOR PROMOTOR JUSTICA CORAÇÃO DE JESUS - COMARCA; CORACAO DE JESUS-PJ-UNPJ 1.198,00 0,00 519,00 0,00 0,00 0,00 0,00 0,00 0,00 28/02/2022
274 666000 AMANDA MERLINI DUTRA OSIPE PROMOTOR SUBSTITUTO CATAGUASES - COMARCA; CATAGUASES-PJ-01PJ 1.198,00 0,00 1.546,48 0,00 10.134,80 0,00 0,00 0,00 464,51 28/02/2022
275 1157400 AMANDA MIQUELINO RIBEIRO ESTAGIARIO UBERABA; UBERABA-PJ-13PJ 0,00 0,00 0,00 45,00 0,00 0,00 0,00 0,00 0,00 28/02/2022
276 1367200 AMANDA MOREIRA MOTA DA SILVA ESTAGIARIO UBERLANDIA; UBERLANDIA-PJ-24PJ 0,00 0,00 0,00 189,00 0,00 0,00 0,00 0,00 0,00 28/02/2022
277 1310600 AMANDA NUNES SOUSA ESTAGIARIO LAVRAS; LAVRAS-PJ-04PJ 0,00 0,00 0,00 189,00 0,00 0,00 0,00 0,00 0,00 28/02/2022
278 1237600 AMANDA SILVESTRE PATRUS ANANIAS ESTAGIARIO BELO HORIZONTE; BH-19PJ SAUDE-GAB 150PJ 0,00 0,00 0,00 54,00 0,00 0,00 0,00 0,00 0,00 28/02/2022
279 1289800 AMANDA STARLING DE AZEVEDO BAHIA ESTAGIARIO BELO HORIZONTE; BH-02PJ FAMILIA-GAB 033PJ
280 543100 AMANDA VIEIRA FREITAS BRESSANE ANALISTA DO MP VARGINHA - COMARCA; COORD REG DEF ORDEM ECON TRIB VARGINHA 1.198,00 0,00 519,00 0,00 0,00 0,00 0,00 0,00 0,00 28/02/2022
281 1385400 AMANDA VITORIA SANTOS DIAS ESTAGIARIO JANAUBA; JANAUBA-PJ-03PJ 0,00 0,00 0,00 189,00 0,00 0,00 0,00 0,00 0,00 28/02/2022
282 656701 AMARILDO ODILON REZENDE DE AGUIAR INVESTIGADOR DE POLICIA 2 BELO HORIZONTE - COMARCA; CAO-ORDEM ECONOMICA E TRIBUTARIA 1.198,00 0,00 0,00 0,00 0,00 0,00 0,00 0,00 0,00 28/02/2022
283 434400 AMARILIS ASSIS SIMAO CURCIO ANALISTA DO MP BELO HORIZONTE - COMARCA; DIRETORIA GESTAO COMPRAS LICITACOES 1.198,00 0,00 519,00 0,00 0,00 0,00 0,00 0,00 0,00 28/02/2022
284 652000 AMAURI SILVA ALVES ASSESSOR/OFICIAL BELO HORIZONTE - COMARCA; BH-23PJ INFRACIONAL-SEC EXP 1.198,00 0,00 519,00 0,00 3.235,51 0,00 0,00 0,00 296,59 28/02/2022
285 58000 AMELIA GUARIZE DE CASTRO OFICIAL DO MP JUIZ DE FORA - COMARCA; JUIZ DE FORA-PJ-SECRETARIA 1.198,00 0,00 519,00 0,00 5.932,63 0,00 0,00 0,00 543,82 28/02/2022
286 324301 AMERICA SUELI FERREIRA DA SILVA ANALISTA DO MP UBERLÂNDIA - COMARCA; UBERLANDIA-PJ-20PJ 1.198,00 0,00 519,00 0,00 0,00 0,00 0,00 0,00 0,00 28/02/2022
287 273300 AMUJACY DE BRITO ASSIZ OFICIAL DO MP BELO HORIZONTE - COMARCA; BH-12PJ JUIZO CRIMINAL-SECRETARIA 1.198,00 0,00 519,00 0,00 0,00 0,00 0,00 0,00 0,00 28/02/2022
288 482200 ANA ALICE LOPES ACHTSCHIN ANALISTA DO MP BELO HORIZONTE - COMARCA; PROC JUST ATUACAO TRIBUNAIS SUPERIORES-GAB002 1.198,00 0,00 519,00 0,00 0,00 0,00 0,00 0,00 0,00 28/02/2022
289 490400 ANA AMELIA PAULINO GARCIA OFICIAL DO MP CONTAGEM - COMARCA; CONTAGEM-PJ-SECRETARIA 1.198,00 885,30 519,00 0,00 0,00 0,00 0,00 0,00 0,00 28/02/2022
290 690400 ANA ANGELICA MOREIRA DA CUNHA ASSESSOR PROMOTOR JUSTICA TIMÓTEO - COMARCA; TIMOTEO-PJ-02PJ 1.198,00 0,00 519,00 0,00 1.437,54 0,00 0,00 0,00 131,77 28/02/2022
291 671300 ANA BARBARA CANEDO OLIVEIRA PROMOTOR 2A ENTRANCIA ALMENARA - COMARCA; ALMENARA-PJ-02PJ 1.198,00 0,00 773,24 0,00 16.002,33 0,00 0,00 0,00 488,96 28/02/2022
292 1128400 ANA BEATRIZ DE MELO FERNANDES ESTAGIARIO MESQUITA; MESQUITA-PJ-UNPJ 0,00 0,00 0,00 135,00 0,00 0,00 0,00 0,00 0,00 28/02/2022
293 1280900 ANA BEATRIZ DIAS DE AZEVEDO ESTAGIARIO POUSO ALEGRE; POUSO ALEGRE-PJ-06PJ 0,00 0,00 0,00 153,00 0,00 0,00 0,00 0,00 0,00 28/02/2022
294 714900 ANA BEATRIZ LOBATO ALVES DE CARVALHO ASSESSOR PROCURADOR JUSTICA BELO HORIZONTE - COMARCA; GABINETE DE PROCURADOR DE JUSTIÇA - SALA 303 1.198,00 0,00 519,00 0,00 0,00 0,00 0,00 0,00 0,00 28/02/2022
295 1356000 ANA CARLA GOMES ALVES ESTAGIARIO PASSOS; PASSOS-PJ-04PJ 0,00 0,00 0,00 162,00 0,00 0,00 0,00 0,00 0,00 28/02/2022
296 1211700 ANA CARLA LIMA REIS ESTAGIARIO TEIXEIRAS; TEIXEIRAS-PJ-UNPJ 0,00 0,00 0,00 180,00 0,00 0,00 0,00 0,00 0,00 28/02/2022
297 715000 ANA CARLA RODRIGUES DE SOUZA ASSESSOR PROMOTOR JUSTICA TRÊS CORACOES - COMARCA; TRES CORACOES-PJ-01PJ 1.198,00 0,00 519,00 0,00 0,00 0,00 0,00 0,00 0,00 28/02/2022
298 1263400 ANA CARLA SOUZA FERREIRA ESTAGIARIO JUIZ DE FORA; JUIZ DE FORA-PJ-12PJ 0,00 0,00 0,00 54,00 362,00 0,00 0,00 0,00 0,00 28/02/2022
299 1147800 ANA CAROLINA AFONSO OMENA ESTAGIARIO ITUIUTABA; ITUIUTABA-PJ-02PJ 0,00 0,00 0,00 144,00 0,00 0,00 0,00 0,00 0,00 28/02/2022
300 279100 ANA CAROLINA ARAUJO PEREIRA ANALISTA DO MP BELO HORIZONTE - COMARCA; DIRETORIA DE PROJETOS DE EDIFICACOES 1.198,00 0,00 519,00 0,00 0,00 0,00 0,00 0,00 0,00 28/02/2022
301 653300 ANA CAROLINA CYRNE DINIZ ASSESSOR BELO HORIZONTE - COMARCA; CENTRAL DE APOIO TECNICO-SETOR CONTABIL 1.198,00 0,00 519,00 0,00 0,00 0,00 0,00 0,00 0,00 28/02/2022
302 1165800 ANA CAROLINA DA COSTA ESTAGIARIO SAO JOAO EVANGELISTA; SAO JOAO EVANGELISTA-PJ-UNPJ 0,00 0,00 0,00 135,00 0,00 0,00 0,00 0,00 0,00 28/02/2022
303 359400 ANA CAROLINA DE ABREU FARIA ASSESSOR BELO HORIZONTE - COMARCA; SUPERINTENDÊNCIA DE ENGENHARIA E ARQUITETURA 1.198,00 885,30 519,00 0,00 5.822,61 0,00 0,00 0,00 533,74 28/02/2022
304 408500 ANA CAROLINA DE CASTRO CARVALHO ANALISTA DO MP BARBACENA - COMARCA; BARBACENA - SECRETARIA DAS PJS CRIMINAIS 1.198,00 0,00 519,00 0,00 5.500,51 0,00 0,00 0,00 504,21 28/02/2022
305 1291300 ANA CAROLINA DE MELO MARTINS ESTAGIARIO CABO VERDE; CABO VERDE-PJ-UNPJ 0,00 0,00 0,00 180,00 0,00 0,00 0,00 0,00 0,00 28/02/2022
306 688000 ANA CAROLINA DE OLIVEIRA PINTO ASSESSOR PROCURADOR JUSTICA BELO HORIZONTE - COMARCA; GABINETE DE PROCURADOR DE JUSTIÇA - SALA 1014 1.198,00 0,00 519,00 0,00 0,00 0,00 0,00 0,00 0,00 28/02/2022
307 1252200 ANA CAROLINA DE SOUZA SOBRAL ESTAGIARIO BELO HORIZONTE; BH-08PJ JUIZADO ESPECIAL-GAB 051PJ 0,00 0,00 0,00 9,00 0,00 0,00 0,00 0,00 0,00 28/02/2022
308 598900 ANA CAROLINA DUARTE DA SILVA INVESTIGADOR DE POLICIA 2 BELO HORIZONTE - COMARCA; PROC JUST ESP ACOES COMP ORIG CRIMINAL-SEC 1.198,00 0,00 0,00 0,00 0,00 0,00 0,00 0,00 0,00 28/02/2022
309 1379400 ANA CAROLINA ETCHEBERE LIMA ESTAGIARIO SACRAMENTO; SACRAMENTO-PJ-01PJ 0,00 0,00 0,00 126,00 0,00 0,00 0,00 0,00 0,00 28/02/2022
310 420200 ANA CAROLINA FERNANDES SILVA ANALISTA DO MP BELO HORIZONTE - COMARCA; GABINETE DE PROCURADOR DE JUSTIÇA - SALA 704 1.198,00 0,00 519,00 0,00 0,00 0,00 0,00 0,00 0,00 28/02/2022
311 522100 ANA CAROLINA FERNANDINO VIDAL PEREIRA SANTOS OFICIAL DO MP BELO HORIZONTE - COMARCA; SECRETARIA DO PROCON-MG 1.198,00 0,00 519,00 0,00 0,00 0,00 0,00 0,00 766,34 28/02/2022
312 1315600 ANA CAROLINA FIGUEIREDO SILVA ESTAGIARIO BELO HORIZONTE; PROC JUST ATUACAO TRIBUNAIS SUPERIORES-GAB004 0,00 0,00 0,00 9,00 0,00 0,00 0,00 0,00 0,00 28/02/2022
313 716000 ANA CAROLINA FIGUEIREDO SILVA ASSESSOR PROCURADOR JUSTICA BELO HORIZONTE - COMARCA; PROC JUST ATUACAO TRIBUNAIS SUPERIORES-GAB001 1.579,18 0,00 1.038,00 0,00 0,00 0,00 0,00 0,00 1.677,13 28/02/2022
314 244700 ANA CAROLINA GARCIA COSTA PROMOT.ENTRANC.ESPECIAL BELO HORIZONTE - COMARCA; BH-23PJ INFRACIONAL-GAB 147PJ 1.198,00 0,00 3.368,91 0,00 13.475,64 0,00 0,00 0,00 514,69 28/02/2022
315 1313100 ANA CAROLINA GOMES SANTOS ESTAGIARIO MONTES CLAROS; COORD REG PJ DEF EDUC DIR CRIANCA ADOL NORTE 0,00 0,00 0,00 117,00 0,00 0,00 0,00 0,00 0,00 28/02/2022
316 502400 ANA CAROLINA GONCALVES FERNANDES ANALISTA DO MP IPATINGA - COMARCA; IPATINGA-PJ-01PJ 1.198,00 1.770,60 519,00 0,00 5.800,10 0,00 0,00 0,00 531,68 28/02/2022
317 529900 ANA CAROLINA GONCALVES PECANHA CHEQUER ANALISTA DO MP MANHUAÇU - COMARCA; MANHUACU-PJ-04PJ 1.198,00 1.770,60 519,00 0,00 0,00 0,00 0,00 0,00 0,00 28/02/2022
318 1207700 ANA CAROLINA LETAYF CAMPOS ESTAGIARIO JUIZ DE FORA; JUIZ DE FORA-PJ-25PJ 0,00 0,00 0,00 108,00 0,00 0,00 0,00 0,00 0,00 28/02/2022
319 1391500 ANA CAROLINA MARQUES RAMOS ESTAGIARIO BRUMADINHO; BRUMADINHO-PJ-02PJ 0,00 0,00 0,00 135,00 0,00 0,00 0,00 0,00 0,00 28/02/2022
320 1202400 ANA CAROLINA MARTINS DE ANDRADE ESTAGIARIO UBA; UBA-PJ-02PJ 0,00 0,00 0,00 54,00 0,00 0,00 0,00 0,00 0,00 28/02/2022
321 1137800 ANA CAROLINA MIRANDA DE MEIRELES MOUTINHO ESTAGIARIO SETE LAGOAS; SETE LAGOAS-PJ-05PJ 0,00 0,00 0,00 180,00 0,00 0,00 0,00 0,00 0,00 28/02/2022
322 711300 ANA CAROLINA MOREIRA GOMES ASSESSOR PROMOTOR JUSTICA BELO HORIZONTE - COMARCA; COORD ESTADUAL DAS PJS DE HAB. E URBANISMO 1.198,00 0,00 519,00 0,00 0,00 0,00 0,00 0,00 0,00 28/02/2022
323 431900 ANA CAROLINA MOTTA GUATIMOSIM ANALISTA DO MP BELO HORIZONTE - COMARCA; ASSESSORIA JURIDICO-ADMINISTRATIVA 1.198,00 885,30 519,00 0,00 5.620,98 0,00 0,00 0,00 515,26 28/02/2022
324 1249200 ANA CAROLINA TEIXEIRA PERUSSIO PAIVA ESTAGIARIO JUIZ DE FORA; COORD REG PJ DEF EDU DIR CRIAN ADOL ZONA MATA
325 490600 ANA CAROLINA XAVIER GODOY ANALISTA DO MP BELO HORIZONTE - COMARCA; BH-18PJ DIREITOS HUMANOS-SECRETARIA 1.198,00 1.770,60 519,00 0,00 5.800,10 0,00 0,00 0,00 531,68 28/02/2022
326 313700 ANA CAROLINA ZAMBOM PINTO COELHO PROMOT.ENTRANC.ESPECIAL BELO HORIZONTE - COMARCA; COORD ESTADUAL DE DEFESA DA EDUCACAO 1.198,00 0,00 1.405,88 0,00 10.106,73 0,00 0,00 0,00 0,00 28/02/2022
327 1220900 ANA CAROLINE CARVALHO MARTINS ESTAGIARIO IPATINGA; IPATINGA-PJ-01PJ 0,00 0,00 0,00 162,00 0,00 0,00 0,00 0,00 0,00 28/02/2022
328 1142100 ANA CAROLINE FERRAZ CHAIB ESTAGIARIO CONCEICAO DO RIO VERDE; CONCEICAO DO RIO VERDE-PJ-UNPJ 0,00 0,00 0,00 153,00 0,00 0,00 0,00 0,00 0,00 28/02/2022
329 600300 ANA CAROLINE PEREIRA DINIZ ANALISTA DO MP BELO HORIZONTE - COMARCA; PROC JUST ESP ACOES COMP ORIG CRIMINAL-SEC 1.198,00 885,30 519,00 0,00 4.571,23 0,00 0,00 0,00 419,03 28/02/2022
330 615800 ANA CAROLINE PEREIRA OLIVEIRA OFICIAL DO MP ALFENAS - COMARCA; ALFENAS-PJ-06PJ 1.198,00 0,00 519,00 0,00 782,86 0,00 0,00 0,00 71,76 28/02/2022
331 1357300 ANA CAROLINE RIBEIRO PRATES ESTAGIARIO 0,00 0,00 0,00 81,00 0,00 0,00 0,00 0,00 0,00 28/02/2022
332 1209600 ANA CAROLINE RODRIGUES DOS SANTOS ESTAGIARIO 0,00 0,00 0,00 63,00 0,00 0,00 0,00 0,00 0,00 28/02/2022
333 1389400 ANA CAROLINE SOARES GOMES ESTAGIARIO SAO DOMINGOS DO PRATA; SAO DOMINGOS DO PRATA-PJ-UNPJ 0,00 0,00 0,00 45,00 0,00 0,00 0,00 0,00 0,00 28/02/2022
334 229202 ANA CECILIA JUNQUEIRA GOUVEA PROMOT.ENTRANC.ESPECIAL RIBEIRÃO DAS NEVES - COMARCA; RIBEIRAO DAS NEVES-PJ-08PJ 1.198,00 0,00 2.390,00 0,00 11.229,70 0,00 0,00 0,00 514,69 28/02/2022
335 324800 ANA CECILIA MENDES DA SILVA OFICIAL DO MP OURO FINO - COMARCA; OURO FINO-PJ-01PJ 1.198,00 0,00 519,00 0,00 0,00 0,00 0,00 0,00 0,00 28/02/2022
336 1162800 ANA CLARA BARBI LIMA ESTAGIARIO BELO HORIZONTE; GABINETE DE PROCURADOR DE JUSTIÇA - SALA 1015 0,00 0,00 0,00 27,00 771,20 0,00 0,00 0,00 0,00 28/02/2022
337 1266100 ANA CLARA CORDEIRO DUARTE NUNES ESTAGIARIO NOVA LIMA; NOVA LIMA-PJ-SECRETARIA 0,00 0,00 0,00 81,00 0,00 0,00 0,00 0,00 0,00 28/02/2022
338 1154400 ANA CLARA DE SOUZA II ESTAGIARIO ARAXA; ARAXA-PJ-03PJ 0,00 0,00 0,00 126,00 0,00 0,00 0,00 0,00 0,00 28/02/2022
339 1327400 ANA CLARA DOS SANTOS PEREIRA ESTAGIARIO SETE LAGOAS; SETE LAGOAS-PJ-11PJ 0,00 0,00 0,00 153,00 0,00 0,00 0,00 0,00 0,00 28/02/2022
340 1384200 ANA CLARA GUIMARAES ROSA ESTAGIARIO CONTAGEM; CONTAGEM-PJ-06PJ 0,00 0,00 0,00 72,00 0,00 0,00 0,00 0,00 0,00 28/02/2022
341 704100 ANA CLARA MARTINS ALBUQUERQUE ASSESSOR BELO HORIZONTE - COMARCA; CAO-CRIANCAS E ADOLESCENTES-ASS TECNICA 1.198,00 0,00 519,00 0,00 0,00 0,00 0,00 0,00 0,00 28/02/2022
342 1165900 ANA CLARA PORTO REIS ESTAGIARIO PATROCINIO; PATROCINIO-PJ-01PJ 0,00 0,00 0,00 117,00 0,00 0,00 0,00 0,00 0,00 28/02/2022
343 1322000 ANA CLARA RESGALA BARTHOLDY ESTAGIARIO BELO HORIZONTE; PROC. JUSTICA DIR. DIFUSOS E COLETIVOS 0,00 0,00 0,00 36,00 0,00 0,00 0,00 0,00 0,00 28/02/2022
344 1221000 ANA CLARA ROMANCINI RENNO DE ASSIS ESTAGIARIO ITAJUBA; ITAJUBA-PJ-04PJ 0,00 0,00 0,00 9,00 0,00 0,00 0,00 0,00 0,00 28/02/2022
345 698700 ANA CLARA SANTOS ALMEIDA ASSESSOR PROMOTOR JUSTICA SABINÓPOLIS - COMARCA; SABINOPOLIS-PJ-UNPJ 1.198,00 0,00 519,00 0,00 0,00 0,00 0,00 0,00 0,00 28/02/2022
346 1259600 ANA CLARA SOARES PEREIRA BARBOSA ESTAGIARIO PATOS DE MINAS; PATOS DE MINAS-PJ-07PJ 0,00 0,00 0,00 189,00 0,00 0,00 0,00 0,00 0,00 28/02/2022
347 441300 ANA CLAUDIA ALKIMIM MIRANDA BOMTEMPO ANALISTA DO MP MONTES CLAROS - COMARCA; MONTES CLAROS-PJ-11PJ 1.198,00 0,00 519,00 0,00 0,00 0,00 0,00 0,00 0,00 28/02/2022
348 1156600 ANA CLAUDIA ALVIM SANTOS BERTOLI ESTAGIARIO JANAUBA; JANAUBA-PJ-01PJ 0,00 0,00 0,00 153,00 0,00 0,00 0,00 0,00 0,00 28/02/2022
349 642500 ANA CLAUDIA DA COSTA NAVES OFICIAL DO MP MONTE CARMELO - COMARCA; MONTE CARMELO-PJ-02PJ 1.198,00 885,30 519,00 0,00 0,00 0,00 0,00 0,00 0,00 28/02/2022
350 1149600 ANA CLAUDIA DE ALMEIDA FERREIRA ESTAGIARIO POCO FUNDO; POCO FUNDO-PJ-UNPJ 0,00 0,00 0,00 189,00 0,00 0,00 0,00 0,00 0,00 28/02/2022
351 716800 ANA CLAUDIA DOURADO MENDES ASSESSOR PROMOTOR JUSTICA ARAÇUAÍ - COMARCA; ARACUAI-PJ-02PJ 1.198,00 0,00 519,00 0,00 0,00 0,00 0,00 0,00 0,00 28/02/2022
352 1392700 ANA CLAUDIA GOIANAZES MOREIRA ESTAGIARIO BELO HORIZONTE; GABINETE DE PROCURADOR DE JUSTIÇA - SALA 705
353 341500 ANA CLAUDIA LOPES PROMOT.ENTRANC.ESPECIAL BELO HORIZONTE - COMARCA; BH-07PJ 01 TRIBUNAL DO JURI-GAB 077PJ 1.198,00 0,00 3.368,91 0,00 16.844,55 0,00 0,00 0,00 514,69 28/02/2022
354 1400700 ANA CLAUDIA NASCIMENTO SILVA ESTAGIARIO UBERLANDIA; COORD REG DEF ORDEM ECON TRIB UBERLANDIA 0,00 0,00 0,00 45,00 0,00 0,00 0,00 0,00 0,00 28/02/2022
355 604900 ANA CLAUDIA OLIVEIRA DE MIRANDA OFICIAL DO MP PONTE NOVA - COMARCA; PONTE NOVA-PJ-04PJ 1.198,00 0,00 519,00 0,00 0,00 0,00 0,00 0,00 0,00 28/02/2022
356 1381200 ANA CLAUDIA SARAIVA MARTINS FERREIRA ESTAGIARIO BELO HORIZONTE; BH-18PJ DIREITOS HUMANOS-GAB 128PJ 0,00 0,00 0,00 18,00 0,00 0,00 0,00 0,00 0,00 28/02/2022
357 1257400 ANA CLAUDIA SMOLNY PINTO ESTAGIARIO LAMBARI; LAMBARI-PJ-UNPJ 0,00 0,00 0,00 99,00 0,00 0,00 0,00 0,00 0,00 28/02/2022
358 379300 ANA CRISTINA ALVES FLAVIO ANALISTA DO MP SÃO GOTARDO - COMARCA; SAO GOTARDO-PJ-01PJ 1.198,00 885,30 519,00 0,00 5.679,61 0,00 0,00 0,00 520,63 28/02/2022
359 461200 ANA CRISTINA ALVES PASCHOAL ANALISTA DO MP BELO HORIZONTE - COMARCA; BH-07PJ 03 TRIBUNAL DO JURI-GAB 064PJ 1.198,00 0,00 519,00 0,00 4.833,42 0,00 0,00 0,00 443,06 28/02/2022
360 514100 ANA CRISTINA ARAUJO ASSUNCAO ANALISTA DO MP BELO HORIZONTE - COMARCA; ASSESS JUR DO CONS SUPERIOR DO MINISTERIO PUB 1.198,00 885,30 519,00 0,00 5.800,10 0,00 0,00 0,00 531,68 28/02/2022
361 113401 ANA CRISTINA BRAGA ALBUQUERQUE ASSESSOR BELO HORIZONTE - COMARCA; DIRETORIA-GERAL 1.198,00 0,00 0,00 0,00 0,00 0,00 0,00 0,00 0,00 28/02/2022
362 233800 ANA CRISTINA BRAGA SOARES OFICIAL DO MP CONTAGEM - COMARCA; CONTAGEM-PJ-SECRETARIA 1.198,00 0,00 519,00 0,00 0,00 0,00 0,00 0,00 0,00 28/02/2022
363 186400 ANA CRISTINA DE AZEVEDO LOPES OFICIAL DO MP UBÁ - COMARCA; UBA-PJ-01PJ 1.198,00 0,00 519,00 0,00 5.986,63 0,00 0,00 0,00 548,77 28/02/2022
364 693000 ANA CRISTINA DE MELO SILVEIRA ASSESSOR PROCURADOR JUSTICA BELO HORIZONTE - COMARCA; COORD DE CONTROLE CONSTITUCIONALIDADE 1.198,00 885,30 519,00 0,00 0,00 0,00 0,00 0,00 0,00 28/02/2022
365 465100 ANA CRISTINA DE OLIVEIRA GUIMARAES ANALISTA DO MP ITAJUBA - COMARCA; ITAJUBA-PJ-05PJ 1.198,00 885,30 519,00 0,00 5.800,10 0,00 0,00 0,00 531,68 28/02/2022
366 500600 ANA CRISTINA LATADO SUDARIO ANALISTA DO MP UBERLÂNDIA - COMARCA; UBERLANDIA-PJ-09PJ 1.198,00 0,00 519,00 0,00 0,00 0,00 0,00 0,00 0,00 28/02/2022
367 331400 ANA CRISTINA RIBEIRO ALVES OFICIAL DO MP BAMBUÍ - COMARCA; BAMBUI-PJ-UNPJ 1.198,00 0,00 519,00 0,00 5.759,82 0,00 0,00 0,00 527,98 28/02/2022
368 1212000 ANA ELISA LEAL ROCHA ESTAGIARIO BELO HORIZONTE; BH-13ª PJ JUÍXO DE TÓXICOS 0,00 0,00 0,00 90,00 0,00 0,00 0,00 0,00 0,00 28/02/2022
369 1299700 ANA ELISA PRATA DA CRUZ ESTAGIARIO CONTAGEM; CONTAGEM-PJ-05PJ 0,00 0,00 0,00 63,00 0,00 0,00 0,00 0,00 0,00 28/02/2022
370 249300 ANA ELOINA MARTINS OFICIAL DO MP BETIM - COMARCA; BETIM-PJ-02PJ 1.198,00 0,00 519,00 0,00 5.829,16 0,00 0,00 0,00 534,34 28/02/2022
371 611500 ANA FLAVIA AFONSO DRUMOND AMORIM PROMOTOR 2A ENTRANCIA PIRAPORA - COMARCA; PIRAPORA-PJ-02PJ 1.198,00 0,00 0,00 0,00 5.334,11 0,00 0,00 0,00 488,96 28/02/2022
372 257400 ANA FLAVIA CAMBRAIA ANALISTA DO MP BELO HORIZONTE - COMARCA; BH-19PJ SAUDE-SECRETARIA 150PJ 1.198,00 0,00 519,00 0,00 5.871,88 0,00 0,00 0,00 538,26 28/02/2022
373 1230700 ANA FLAVIA CARDOSO VIZOTTO ESTAGIARIO BELO HORIZONTE; BH-12PJ JUIZO CRIMINAL-GAB 104PJ 0,00 0,00 0,00 144,00 0,00 0,00 0,00 0,00 0,00 28/02/2022
374 248201 ANA FLAVIA DE MORAIS SOUZA ANALISTA DO MP DIVINÓPOLIS - COMARCA; DIVINOPOLIS-PJ-01PJ 1.198,00 885,30 519,00 0,00 5.764,49 0,00 0,00 0,00 528,41 28/02/2022
375 1319300 ANA FLAVIA DE SOUZA PINHEIRO ESTAGIARIO VISCONDE DO RIO BRANCO; VISCONDE DO RIO BRANCO-PJ-03PJ 0,00 0,00 0,00 324,00 192,80 0,00 0,00 0,00 0,00 28/02/2022
376 621100 ANA FLAVIA DINIZ TEODORO OFICIAL DO MP SANTA LUZIA - COMARCA; SANTA LUZIA-PJ-06PJ 1.198,00 0,00 519,00 0,00 0,00 0,00 0,00 0,00 0,00 28/02/2022
377 1137900 ANA FLAVIA FIGUEIREDO SALOMAO ESTAGIARIO TEOFILO OTONI; TEOFILO OTONI-PJ-08PJ 0,00 0,00 0,00 162,00 0,00 0,00 0,00 0,00 0,00 28/02/2022
378 238600 ANA FLAVIA FRANCO OFICIAL DO MP BELO HORIZONTE - COMARCA; DIRETORIA DE PESSOAL ADMINISTRATIVO - DPAD 1.198,00 0,00 519,00 0,00 5.958,88 0,00 0,00 0,00 546,23 28/02/2022
379 690000 ANA FLAVIA LURIAN DE PAIVA ASSESSOR PROCURADOR JUSTICA BELO HORIZONTE - COMARCA; GABINETE DE PROCURADOR DE JUSTIÇA - SALA 609 1.198,00 0,00 519,00 0,00 0,00 0,00 0,00 0,00 0,00 28/02/2022
380 1275200 ANA FLAVIA MARTINS CAMPOS ESTAGIARIO ALMENARA; ALMENARA-PJ-01PJ 0,00 0,00 0,00 171,00 0,00 0,00 0,00 0,00 0,00 28/02/2022
381 402900 ANA FLAVIA PORTES DE CARVALHO ANALISTA DO MP BELO HORIZONTE - COMARCA; DIRET DE PLANOS PROJETOS E PROGRAMAS INST 1.198,00 0,00 519,00 0,00 5.679,61 0,00 0,00 0,00 520,63 28/02/2022
382 1326900 ANA FLAVIA RIBEIRO PEREIRA ESTAGIARIO CORINTO; CORINTO-PJ-UNPJ 0,00 0,00 0,00 189,00 0,00 0,00 0,00 0,00 0,00 28/02/2022
383 1336700 ANA FLAVIA SANTOS PARAISO ESTAGIARIO BRASILIA DE MINAS; BRASILIA DE MINAS-PJ-01PJ 0,00 0,00 0,00 189,00 0,00 0,00 0,00 0,00 0,00 28/02/2022
384 1297100 ANA GABRIELA BOLDRIN TRINCA ESTAGIARIO POCOS DE CALDAS; POCOS DE CALDAS-PJ-07PJ 0,00 0,00 0,00 144,00 0,00 0,00 0,00 0,00 0,00 28/02/2022
385 526300 ANA GABRIELA BRITO MELO ROCHA PROMOTOR 2A ENTRANCIA TRÊS PONTAS - COMARCA; TRES PONTAS-PJ-03PJ 1.198,00 0,00 1.874,50 0,00 0,00 0,00 0,00 0,00 0,00 28/02/2022
386 1254700 ANA HELENA SANTOS DE OLIVEIRA ESTAGIARIO ITABIRA; ITABIRA-PJ-05PJ 0,00 0,00 0,00 189,00 0,00 0,00 0,00 0,00 0,00 28/02/2022
387 1195300 ANA HELOISA MARQUES OLIVEIRA CARNEIRO ESTAGIARIO BELO HORIZONTE; BH-18PJ DIREITOS HUMANOS-GAB 126PJ
388 1172400 ANA JULIA DE VILHENA ESTAGIARIO IBIRACI; IBIRACI-PJ-UNPJ 0,00 0,00 0,00 117,00 0,00 0,00 0,00 0,00 0,00 28/02/2022
389 1135300 ANA JULIA DIXINI CARVALHO ESTAGIARIO TRES PONTAS; TRES PONTAS-PJ-03PJ 0,00 0,00 0,00 171,00 0,00 0,00 0,00 0,00 0,00 28/02/2022
390 1262100 ANA JULIA SILVA PEREIRA ESTAGIARIO LAVRAS; LAVRAS-PJ-06PJ 0,00 0,00 0,00 189,00 0,00 0,00 0,00 0,00 0,00 28/02/2022
391 382700 ANA KARENINA SALDANHA GONTIJO ANALISTA DO MP BELO HORIZONTE - COMARCA; ASSESS TECNICO-JUR JUNTO AS PROC. DE JUST 1.198,00 834,01 519,00 0,00 0,00 0,00 0,00 0,00 0,00 28/02/2022
392 620500 ANA KARINE DE ANDRADE OLIVEIRA ANALISTA DO MP RIBEIRÃO DAS NEVES - COMARCA; RIBEIRAO NEVES-SEC PJ EXECUCAO PENAL 1.198,00 0,00 519,00 0,00 3.340,86 0,00 0,00 0,00 306,25 28/02/2022
393 1259400 ANA KAROLINE DOS SANTOS ESTAGIARIO
394 1297700 ANA LARA PEREIRA DAMACENO ESTAGIARIO 0,00 0,00 0,00 18,00 241,00 0,00 0,00 0,00 0,00 28/02/2022
395 1369000 ANA LAURA DE FARIA LIMA ESTAGIARIO PARA DE MINAS; PARA DE MINAS-PJ-03PJ 0,00 0,00 0,00 189,00 0,00 0,00 0,00 0,00 0,00 28/02/2022
396 1374900 ANA LAURA MENDONCA SILVA DE ARAUJO ESTAGIARIO CONTAGEM; CONTAGEM-PJ-20PJ 0,00 0,00 0,00 180,00 0,00 0,00 0,00 0,00 0,00 28/02/2022
397 1301300 ANA LAURA NEVES CERQUEIRA ESTAGIARIO BELO HORIZONTE; BH-07PJ 01 TRIBUNAL DO JURI-GAB 065PJ
398 1174700 ANA LAURA PEREIRA DIAS ESTAGIARIO DIAMANTINA; DIAMANTINA-PJ-01PJ 0,00 0,00 0,00 171,00 0,00 0,00 0,00 0,00 0,00 28/02/2022
399 57400 ANA LEIA SALOMAO E RIBEIRO PROMOT.ENTRANC.ESPECIAL JUIZ DE FORA - COMARCA; JUIZ DE FORA-PJ-02PJ 1.198,00 0,00 3.368,91 0,00 11.229,70 0,00 0,00 0,00 514,69 28/02/2022
400 1392800 ANA LETICIA CARVALHO BATISTA ESTAGIARIO UBERABA; UBERABA-PJ-05PJ 0,00 0,00 0,00 72,00 0,00 0,00 0,00 0,00 0,00 28/02/2022
401 1275900 ANA LETICIA DE ANDRADE ESTAGIARIO IBIA; IBIA-PJ-UNPJ 0,00 0,00 0,00 189,00 0,00 0,00 0,00 0,00 0,00 28/02/2022
402 224300 ANA LETICIA MARTINS DE SOUZA PROMOT.ENTRANC.ESPECIAL CONTAGEM - COMARCA; CONTAGEM-PJ-13PJ 1.198,00 0,00 0,00 0,00 0,00 0,00 0,00 0,00 0,00 28/02/2022
403 1391300 ANA LIVIA DO NASCIMENTO TORQUATO ESTAGIARIO GUAXUPE; GUAXUPE-PJ-01PJ 0,00 0,00 0,00 135,00 0,00 0,00 0,00 0,00 0,00 28/02/2022
404 462200 ANA LUCIA ANDRADE TOMICH OTTONI ANALISTA DO MP TEÓFILO OTONI - COMARCA; TEOFILO OTONI-PJ-07PJ 1.198,00 1.167,41 519,00 0,00 0,00 0,00 0,00 0,00 0,00 28/02/2022
405 504100 ANA LUCIA CATAO DE CARVALHO OFICIAL DO MP BELO HORIZONTE - COMARCA; DIR RELACOES INSTITUCIONAIS 1.198,00 0,00 519,00 0,00 0,00 0,00 0,00 0,00 0,00 28/02/2022
406 274700 ANA LUCIA DE ALENCAR BRAGATO OFICIAL DO MP UBERABA - COMARCA; UBERABA-PJ-07PJ 1.198,00 0,00 519,00 0,00 5.759,82 0,00 0,00 0,00 527,98 28/02/2022
407 509400 ANA LUCIA DORNELAS MALLOSTO ANALISTA DO MP JUIZ DE FORA - COMARCA; JUIZ DE FORA-PJ-25PJ 1.198,00 0,00 519,00 0,00 5.800,10 0,00 0,00 0,00 531,68 28/02/2022
408 114600 ANA LUCIA JUNQUEIRA MUZZI CAVALIERI PROMOT.ENTRANC.ESPECIAL JUIZ DE FORA - COMARCA; JUIZ DE FORA-PJ-12PJ 1.198,00 0,00 3.163,24 0,00 11.229,70 0,00 0,00 0,00 514,69 28/02/2022
409 302600 ANA LUCIA LOPES SANTOS OFICIAL DO MP BELO HORIZONTE - COMARCA; DIVISÃO DE FISCALIZAÇÃO DAS RELAÇÕES DE CONSU 1.198,00 0,00 519,00 0,00 0,00 0,00 1.445,27 0,00 0,00 28/02/2022
410 1103200 ANA LUISA DE LANA COELHO ESTAGIARIO BELO HORIZONTE; GABINETE DE PROCURADOR DE JUSTIÇA - SALA 715 0,00 0,00 0,00 0,00 1.446,00 0,00 0,00 0,00 0,00 28/02/2022
411 716700 ANA LUISA DE LANA COELHO ASSESSOR PROCURADOR JUSTICA BELO HORIZONTE - COMARCA; GABINETE DE PROCURADOR DE JUSTIÇA - SALA 715 1.252,45 0,00 1.038,00 0,00 0,00 0,00 0,00 0,00 239,59 28/02/2022
412 702000 ANA LUISA DE OLIVEIRA RIBEIRO ASSESSOR PROCURADOR JUSTICA BELO HORIZONTE - COMARCA; ASSESS TECNICO-JUR JUNTO AS PROC. DE JUST 1.198,00 0,00 519,00 0,00 0,00 0,00 0,00 0,00 0,00 28/02/2022
413 493400 ANA LUISA NOGUEIRA MOREIRA ANALISTA DO MP BELO HORIZONTE - COMARCA; BH-19PJ SAUDE-SECRETARIA 130PJ 1.198,00 0,00 519,00 0,00 0,00 0,00 0,00 0,00 0,00 28/02/2022
414 389300 ANA LUISA REUTER LIMA ASSESSOR/ANALISTA BELO HORIZONTE - COMARCA; DIRETORIA DE SISTEMAS DE INFORMACAO 1.198,00 0,00 519,00 0,00 0,00 0,00 0,00 0,00 0,00 28/02/2022
415 1112300 ANA LUISA RODRIGUES DUARTE ESTAGIARIO BELO HORIZONTE; EXTINTA-COORD EST DEF DIR FAM PES DEFIC IDOSO 0,00 0,00 0,00 9,00 0,00 0,00 0,00 0,00 0,00 28/02/2022
416 1235500 ANA LUISA RODRIGUES SOUSA ESTAGIARIO 0,00 0,00 0,00 153,00 0,00 0,00 0,00 0,00 0,00 28/02/2022
417 1248700 ANA LUIZA ANDRADE KOLASCO ESTAGIARIO BELO HORIZONTE; BH-13PJ JUIZO DE TOXICOS-GAB 006PJ 0,00 0,00 0,00 117,00 0,00 0,00 0,00 0,00 0,00 28/02/2022
418 1391000 ANA LUIZA ANTUNES DE OLIVEIRA ESTAGIARIO NANUQUE; NANUQUE-PJ-01PJ 0,00 0,00 0,00 117,00 0,00 0,00 0,00 0,00 0,00 28/02/2022
419 1405100 ANA LUIZA CUNHA ALVES ESTAGIARIO JUIZ DE FORA; JUIZ DE FORA-PJ-18PJ 0,00 0,00 0,00 18,00 0,00 0,00 0,00 0,00 0,00 28/02/2022
420 441100 ANA LUIZA DA COSTA E CRUZ PROMOTOR 2A ENTRANCIA PEDRO LEOPOLDO - COMARCA; PEDRO LEOPOLDO-PJ-03PJ 1.198,00 0,00 2.149,67 0,00 10.668,22 0,00 0,00 0,00 488,96 28/02/2022
421 161000 ANA LUIZA DE ABREU MOREIRA PROMOT.ENTRANC.ESPECIAL BELO HORIZONTE - COMARCA; BH-03PJ EMPRESARIAL-GAB 037PJ 1.198,00 0,00 3.368,91 0,00 11.229,70 0,00 0,00 0,00 514,69 28/02/2022
422 1354500 ANA LUIZA DE OLIVEIRA REIS ESTAGIARIO SABARA; SABARA-PJ-02PJ 0,00 0,00 0,00 72,00 0,00 0,00 0,00 0,00 0,00 28/02/2022
423 480600 ANA LUIZA FERNANDES FRAGA E GRECO COORDENADOR/OFICIAL BELO HORIZONTE - COMARCA; OUVIDORIA DO MPMG 1.198,00 0,00 519,00 0,00 5.673,19 0,00 0,00 0,00 520,04 28/02/2022
424 1344200 ANA LUIZA FERNANDES RAMALHO ESTAGIARIO DIAMANTINA; DIAMANTINA-PJ-03PJ 0,00 0,00 0,00 153,00 0,00 0,00 0,00 0,00 0,00 28/02/2022
425 1133300 ANA LUIZA FERREIRA VAZ ESTAGIARIO DIVINOPOLIS; DIVINOPOLIS-PJ-12PJ 0,00 0,00 0,00 207,00 0,00 0,00 0,00 0,00 289,20 28/02/2022
426 1315700 ANA LUIZA HAUSSMAN CAMPOS ESTAGIARIO CONSELHEIRO PENA; CONSELHEIRO PENA-PJ-01PJ 0,00 0,00 0,00 99,00 0,00 0,00 0,00 0,00 0,00 28/02/2022
427 685400 ANA LUIZA HENRIQUES BERGER MACHADO PROMOTOR 2A ENTRANCIA ARAÇUAÍ - COMARCA; ARACUAI-PJ-01PJ 1.198,00 0,00 773,24 0,00 16.002,33 0,00 0,00 0,00 488,96 28/02/2022
428 1346800 ANA LUIZA LAS CASAS FERREIRA ESTAGIARIO BELO HORIZONTE; GABINETE DE PROCURADOR DE JUSTIÇA - SALA 709 0,00 0,00 0,00 90,00 0,00 0,00 0,00 0,00 0,00 28/02/2022
429 517800 ANA LUIZA MAGALHAES CIRINO PIOTO DE MELO OFICIAL DO MP BELO HORIZONTE - COMARCA; SUPER DE GESTAO DE PESSOAS-LOTACAO TEMPORARIA 1.198,00 1.770,60 519,00 0,00 0,00 0,00 0,00 0,00 0,00 28/02/2022
430 1387700 ANA LUIZA MEIRELES DAMASCENO ESTAGIARIO BELO HORIZONTE; BH-07PJ 01 TRIBUNAL DO JURI-GAB 065PJ 0,00 0,00 0,00 126,00 0,00 0,00 0,00 0,00 0,00 28/02/2022
431 1311400 ANA LUIZA MENDES VIANA ESTAGIARIO BELO HORIZONTE; BH-12PJ JUIZO CRIMINAL-GAB 086PJ 0,00 0,00 0,00 153,00 0,00 0,00 0,00 0,00 0,00 28/02/2022
432 1214300 ANA LUIZA SCHUFFNER RIBEIRO ESTAGIARIO BELO HORIZONTE; GABINETE DE PROCURADOR DE JUSTIÇA - SALA 816 0,00 0,00 0,00 36,00 0,00 0,00 0,00 0,00 0,00 28/02/2022
433 1376200 ANA LUIZA SILVA RIBEIRO ESTAGIARIO BELO HORIZONTE; DIR RELACOES INSTITUCIONAIS 0,00 0,00 0,00 180,00 0,00 0,00 0,00 0,00 0,00 28/02/2022
434 1260700 ANA LUIZA SOARES BISPO ESTAGIARIO SETE LAGOAS; SETE LAGOAS-PJ-10PJ 0,00 0,00 0,00 171,00 0,00 0,00 0,00 0,00 0,00 28/02/2022
435 1171500 ANA LUIZA TEIXEIRA CUNHA ESTAGIARIO ITAPAGIPE; ITAPAGIPE-PJ-UNPJ 0,00 0,00 0,00 162,00 144,60 0,00 0,00 0,00 0,00 28/02/2022
436 481400 ANA MARCIA CANDIDA FERREIRA OFICIAL DO MP BRUMADINHO - COMARCA; BRUMADINHO-PJ-02PJ 1.198,00 0,00 519,00 0,00 1.469,71 0,00 0,00 0,00 134,72 28/02/2022
437 114700 ANA MARIA CAMILO DA HORA E ROCHA PROMOT.ENTRANC.ESPECIAL MONTES CLAROS - COMARCA; MONTES CLAROS-PJ-05PJ 1.198,00 0,00 3.368,91 0,00 11.229,70 0,00 0,00 0,00 514,69 28/02/2022
438 716200 ANA MARIA COUTO GONTIJO ASSESSOR PROCURADOR JUSTICA BELO HORIZONTE - COMARCA; GABINETE DE PROCURADOR DE JUSTIÇA - SALA 1014 1.524,73 0,00 1.038,00 0,00 0,00 0,00 0,00 0,00 1.437,54 28/02/2022
439 1247900 ANA MARIA FONSECA ROSA ESTAGIARIO PATOS DE MINAS; PATOS DE MINAS-PJ-02PJ 0,00 0,00 0,00 45,00 0,00 0,00 0,00 0,00 0,00 28/02/2022
440 643100 ANA MARIA LOPES MIRANDA ANALISTA DO MP BELO HORIZONTE - COMARCA; CAO-FUNDACOES 1.198,00 885,30 519,00 0,00 0,00 0,00 0,00 0,00 0,00 28/02/2022
441 556400 ANA MARIA OLIVEIRA SOUZA OFICIAL DO MP ITAPECERICA - COMARCA; ITAPECERICA-PJ-UNPJ 1.198,00 0,00 519,00 0,00 0,00 0,00 0,00 0,00 0,00 28/02/2022
442 1333200 ANA MARIA VELOSO RODRIGUES DE ALMEIDA ESTAGIARIO BELO HORIZONTE; EXTINTA-COORD EST DEF DIR FAM PES DEFIC IDOSO 0,00 0,00 0,00 72,00 0,00 0,00 0,00 0,00 0,00 28/02/2022
443 409600 ANA OLIVIA FARIA ROSENBURG ANALISTA DO MP BELO HORIZONTE - COMARCA; DIRETORIA DO COLEGIO E DA CAMARA DE PJ 1.198,00 0,00 519,00 0,00 1.489,72 0,00 0,00 0,00 584,40 28/02/2022
444 461500 ANA PAULA ALVES CARVALHO ANALISTA DO MP UBERLÂNDIA - COMARCA; UBERLANDIA-PJ-25PJ 1.198,00 0,00 519,00 0,00 4.833,42 0,00 0,00 0,00 443,06 28/02/2022
445 523200 ANA PAULA ALVES DA SILVA OFICIAL DO MP GOVERNADOR VALADARES - COMARCA; GOVERNADOR VALADARES-PJ-10PJ 1.198,00 3.541,20 519,00 0,00 5.885,47 0,00 0,00 0,00 1.305,84 28/02/2022
446 1295700 ANA PAULA ANDRADE GALVAO ESTAGIARIO BELO HORIZONTE; GABINETE DE PROCURADOR DE JUSTIÇA - SALA 709 0,00 0,00 0,00 90,00 0,00 0,00 0,00 0,00 0,00 28/02/2022
447 381200 ANA PAULA BARROS PEREIRA RIGHI ANALISTA DO MP BELO HORIZONTE - COMARCA; PROC JUST ATUACAO TRIBUNAIS SUPERIORES-GAB003 1.198,00 885,30 519,00 0,00 0,00 0,00 0,00 0,00 0,00 28/02/2022
448 696400 ANA PAULA CARVALHO SILVA ASSESSOR PROMOTOR JUSTICA PERDÕES - COMARCA; PERDOES-PJ-UNPJ 1.198,00 885,30 519,00 0,00 0,00 0,00 0,00 0,00 0,00 28/02/2022
449 700900 ANA PAULA CRAVO SALOME ASSESSOR BELO HORIZONTE - COMARCA; PROCURADOR-GERAL DE JUSTIÇA 1.198,00 0,00 519,00 0,00 0,00 0,00 0,00 0,00 0,00 28/02/2022
450 227200 ANA PAULA DA SILVA CAMPOLINA ANALISTA DO MP BELO HORIZONTE - COMARCA; DIRETORIA DE ORCAMENTO-DIOR/SPC 1.198,00 0,00 519,00 0,00 5.646,04 0,00 0,00 0,00 517,55 28/02/2022
451 1114000 ANA PAULA DE OLIVEIRA SANTOS ESTAGIARIO ARAGUARI; ARAGUARI-PJ-07PJ 0,00 0,00 0,00 0,00 723,00 0,00 0,00 0,00 0,00 28/02/2022
452 1275600 ANA PAULA DE SOUZA OLIVEIRA ESTAGIARIO MURIAE; MURIAE-PJ-07PJ 0,00 0,00 0,00 162,00 0,00 0,00 0,00 0,00 0,00 28/02/2022
453 278500 ANA PAULA DIAS CAPANEMA OFICIAL DO MP BELO HORIZONTE - COMARCA; DIRETORIA DE SEGURANCA 1.198,00 0,00 519,00 0,00 5.759,82 0,00 0,00 0,00 527,98 28/02/2022
454 1364900 ANA PAULA FLORINDA MACHADO DO CARMO ESTAGIARIO UBERABA; UBERABA-PJ-15PJ 0,00 0,00 0,00 180,00 0,00 0,00 0,00 0,00 0,00 28/02/2022
455 327300 ANA PAULA GARCIA MAXIMO OFICIAL DO MP UNAÍ - COMARCA; UNAI-PJ-01PJ 1.198,00 0,00 519,00 0,00 5.467,40 0,00 0,00 0,00 501,18 28/02/2022
456 1229100 ANA PAULA GOMES MIRANDA ESTAGIARIO BELO HORIZONTE; BH-12PJ JUIZO CRIMINAL-GAB 092PJ 0,00 0,00 0,00 108,00 0,00 0,00 0,00 0,00 0,00 28/02/2022
457 270000 ANA PAULA GOULART CRUZ DE MAGALHAES ANALISTA DO MP BELO HORIZONTE - COMARCA; ASSESSORIA ESPECIAL DO PGJ 1.198,00 0,00 519,00 0,00 5.871,88 0,00 0,00 0,00 538,26 28/02/2022
458 262100 ANA PAULA KOMATSUZAKI ABIJAUDI ANALISTA DO MP BELO HORIZONTE - COMARCA; BH-17PJ PATRIMONIO PUBLICO-SECRETARIA 1.198,00 0,00 519,00 0,00 0,00 0,00 0,00 0,00 0,00 28/02/2022
459 671400 ANA PAULA LIMA DA SILVA PROMOTOR 1A ENTRANCIA RIO CASCA - COMARCA; RIO CASCA-PJ-UNPJ 1.198,00 0,00 1.546,48 0,00 10.134,80 0,00 0,00 0,00 464,51 28/02/2022
460 222600 ANA PAULA LOURENCO DE PAULA PROMOTOR 2A ENTRANCIA ITUIUTABA - COMARCA; ITUIUTABA-PJ-03PJ 1.198,00 0,00 3.200,47 0,00 0,00 0,00 0,00 0,00 0,00 28/02/2022
461 106200 ANA PAULA MENDES RODRIGUES PROCURADOR DE JUSTICA BELO HORIZONTE - COMARCA; PROC JUSTICA DIR DIFUSOS E COLETIVOS-GAB007 1.198,00 0,00 1.288,73 0,00 0,00 0,00 0,00 0,00 0,00 28/02/2022
462 278900 ANA PAULA MOREIRA GURGEL COORDENADOR/ANALISTA BELO HORIZONTE - COMARCA; ASSESSORIA JURIDICO-ADMINISTRATIVA 1.198,00 0,00 519,00 0,00 5.966,20 0,00 0,00 0,00 942,40 28/02/2022
463 1333700 ANA PAULA PACHECO DA SILVA ARAUJO ESTAGIARIO BELO HORIZONTE; GABINETE DE PROCURADOR DE JUSTIÇA - SALA 713 0,00 0,00 0,00 36,00 0,00 0,00 0,00 0,00 0,00 28/02/2022
464 484400 ANA PAULA RESENDE DORNELLAS DE AZEVEDO PROMOTOR SUBSTITUTO CONTAGEM - COMARCA; CONTAGEM-PJ-22PJ 1.198,00 0,00 3.040,44 0,00 10.134,80 0,00 0,00 0,00 464,51 28/02/2022
465 425701 ANA PAULA ROCHA ANALISTA DO MP BELO HORIZONTE - COMARCA; ASSESSORIA DE COMUNICACAO INTEGRADA 1.198,00 885,30 519,00 0,00 0,00 0,00 0,00 0,00 0,00 28/02/2022
466 395601 ANA PAULA SALGE OLIVEIRA ANALISTA DO MP UBERABA - COMARCA; UBERABA-PJ-15PJ 1.198,00 0,00 519,00 0,00 5.759,82 0,00 0,00 0,00 527,98 28/02/2022
467 473200 ANA PAULA SCOTTON BRASIL ANALISTA DO MP JUIZ DE FORA - COMARCA; JUIZ DE FORA-PJ-07PJ 1.198,00 808,36 519,00 0,00 5.800,10 0,00 0,00 0,00 531,68 28/02/2022
468 633600 ANA PAULA SILVA FERNANDES OFICIAL DO MP CATAGUASES - COMARCA; CATAGUASES-PJ-04PJ 1.198,00 0,00 519,00 0,00 0,00 0,00 0,00 0,00 0,00 28/02/2022
469 470900 ANA PAULA VALADARES ANALISTA DO MP PITANGUI - COMARCA; PITANGUI-PJ-01PJ 1.198,00 0,00 519,00 0,00 0,00 0,00 0,00 0,00 0,00 28/02/2022
470 447000 ANA PAULA VALENTIM DE ARAUJO ANALISTA DO MP BELO HORIZONTE - COMARCA; PROC JUST ESP ACOES COMP ORIG CRIMINAL-ASSESS 1.198,00 0,00 519,00 0,00 0,00 0,00 0,00 0,00 0,00 28/02/2022
471 604200 ANA PAULA VIANA E SILVA OFICIAL DO MP BELO HORIZONTE - COMARCA; BH-17PJ PATRIMONIO PUBLICO-SECRETARIA 1.198,00 0,00 519,00 0,00 0,00 0,00 0,00 0,00 0,00 28/02/2022
472 505400 ANA PAULA VIEIRA SOUTO OFICIAL DO MP ALMENARA - COMARCA; ALMENARA-PJ-01PJ 1.198,00 0,00 519,00 0,00 0,00 0,00 0,00 0,00 0,00 28/02/2022
473 280200 ANA RACHEL BRANDAO LADEIRA ROLAND DIRETOR/ANALISTA BELO HORIZONTE - COMARCA; SUPERINTENDENCIA GESTÃO DE PESSOAS 1.198,00 0,00 519,00 0,00 0,00 0,00 0,00 0,00 0,00 28/02/2022
474 691000 ANA RACHEL DOS REIS E SENA COSTA ASSESSOR PROMOTOR JUSTICA BELO HORIZONTE - COMARCA; GABINETE DE PROCURADOR DE JUSTIÇA - SALA 601 1.198,00 0,00 519,00 0,00 0,00 0,00 0,00 0,00 0,00 28/02/2022
475 601200 ANA REGINA RIBEIRO COORDENADOR/ANALISTA BELO HORIZONTE - COMARCA; DIV FISCAL ADM CONT TERCEIRIZACAO 1.198,00 0,00 519,00 0,00 5.720,47 0,00 0,00 0,00 524,38 28/02/2022
476 1229700 ANA RITA FONSECA ESTAGIARIO FORMIGA; FORMIGA-PJ-03PJ 0,00 0,00 0,00 180,00 0,00 0,00 0,00 0,00 0,00 28/02/2022
477 384700 ANA RODRIGUES PEREIRA MARRA ANALISTA DO MP COROMANDEL - COMARCA; COROMANDEL-PJ-01PJ 1.198,00 885,30 519,00 0,00 5.800,10 0,00 0,00 0,00 531,68 28/02/2022
478 232700 ANA SILVIA SEMBLANO NAKAMURA ASSESSOR/OFICIAL BELO HORIZONTE - COMARCA; CENT DE APOIO TEC-SETOR DEF,IDOSO E INFANC 1.198,00 0,00 519,00 0,00 5.947,38 0,00 0,00 0,00 545,18 28/02/2022
479 1123000 ANA TELMA APARECIDA COSTA ESTAGIARIO
480 530300 ANA TEREZA RIBEIRO SALLES GIACOMINI PROMOTOR SUBSTITUTO CONTAGEM - COMARCA; CONTAGEM-PJ-19PJ 1.198,00 0,00 2.694,61 0,00 5.067,40 0,00 0,00 0,00 464,51 28/02/2022
481 1147700 ANA VICTORIA DOS PASSOS CAETANO ESTAGIARIO GOVERNADOR VALADARES; GOVERNADOR VALADARES-PJ-16PJ 0,00 0,00 0,00 117,00 0,00 0,00 0,00 0,00 0,00 28/02/2022
482 1397400 ANA VITORIA REZENDE COSTA ESTAGIARIO UBERABA; UBERABA-PJ-09PJ 0,00 0,00 0,00 99,00 0,00 0,00 0,00 0,00 0,00 28/02/2022
483 602100 ANACLETO FRANCISCO MARCIER PIMENTA OFICIAL DO MP SÃO JOÃO DEL REI - COMARCA; SAO JOAO DEL REI-PJ-03PJ 1.198,00 0,00 519,00 0,00 0,00 0,00 0,00 0,00 0,00 28/02/2022
484 310400 ANADEJE DO CARMO DINIZ ARAUJO OFICIAL DO MP BELO HORIZONTE - COMARCA; DIRETORIA DE PESSOAL ADMINISTRATIVO - DPAD 1.198,00 0,00 519,00 0,00 0,00 0,00 0,00 0,00 0,00 28/02/2022
485 337000 ANAILDES MARIA MENDES OFICIAL DO MP JANAÚBA - COMARCA; JANAUBA-PJ-02PJ 1.198,00 885,30 519,00 0,00 5.759,82 0,00 0,00 0,00 527,98 28/02/2022
486 1170500 ANANDA EVELYN AURELIO DE SOUZA ESTAGIARIO CONTAGEM; COORD REG DEF ORDEM ECON TRIB CONTAGEM 0,00 0,00 0,00 54,00 0,00 0,00 0,00 0,00 0,00 28/02/2022
487 192900 ANATALIA CERQUEIRA LIMA PERES OFICIAL DO MP UBERABA - COMARCA; COORD REG SAUDE MACROR SANIT TRIANGULO SUL 1.198,00 0,00 519,00 0,00 0,00 0,00 0,00 0,00 0,00 28/02/2022
488 377400 ANDEIRSON DA MATTA BARBOSA ANALISTA DO MP POUSO ALEGRE - COMARCA; POUSO ALEGRE-PJ-01PJ 1.198,00 885,30 519,00 0,00 5.800,10 0,00 0,00 0,00 531,68 28/02/2022
489 317400 ANDERSON DA SILVA BICALHO OFICIAL DO MP CONTAGEM - COMARCA; CONTAGEM-PJ-SECRETARIA 1.198,00 0,00 519,00 0,00 0,00 0,00 0,00 0,00 0,00 28/02/2022
490 506900 ANDERSON DE SOUZA DAMIANI ANALISTA DO MP BELO HORIZONTE - COMARCA; DIRETORIA DE PAGAMENTO DE PESSOAL-DPAG 1.198,00 0,00 519,00 0,00 0,00 0,00 0,00 0,00 0,00 28/02/2022
491 410000 ANDERSON DE SOUZA NETO ASSESSOR BELO HORIZONTE - COMARCA; DIRETORIA DE ADMINISTRACAO FINANCEIRA 1.198,00 0,00 519,00 0,00 0,00 0,00 0,00 0,00 0,00 28/02/2022
492 1300000 ANDERSON EDUARDO DOS SANTOS PEDRO ESTAGIARIO TRES CORACOES; TRES CORACOES-PJ-02PJ 0,00 0,00 0,00 162,00 0,00 0,00 0,00 0,00 0,00 28/02/2022
493 181900 ANDERSON FLAVIO DE OLIVEIRA OFICIAL DO MP ITAGUARA - COMARCA; ITAGUARA-PJ-SECRETARIA 1.198,00 0,00 519,00 0,00 0,00 0,00 0,00 0,00 0,00 28/02/2022
494 333200 ANDERSON JOSE DE FREITAS OFICIAL DO MP IPATINGA - COMARCA; IPATINGA-PJ-04PJ 1.198,00 885,30 519,00 0,00 5.814,31 0,00 1.445,27 0,00 532,98 28/02/2022
495 699400 ANDERSON LUIZ CABRAL ASSESSOR PROMOTOR JUSTICA ALÉM PARAÍBA - COMARCA; ALEM PARAIBA-PJ-03PJ 1.198,00 0,00 519,00 0,00 0,00 0,00 0,00 0,00 0,00 28/02/2022
496 462100 ANDERSON LUIZ GUIMARAES CARDOSO ANALISTA DO MP BARBACENA - COMARCA; BARBACENA-PJ-02PJ 1.198,00 0,00 519,00 0,00 5.853,17 0,00 0,00 0,00 536,54 28/02/2022
497 429700 ANDERSON MELO DE SOUZA ASSESSOR/OFICIAL BELO HORIZONTE - COMARCA; DIRET DE ESTAGIOS E CONVENIOS ACADEMICOS 1.198,00 0,00 519,00 0,00 5.988,97 0,00 0,00 0,00 548,99 28/02/2022
498 545600 ANDERSON MENDES PROCOPIO FERREIRA ANALISTA DO MP BELO HORIZONTE - COMARCA; BH-12PJ JUIZO CRIMINAL-GAB 089PJ 1.198,00 0,00 519,00 0,00 4.571,23 0,00 0,00 0,00 419,03 28/02/2022
499 519900 ANDERSON MOREIRA DOEHLER ANALISTA DO MP TEÓFILO OTONI - COMARCA; COORD REG SAUDE MACRORREGIAO SANIT NORDESTE 1.198,00 0,00 519,00 0,00 0,00 0,00 0,00 0,00 0,00 28/02/2022
500 1379900 ANDERSON NASCIMENTO DOS SANTOS ESTAGIARIO MARIANA; MARIANA-PJ-01PJ 0,00 0,00 0,00 189,00 0,00 0,00 0,00 0,00 0,00 28/02/2022
501 103000 ANDERSON TADEU DE DEUS ASSESSOR BELO HORIZONTE - COMARCA; BH-26 CRIME CONT CRIAN ADOL-SECRETARIA 1.198,00 0,00 519,00 0,00 0,00 0,00 0,00 0,00 0,00 28/02/2022
502 652500 ANDERSON TADEU LOPES INVESTIGADOR DE POLICIA 2 CONTAGEM - COMARCA; COORD REG DEF ORDEM ECON TRIB CONTAGEM 1.198,00 0,00 0,00 0,00 0,00 0,00 0,00 0,00 0,00 28/02/2022
503 309200 ANDITYAS SOARES DE MOURA COSTA MATOS ANALISTA DO MP BELO HORIZONTE - COMARCA; GABINETE DE PROCURADOR DE JUSTIÇA - SALA 909 1.198,00 0,00 519,00 0,00 0,00 0,00 0,00 0,00 0,00 28/02/2022
504 519200 ANDRE BORJA LANA ANALISTA DO MP BELO HORIZONTE - COMARCA; DIR CONTEUDO JORNALISTICO 1.198,00 0,00 519,00 0,00 5.800,10 0,00 0,00 0,00 840,19 28/02/2022
505 486000 ANDRE CARDOSO CAVALCANTI PROMOTOR 2A ENTRANCIA ITAJUBA - COMARCA; ITAJUBA-PJ-02PJ 1.198,00 0,00 3.179,77 0,00 10.668,22 0,00 0,00 0,00 488,96 28/02/2022
506 224900 ANDRE CHIO MAXIMO PROMOT.ENTRANC.ESPECIAL VESPASIANO - COMARCA; VESPASIANO-PJ-02PJ 1.198,00 0,00 3.368,91 0,00 0,00 0,00 0,00 0,00 0,00 28/02/2022
507 102400 ANDRE DE OLIVEIRA ANDRADE PROMOT.ENTRANC.ESPECIAL BELO HORIZONTE - COMARCA; BH-02PJ FAMILIA-GAB 030PJ 1.198,00 0,00 3.368,91 0,00 11.229,70 0,00 0,00 0,00 514,69 28/02/2022
508 656000 ANDRE DE OLIVEIRA SOUSA INVESTIGADOR DE POLICIA 2 BELO HORIZONTE - COMARCA; GAECO - SETOR POLICIAL CIVIL 1.198,00 0,00 0,00 0,00 0,00 0,00 0,00 0,00 2.167,36 28/02/2022
509 79200 ANDRE ESTEVAO UBALDINO PEREIRA PROCURADOR DE JUSTICA BELO HORIZONTE - COMARCA; GABINETE DE PROCURADOR DE JUSTIÇA - SALA 502 1.198,00 0,00 3.546,22 0,00 11.820,74 0,00 0,00 0,00 541,78 28/02/2022
510 637200 ANDRE FERNANDES DA CUNHA OFICIAL DO MP MORADA NOVA DE MINAS - COMARCA; MORADA NOVA DE MINAS-PJ-UNPJ 1.198,00 0,00 519,00 0,00 0,00 0,00 0,00 0,00 0,00 28/02/2022
511 162800 ANDRE FERNANDO COLUCCO PROMOTOR 2A ENTRANCIA CASSIA - COMARCA; CASSIA-PJ-02PJ 1.198,00 0,00 3.092,94 0,00 10.668,22 0,00 0,00 0,00 488,96 28/02/2022
512 651500 ANDRE GONCALVES MARANHAO OFICIAL DO MP JACINTO - COMARCA; JACINTO-PJ-SECRETARIA 1.198,00 0,00 519,00 0,00 0,00 0,00 0,00 0,00 0,00 28/02/2022
513 439200 ANDRE LEITE DE ALMEIDA PROMOT.ENTRANC.ESPECIAL VESPASIANO - COMARCA; VESPASIANO-PJ-03PJ 1.198,00 0,00 1.452,75 0,00 16.844,55 0,00 0,00 0,00 514,69 28/02/2022
514 166900 ANDRE LUIS ALVES DE MELO PROMOTOR 2A ENTRANCIA ARAGUARI - COMARCA; ARAGUARI-PJ-01PJ 1.198,00 0,00 3.200,47 0,00 0,00 0,00 0,00 0,00 0,00 28/02/2022
515 85000 ANDRE LUIS GARCIA DE PINHO PROMOT.ENTRANC.ESPECIAL BELO HORIZONTE - COMARCA; SUPER DE GESTAO DE PESSOAS-EM DISPONIBILIDADE 0,00 0,00 2.945,65 0,00 0,00 0,00 0,00 0,00 0,00 28/02/2022
516 521900 ANDRE LUIS GOMES SILVA ANALISTA DO MP FORMIGA - COMARCA; FORMIGA-PJ-02PJ 1.198,00 1.770,60 519,00 0,00 6.323,72 0,00 0,00 0,00 1.538,64 28/02/2022
517 340800 ANDRE LUIS MACHADO ARANTES PROMOTOR 2A ENTRANCIA PARÁ DE MINAS - COMARCA; PARA DE MINAS-PJ-05PJ 1.198,00 0,00 3.368,91 0,00 11.229,70 0,00 0,00 0,00 2.199,15 28/02/2022
518 304300 ANDRE LUIZ AVELAR ANALISTA DO MP BELO HORIZONTE - COMARCA; DIRETORIA DE REDES E BANCOS DE DADOS 1.198,00 0,00 519,00 0,00 0,00 0,00 0,00 0,00 0,00 28/02/2022
519 666100 ANDRE LUIZ FERREIRA VALADARES PROMOTOR 2A ENTRANCIA VARZEA DA PALMA - COMARCA; VARZEA DA PALMA-PJ-02PJ 1.198,00 0,00 2.467,01 0,00 10.668,22 0,00 0,00 0,00 488,96 28/02/2022
520 530200 ANDRE LUIZ NOLLI MERRIGHI PROMOT.ENTRANC.ESPECIAL SETE LAGOAS - COMARCA; SETE LAGOAS-PJ-03PJ 1.198,00 0,00 3.368,91 0,00 16.844,55 0,00 0,00 0,00 514,69 28/02/2022
521 1348400 ANDRE LUIZ SOUZA ANDRADE ESTAGIARIO DIVINOPOLIS; COORD REG PP CENTRO-OESTE MG DIVINOPOLIS 0,00 0,00 0,00 108,00 0,00 0,00 0,00 0,00 0,00 28/02/2022
522 397400 ANDRE PATARO MYRRHA DE PAULA E SILVA ANALISTA DO MP BELO HORIZONTE - COMARCA; ASSESSORIA JURIDICO-ADMINISTRATIVA 1.198,00 885,30 519,00 0,00 4.969,66 0,00 0,00 0,00 455,55 28/02/2022
523 533200 ANDRE PEREIRA MAFIA PROMOTOR 2A ENTRANCIA ALÉM PARAÍBA - COMARCA; ALEM PARAIBA-PJ-01PJ 1.198,00 0,00 820,10 0,00 5.334,11 0,00 0,00 0,00 0,00 28/02/2022
524 441200 ANDRE SALLES DIAS PINTO PROMOTOR 2A ENTRANCIA IGARAPÉ - COMARCA; IGARAPE-PJ-01PJ 1.198,00 0,00 3.200,47 0,00 10.668,22 0,00 0,00 0,00 488,96 28/02/2022
525 237800 ANDRE SILVARES VASCONCELOS PROMOTOR 2A ENTRANCIA PIUMHI - COMARCA; PIUMHI-PJ-02PJ 1.198,00 0,00 2.741,48 0,00 16.002,33 0,00 0,00 0,00 488,96 28/02/2022
526 231800 ANDRE SPERLING PRADO PROMOT.ENTRANC.ESPECIAL BELO HORIZONTE - COMARCA; BH-19PJ SAUDE-GAB 047PJ 1.198,00 0,00 2.835,20 0,00 13.475,64 0,00 0,00 0,00 514,69 28/02/2022
527 666300 ANDRE TANURE DOMINGUES FIGUEIREDO PROMOTOR 2A ENTRANCIA PONTE NOVA - COMARCA; PONTE NOVA-PJ-02PJ 1.198,00 0,00 3.200,47 0,00 10.668,22 0,00 0,00 0,00 488,96 28/02/2022
528 650100 ANDRE THOME VARGAS OFICIAL DO MP LEOPOLDINA - COMARCA; LEOPOLDINA-PJ-04PJ 1.198,00 0,00 519,00 0,00 0,00 0,00 0,00 0,00 0,00 28/02/2022
529 231600 ANDRE TUMA DELBIM FERREIRA PROMOT.ENTRANC.ESPECIAL UBERABA - COMARCA; COORD REG PJ DEF EDUC DIR CRIANCA ADOL TRIANG 1.198,00 0,00 1.804,22 0,00 11.229,70 0,00 0,00 0,00 514,69 28/02/2022
530 671500 ANDRE VALDERRAMAS FRANCO PROMOTOR SUBSTITUTO CAPINÓPOLIS - COMARCA; CAPINOPOLIS-PJ-UNPJ 1.198,00 0,00 656,08 0,00 15.202,20 0,00 0,00 0,00 464,51 28/02/2022
531 548500 ANDRE VINICIUS CARVALHO MEIRA ANALISTA DO MP JUIZ DE FORA - COMARCA; JUIZ DE FORA-PJ-24PJ 1.198,00 0,00 519,00 0,00 0,00 0,00 0,00 0,00 0,00 28/02/2022
532 297200 ANDRE WILLE ROSARIO ANALISTA DO MP BELO HORIZONTE - COMARCA; ASSESSORIA ESPECIAL DO PGJ 1.198,00 0,00 519,00 0,00 5.648,25 0,00 0,00 0,00 517,76 28/02/2022
533 224500 ANDREA BASILIO GONCALVES GOLLOP PROMOT.ENTRANC.ESPECIAL BELO HORIZONTE - COMARCA; BH-18PJ VIOLENCIA DOMESTICA-GAB 186PJ 1.198,00 0,00 3.368,91 0,00 0,00 0,00 0,00 0,00 0,00 28/02/2022
534 666400 ANDREA CLEMENTE BARBOSA DE SOUZA PROMOTOR SUBSTITUTO ITAÚNA - COMARCA; ITAUNA-PJ-05PJ 1.198,00 0,00 2.483,72 0,00 10.134,80 0,00 0,00 0,00 464,51 28/02/2022
535 423600 ANDREA COSTA GUALBERTO ALVES ANALISTA DO MP GOVERNADOR VALADARES - COMARCA; COORD REG PJ DEF EDU DIR CRIANCA ADOL RIODOCE 1.198,00 0,00 519,00 0,00 0,00 0,00 0,00 0,00 0,00 28/02/2022
536 230600 ANDREA CRISTINA CALDAS SANTIAGO PROMOT.ENTRANC.ESPECIAL CONSELHEIRO LAFAIETE - COMARCA; CONSELHEIRO LAFAIETE-PJ-07PJ 1.198,00 0,00 1.546,47 0,00 5.614,85 0,00 0,00 0,00 514,69 28/02/2022
537 467300 ANDREA DE CASSIA PENNA ALVERNAZ ANALISTA DO MP PONTE NOVA - COMARCA; PONTE NOVA-PJ-01PJ 1.198,00 0,00 519,00 0,00 483,34 0,00 0,00 0,00 44,31 28/02/2022
538 308000 ANDREA DE CASSIA SANTOS OLIVEIRA ANALISTA DO MP BELO HORIZONTE - COMARCA; COORD DE GABINETE DO PGJ 1.198,00 0,00 519,00 0,00 5.433,14 0,00 0,00 0,00 2.199,83 28/02/2022
539 106300 ANDREA DE FIGUEIREDO SOARES PROCURADOR DE JUSTICA BELO HORIZONTE - COMARCA; GABINETE DE PROCURADOR DE JUSTIÇA - SALA 709 1.198,00 0,00 3.303,83 0,00 11.820,74 0,00 0,00 0,00 541,78 28/02/2022
540 349500 ANDREA DE OLIVEIRA LOIOLA REGIS OFICIAL DO MP IGUATAMA - COMARCA; IGUATAMA-PJ-UNPJ 1.198,00 0,00 519,00 0,00 0,00 0,00 0,00 0,00 0,00 28/02/2022
541 287900 ANDREA FERNANDES PENA MARTINS OFICIAL DO MP MONTES CLAROS - COMARCA; MONTES CLAROS-PJ-09PJ 1.198,00 0,00 519,00 0,00 5.759,82 0,00 0,00 0,00 527,98 28/02/2022
542 300800 ANDREA FERREIRA ANALISTA DO MP LAVRAS - COMARCA; LAVRAS-PJ-04PJ 1.198,00 0,00 519,00 0,00 0,00 0,00 0,00 0,00 0,00 28/02/2022
543 395100 ANDREA LANNA MENDES NOVAIS ANALISTA DO MP BELO HORIZONTE - COMARCA; PROMOT ESTADUAL DE DEF PATRI CULT E TUR DE MG 1.198,00 0,00 519,00 0,00 0,00 0,00 0,00 0,00 0,00 28/02/2022
544 67300 ANDREA LEAO MAGALHAES ROQUE ASSESSOR BELO HORIZONTE - COMARCA; COORD ESTADUAL COMBATE CRIMES CIBERNETICOS 1.198,00 0,00 519,00 0,00 0,00 0,00 0,00 0,00 0,00 28/02/2022
545 335700 ANDREA LOPES PEREIRA ANALISTA DO MP GOVERNADOR VALADARES - COMARCA; COORD REG DO MA DA BACIA DO RIO DOCE 1.198,00 0,00 519,00 0,00 5.433,14 0,00 0,00 0,00 498,04 28/02/2022
546 224700 ANDREA MARIA NESSRALLA BAHURY PROMOT.ENTRANC.ESPECIAL BELO HORIZONTE - COMARCA; BH-12PJ JUIZO CRIMINAL-GAB 089PJ 1.198,00 0,00 2.577,46 0,00 11.229,70 0,00 0,00 0,00 514,69 28/02/2022
547 167000 ANDREA MISMOTTO CARELLI PROMOT.ENTRANC.ESPECIAL BELO HORIZONTE - COMARCA; BH-26 CRIME CONT CRIAN ADOL-GAB 048PJ 1.198,00 0,00 1.077,84 0,00 5.614,85 0,00 0,00 0,00 514,69 28/02/2022
548 389200 ANDREA TUPINI DOS SANTOS TRISTAO DA ROCHA COORDENADOR/OFICIAL BELO HORIZONTE - COMARCA; BH-13ª PJ JUÍZO DE TÓXICOS-SECRETARIA 1.198,00 0,00 519,00 0,00 0,00 0,00 0,00 0,00 0,00 28/02/2022
549 419000 ANDREIA BARBOSA DE ALMEIDA ANALISTA DO MP BELO HORIZONTE - COMARCA; GABINETE DE PROCURADOR DE JUSTIÇA - SALA 705 1.198,00 0,00 519,00 0,00 5.620,98 0,00 0,00 0,00 515,26 28/02/2022
550 281501 ANDREIA CARLA COSTA ANALISTA DO MP UBÁ - COMARCA; UBA-PJ-02PJ 1.198,00 0,00 519,00 0,00 5.500,51 0,00 0,00 0,00 504,21 28/02/2022
551 477100 ANDREIA DE ALMEIDA RIBEIRO MELO OFICIAL DO MP CONTAGEM - COMARCA; CONTAGEM-PJ-SECRETARIA 1.198,00 0,00 519,00 0,00 0,00 0,00 0,00 0,00 0,00 28/02/2022
552 1170600 ANDREIA DE PAULA CAMPOS NUNES ESTAGIARIO ANDRELANDIA; ANDRELANDIA-PJ-UNPJ 0,00 0,00 0,00 54,00 0,00 0,00 0,00 0,00 0,00 28/02/2022
553 619000 ANDREIA FERREIRA NORONHA COORDENADOR/OFICIAL BELO HORIZONTE - COMARCA; DIRETORIA DE SERVICO CRIMINAL 1.198,00 0,00 519,00 0,00 5.911,47 0,00 0,00 0,00 541,88 28/02/2022
554 424000 ANDREIA LUCIA COUTO ANALISTA DO MP BELO HORIZONTE - COMARCA; BH-18PJ DIREITOS HUMANOS-SECRETARIA 1.198,00 0,00 519,00 0,00 0,00 0,00 0,00 0,00 0,00 28/02/2022
555 1138400 ANDREIA MARIA FIRMO ESTAGIARIO BELO HORIZONTE; PROC. JUSTICA DIR. DIFUSOS E COLETIVOS 0,00 0,00 0,00 9,00 0,00 0,00 0,00 0,00 0,00 28/02/2022
556 370100 ANDREIA MARIA SILVA PINTO OFICIAL DO MP CORONEL FABRICIANO - COMARCA; CORONEL FABRICIANO-PJ-01PJ 1.198,00 885,30 519,00 0,00 0,00 0,00 0,00 0,00 0,00 28/02/2022
557 1305000 ANDREIA MARTINS GUIMARAES ESTAGIARIO BELO HORIZONTE; PROC. JUSTICA DIR. DIFUSOS E COLETIVOS 0,00 0,00 0,00 9,00 0,00 0,00 0,00 0,00 0,00 28/02/2022
558 382100 ANDREIA NATALI PEREIRA DE OLIVEIRA OFICIAL DO MP PRADOS - COMARCA; PRADOS-PJ-UNPJ 1.198,00 0,00 519,00 0,00 0,00 0,00 0,00 0,00 0,00 28/02/2022
559 198701 ANDREIA NUNES DURAES PROMOTOR 2A ENTRANCIA BOCAIÚVA - COMARCA; BOCAIUVA-PJ-02PJ 1.198,00 0,00 0,00 0,00 10.668,22 0,00 0,00 0,00 488,96 28/02/2022
560 275200 ANDREIA RIBEIRO FREITAS OFICIAL DO MP VIÇOSA - COMARCA; VICOSA-PJ-04PJ 1.198,00 0,00 519,00 0,00 5.759,82 0,00 0,00 0,00 527,98 28/02/2022
561 352200 ANDREIA XAVIER PEREIRA OFICIAL DO MP CLÁUDIO - COMARCA; CLAUDIO-PJ-UNPJ 1.198,00 0,00 519,00 0,00 5.759,82 0,00 0,00 0,00 527,98 28/02/2022
562 638500 ANDRESA ALVES FEITOSA CASAGRANDE ANALISTA DO MP LAVRAS - COMARCA; COORD REG DO MA DA BACIA DO RIO GRANDE 1.198,00 0,00 519,00 0,00 0,00 0,00 0,00 0,00 0,00 28/02/2022
563 1331800 ANDRESSA ALBUQUERQUE BATISTA ESTAGIARIO JUIZ DE FORA; JUIZ DE FORA-PJ-15PJ 0,00 0,00 0,00 126,00 0,00 0,00 0,00 0,00 0,00 28/02/2022
564 1221100 ANDRESSA BARBOSA PARANHOS ESTAGIARIO PATOS DE MINAS; COORD REG SAUDE MACRORREGIAO SANIT NOROESTE 0,00 0,00 0,00 189,00 0,00 0,00 0,00 0,00 0,00 28/02/2022
565 210000 ANDRESSA DE OLIVEIRA LANCHOTTI PROMOT.ENTRANC.ESPECIAL BELO HORIZONTE - COMARCA; BH-12PJ JUIZO CRIMINAL-GAB 104PJ 1.198,00 0,00 3.368,91 0,00 5.614,85 0,00 0,00 0,00 514,69 28/02/2022
566 1372300 ANDRESSA DE OLIVEIRA RESENDE ESTAGIARIO ARAGUARI; ARAGUARI-PJ-06PJ 0,00 0,00 0,00 180,00 0,00 0,00 0,00 0,00 0,00 28/02/2022
567 1203800 ANDRESSA DORNELAS BORGES ESTAGIARIO PATOS DE MINAS; PATOS DE MINAS-PJ-SECRETARIA 0,00 0,00 0,00 81,00 0,00 0,00 0,00 0,00 0,00 28/02/2022
568 383700 ANDRESSA EDUARDO SOUZA ANALISTA DO MP OURO BRANCO - COMARCA; OURO BRANCO-PJ-SECRETARIA 1.198,00 885,30 519,00 0,00 0,00 0,00 0,00 0,00 0,00 28/02/2022
569 1393200 ANDRESSA ESTEVAO ESTAGIARIO POUSO ALEGRE; POUSO ALEGRE-PJ-04PJ 0,00 0,00 0,00 126,00 0,00 0,00 0,00 0,00 0,00 28/02/2022
570 485500 ANDRESSA ISABELLE FERREIRA BARRETO PROMOTOR 2A ENTRANCIA CONCEICAO DAS ALAGOAS - COMARCA; CONCEICAO DAS ALAGOAS-PJ-02PJ 1.198,00 0,00 3.200,47 0,00 16.002,33 0,00 0,00 0,00 488,96 28/02/2022
571 678400 ANDRESSA LUIZA SILVA LOPES ASSESSOR PROMOTOR JUSTICA CARMO DO PARANAÍBA - COMARCA; CARMO DO PARANAIBA-PJ-02PJ 1.198,00 0,00 519,00 0,00 0,00 0,00 0,00 0,00 0,00 28/02/2022
572 1273700 ANDRESSA MARTINS GUERRA ESTAGIARIO UBERLANDIA; GAECO REGIONAL DE UBERLANDIA 0,00 0,00 0,00 9,00 0,00 0,00 0,00 0,00 0,00 28/02/2022
573 426200 ANDRESSA MENDES CASAL OFICIAL DO MP BELO HORIZONTE - COMARCA; DIR ESTRUTURA E PROCESSOS ORGANIZACIONAIS 1.198,00 885,30 519,00 0,00 0,00 0,00 0,00 0,00 0,00 28/02/2022
574 390100 ANDRESSA RIBEIRO PUCCI OFICIAL DO MP UBERABA - COMARCA; UBERABA-PJ-14PJ 1.198,00 0,00 519,00 0,00 2.673,04 0,00 0,00 0,00 245,03 28/02/2022
575 1366000 ANDRESSA RODRIGUES DOS SANTOS ESTAGIARIO GUAXUPE; GUAXUPE-PJ-02PJ 0,00 0,00 0,00 189,00 0,00 0,00 0,00 0,00 0,00 28/02/2022
576 462500 ANDREZA APARECIDA COSTA E SILVA ANALISTA DO MP CONSELHEIRO LAFAIETE - COMARCA; CONSELHEIRO LAFAIETE-PJ-02PJ 1.198,00 0,00 519,00 0,00 5.800,10 0,00 0,00 0,00 531,68 28/02/2022
577 677700 ANDREZA DE LOURDES FERREIRA DE PAIVA ASSESSOR PROMOTOR JUSTICA ABRE CAMPO - COMARCA; ABRE CAMPO-PJ-01PJ 1.198,00 0,00 519,00 0,00 0,00 0,00 0,00 0,00 0,00 28/02/2022
578 537800 ANDREZZA LUZIA DE OLIVEIRA ALVES ANALISTA DO MP PATOS DE MINAS - COMARCA; COORD REG PJ DEF EDU DIR CRI ADO AL PAR NOROE 1.198,00 0,00 519,00 0,00 4.571,23 0,00 0,00 0,00 419,03 28/02/2022
579 491600 ANE PATRICIA RIBEIRO DUARTE ANALISTA DO MP SETE LAGOAS - COMARCA; SETE LAGOAS-PJ-11PJ 1.198,00 0,00 519,00 0,00 0,00 0,00 0,00 0,00 0,00 28/02/2022
580 361900 ANELISA CARDOSO RIBEIRO PROMOT.ENTRANC.ESPECIAL CONTAGEM - COMARCA; CONTAGEM-PJ-05PJ 1.198,00 0,00 1.921,37 0,00 5.614,85 0,00 0,00 0,00 514,69 28/02/2022
581 465800 ANELISE GAMA ASSESSOR BELO HORIZONTE - COMARCA; BH-18PJ VIOLENCIA DOMESTICA-SECRETARIA 1.198,00 0,00 519,00 0,00 0,00 0,00 0,00 0,00 0,00 28/02/2022
582 535200 ANELIZE FERNANDA ALVES VILARINHO OFICIAL DO MP CAPINÓPOLIS - COMARCA; CAPINOPOLIS-PJ-UNPJ 1.198,00 1.770,60 519,00 0,00 808,34 0,00 0,00 0,00 74,10 28/02/2022
583 197200 ANGELA COELHO SALDANHA OFICIAL DO MP PARÁ DE MINAS - COMARCA; PARA DE MINAS-PJ-03PJ 1.198,00 0,00 519,00 0,00 0,00 0,00 0,00 0,00 0,00 28/02/2022
584 307400 ANGELA CRISTINA GONCALVES MUNIZ ANALISTA DO MP UBERLÂNDIA - COMARCA; UBERLANDIA-PJ-SEC FAMILIA 1.198,00 0,00 519,00 0,00 0,00 0,00 0,00 0,00 0,00 28/02/2022
585 157100 ANGELA FABERO PROMOT.ENTRANC.ESPECIAL BELO HORIZONTE - COMARCA; BH-23PJ INFRACIONAL-GAB 145PJ 1.198,00 0,00 3.368,91 0,00 11.229,70 0,00 0,00 0,00 514,69 28/02/2022
586 191800 ANGELA MARIA DE OLIVEIRA OFICIAL DO MP GUARANÉSIA - COMARCA; GUARANESIA-PJ-SECRETARIA 1.198,00 0,00 519,00 0,00 0,00 0,00 0,00 0,00 0,00 28/02/2022
587 497400 ANGELA MARIA HENRIQUES ANALISTA DO MP BELO HORIZONTE - COMARCA; COORD REG BACIAS RIO VELHAS E PARAOPEBA 1.198,00 0,00 519,00 0,00 5.800,10 0,00 0,00 0,00 531,68 28/02/2022
588 54600 ANGELA MARIA PEREIRA GRAVINA PROMOT.ENTRANC.ESPECIAL JUIZ DE FORA - COMARCA; JUIZ DE FORA-PJ-11PJ 1.198,00 0,00 1.445,88 0,00 11.229,70 0,00 0,00 0,00 514,69 28/02/2022
589 260700 ANGELICA CRISTINA AZEVEDO MOREIRA MOUCO OFICIAL DO MP UBÁ - COMARCA; UBA-PJ-05PJ 1.198,00 0,00 519,00 0,00 5.412,79 0,00 0,00 0,00 496,17 28/02/2022
590 1196700 ANGELICA DE MELO ANDRADE ESTAGIARIO CONTAGEM; CONTAGEM-PJ-04PJ 0,00 0,00 0,00 144,00 0,00 0,00 0,00 0,00 0,00 28/02/2022
591 1252800 ANGELICA DE SOUZA CORTES ESTAGIARIO GOVERNADOR VALADARES; GOVERNADOR VALADARES-PJ-12PJ 0,00 0,00 0,00 99,00 0,00 0,00 0,00 0,00 0,00 28/02/2022
592 708300 ANGELICA NUNES VIEIRA DA SILVA ASSESSOR PROMOTOR JUSTICA IBIRITÉ - COMARCA; IBIRITE-PJ-02PJ 1.198,00 0,00 519,00 0,00 0,00 0,00 0,00 0,00 0,00 28/02/2022
593 334600 ANGELICA PANISSA DE FREITAS GALLATI OFICIAL DO MP GUAXUPÉ - COMARCA; GUAXUPE-PJ-02PJ 1.198,00 885,30 519,00 0,00 5.759,82 0,00 0,00 0,00 527,98 28/02/2022
594 660400 ANGELICA POLLYANA QUEIROZ DE MEDEIROS PROMOTOR 2A ENTRANCIA FRUTAL - COMARCA; FRUTAL-PJ-01PJ 1.198,00 0,00 820,10 0,00 0,00 0,00 0,00 0,00 0,00 28/02/2022
595 521100 ANGELICA SALES MOREIRA OFICIAL DO MP BELO HORIZONTE - COMARCA; BH-02PJ FAMILIA-SECRETARIA 1.198,00 0,00 519,00 0,00 3.463,84 0,00 0,00 0,00 1.036,09 28/02/2022
596 466500 ANGELLO MARQUES AGRELLI ANALISTA DO MP MAR DE ESPANHA - COMARCA; MAR DE ESPANHA-PJ-UNPJ 1.198,00 0,00 519,00 0,00 0,00 0,00 0,00 0,00 0,00 28/02/2022
597 222700 ANGELO ALEXANDRE MARZANO PROMOT.ENTRANC.ESPECIAL BELO HORIZONTE - COMARCA; BH-PJ AUXILIAR-GAB 141PJ 1.198,00 0,00 2.694,61 0,00 5.614,85 0,00 0,00 0,00 514,69 28/02/2022
598 167100 ANGELO ANSANELLI JUNIOR PROMOTOR 2A ENTRANCIA FORMIGA - COMARCA; FORMIGA-PJ-02PJ 1.198,00 0,00 3.200,47 0,00 10.668,22 0,00 0,00 0,00 488,96 28/02/2022
599 363300 ANGELO VERDOLIN HENRIQUES ANALISTA DO MP SETE LAGOAS - COMARCA; SETE LAGOAS-PJ-04PJ 1.198,00 0,00 519,00 0,00 5.628,28 0,00 0,00 0,00 515,93 28/02/2022
600 267600 ANIBAL TAMAOKI PROMOT.ENTRANC.ESPECIAL BELO HORIZONTE - COMARCA; BH-18PJ VIOLENCIA DOMESTICA-GAB 053PJ 1.198,00 0,00 984,12 0,00 5.614,85 0,00 0,00 0,00 514,69 28/02/2022
601 250900 ANISIO APARECIDO SANTOS OFICIAL DO MP BETIM - COMARCA; BETIM - SECRETARIA DAS PJS CRIMINAIS 1.198,00 0,00 519,00 0,00 0,00 0,00 0,00 0,00 0,00 28/02/2022
602 651200 ANITA MARIA SANT ANA DE MATTOS FONTES OFICIAL DO MP ERVÁLIA - COMARCA; ERVALIA-PJ-UNPJ 1.198,00 0,00 519,00 0,00 3.193,01 0,00 0,00 0,00 292,69 28/02/2022
603 1256500 ANNA CAROLINA BARBOSA METZKER ESTAGIARIO POCOS DE CALDAS; POCOS DE CALDAS-PJ-06PJ 0,00 0,00 0,00 90,00 0,00 0,00 0,00 0,00 0,00 28/02/2022
604 1183400 ANNA CAROLINA DE SENNA BARCANTE ESTAGIARIO FORMIGA; FORMIGA-PJ-04PJ 0,00 0,00 0,00 162,00 0,00 0,00 0,00 0,00 0,00 28/02/2022
605 698100 ANNA CAROLINA POLICARIO BERTOLIN ASSESSOR PROCURADOR JUSTICA BELO HORIZONTE - COMARCA; PROC. JUSTICA DIR. DIFUSOS E COLETIVOS-SEC 1.198,00 0,00 519,00 0,00 0,00 0,00 0,00 0,00 0,00 28/02/2022
606 1330700 ANNA CAROLINE GEMIMA FERREIRA PEREIRA ESTAGIARIO UBERABA; UBERABA-PJ-08PJ 0,00 0,00 0,00 189,00 0,00 0,00 0,00 0,00 0,00 28/02/2022
607 253400 ANNA FLAVIA LEHMAN DIRETOR/ANALISTA BELO HORIZONTE - COMARCA; SUPRIN DE PLANEJAMENTO E COORDENACAO 1.198,00 0,00 519,00 0,00 5.589,79 0,00 0,00 0,00 512,40 28/02/2022
608 1372100 ANNA LARA FERREIRA ESTAGIARIO PARA DE MINAS; PARA DE MINAS-PJ-05PJ 0,00 0,00 0,00 180,00 0,00 0,00 0,00 0,00 0,00 28/02/2022
609 1277800 ANNA LUISA BRAZ RODRIGUES ESTAGIARIO BELO HORIZONTE; BH-02PJ FAMILIA-GAB 027PJ
610 1395600 ANNA LUISA FERREIRA DE OLIVEIRA ESTAGIARIO CONTAGEM; CONTAGEM - 25ª PROMOTORIA DE JUSTIÇA - NÃO IN 0,00 0,00 0,00 81,00 0,00 0,00 0,00 0,00 0,00 28/02/2022
611 1190300 ANNA LUISA MARTINS NOGUEIRA ESTAGIARIO LAGOA SANTA; LAGOA SANTA - 03ª PJ 0,00 0,00 0,00 189,00 0,00 0,00 0,00 0,00 0,00 28/02/2022
612 688800 ANNA LUIZA MATTOS DUARTE ASSESSOR PROCURADOR JUSTICA BELO HORIZONTE - COMARCA; GABINETE DE PROCURADOR DE JUSTIÇA - SALA 305 1.198,00 0,00 519,00 0,00 0,00 0,00 0,00 0,00 0,00 28/02/2022
613 1269400 ANNA LUIZA VIRTUOSO ESTAGIARIO IPATINGA; IPATINGA-PJ-10PJ 0,00 0,00 0,00 171,00 0,00 0,00 0,00 0,00 0,00 28/02/2022
614 1247700 ANNA RAFAELA LESSA DA SILVA ESTAGIARIO ITUIUTABA; ITUIUTABA-PJ-04PJ 0,00 0,00 0,00 90,00 0,00 0,00 0,00 0,00 0,00 28/02/2022
615 1230900 ANNE CAROLINE DASSUMPCAO FONSECA ESTAGIARIO DIVINOPOLIS; DIVINOPOLIS-PJ-03PJ 0,00 0,00 0,00 72,00 0,00 0,00 0,00 0,00 0,00 28/02/2022
616 1307500 ANNELISE GIOVANNA DE ANDRADE ESTAGIARIO BELO HORIZONTE; BH-08PJ JUIZADO ESPECIAL-GAB 163PJ 0,00 0,00 0,00 180,00 0,00 0,00 0,00 0,00 0,00 28/02/2022
617 447600 ANNGELUCE ALCANTARA DE CAMPOS OFICIAL DO MP DIVINÓPOLIS - COMARCA; DIVINOPOLIS-PJ-SECRETARIA 1.198,00 0,00 519,00 0,00 3.921,84 0,00 0,00 0,00 359,50 28/02/2022
618 119600 ANSELMO BORGES PARREIRAS OFICIAL DO MP BONFIM - COMARCA; BONFIM-PJ-UNPJ 1.198,00 0,00 519,00 0,00 0,00 0,00 0,00 0,00 0,00 28/02/2022
619 630300 ANTONIA GOMES RAMALHO OFICIAL DO MP NOVO CRUZEIRO - COMARCA; NOVO CRUZEIRO-PJ-UNPJ 1.198,00 1.770,60 519,00 0,00 0,00 0,00 0,00 0,00 0,00 28/02/2022
620 73100 ANTONIO AURELIO SANTOS PROCURADOR DE JUSTICA BELO HORIZONTE - COMARCA; CAO-CONFLITOS AGRARIOS 1.198,00 0,00 2.811,76 0,00 11.820,74 0,00 0,00 0,00 541,78 28/02/2022
621 157300 ANTONIO BORGES DA SILVA PROMOTOR 2A ENTRANCIA SÃO LOURENÇO - COMARCA; SAO LOURENCO-PJ-02PJ 1.198,00 0,00 3.200,47 0,00 10.668,22 0,00 0,00 0,00 488,96 28/02/2022
622 401600 ANTONIO CARLOS GUEDES AROUCA ANALISTA DO MP BELO HORIZONTE - COMARCA; ASSESSORIA JURIDICO-ADMINISTRATIVA 1.198,00 0,00 519,00 0,00 0,00 0,00 0,00 0,00 0,00 28/02/2022
623 1298900 ANTONIO DE OLIVEIRA SOUZA JUNIOR ESTAGIARIO UBERLANDIA; UBERLANDIA-PJ-24PJ 0,00 0,00 0,00 180,00 0,00 0,00 0,00 0,00 0,00 28/02/2022
624 76600 ANTONIO DE PADOVA MARCHI JUNIOR PROCURADOR DE JUSTICA BELO HORIZONTE - COMARCA; GABINETE DE PROCURADOR DE JUSTIÇA - SALA 1006 1.198,00 0,00 3.046,09 0,00 11.820,74 0,00 0,00 0,00 541,78 28/02/2022
625 101900 ANTONIO DIAS MAIA PROCURADOR DE JUSTICA BELO HORIZONTE - COMARCA; GABINETE DE PROCURADOR DE JUSTIÇA - SALA 808 1.198,00 0,00 2.949,13 0,00 8.274,52 0,00 0,00 0,00 541,78 28/02/2022
626 84600 ANTONIO DIOGO DA ROCHA PROMOTOR 1A ENTRANCIA BOTELHOS - COMARCA; BOTELHOS-PJ-UNPJ 1.198,00 0,00 2.811,76 0,00 0,00 0,00 0,00 0,00 0,00 28/02/2022
627 333900 ANTONIO GONCALVES DE SOUZA FILHO OFICIAL DO MP BELO HORIZONTE - COMARCA; DIRETORIA DE CONTABILIDADE 1.198,00 0,00 519,00 0,00 0,00 0,00 0,00 0,00 0,00 28/02/2022
628 340600 ANTONIO HENRIQUE FRANCO LOPES PROMOT.ENTRANC.ESPECIAL BELO HORIZONTE - COMARCA; ASSESSORIA ESPECIAL-GABINETE DOS ASSESSORES 1.198,00 0,00 1.874,51 0,00 16.844,55 0,00 0,00 0,00 514,69 28/02/2022
629 67600 ANTONIO JOAQUIM SCHELLENBERGER FERNANDES PROCURADOR DE JUSTICA BELO HORIZONTE - COMARCA; PROC JUSTICA DIR DIFUSOS E COLETIVOS-GAB004 1.198,00 0,00 3.546,22 0,00 11.820,74 0,00 0,00 0,00 541,78 28/02/2022
630 77300 ANTONIO JOSE CHINELATO PROCURADOR DE JUSTICA BELO HORIZONTE - COMARCA; GABINETE DE PROCURADOR DE JUSTIÇA - SALA 1008 1.198,00 0,00 0,00 0,00 11.820,74 0,00 0,00 0,00 541,78 28/02/2022
631 211800 ANTONIO JOSE DE OLIVEIRA PROMOTOR 2A ENTRANCIA PASSOS - COMARCA; PASSOS-PJ-06PJ 1.198,00 0,00 3.200,47 0,00 11.735,04 0,00 0,00 0,00 488,96 28/02/2022
632 1383200 ANTONIO LOPES DAS CHAGAS ESTAGIARIO CARATINGA; CARATINGA-PJ-03PJ 0,00 0,00 0,00 180,00 0,00 0,00 0,00 0,00 0,00 28/02/2022
633 1272200 ANTONIO MANOEL SANTOS DA SILVA ESTAGIARIO BELO HORIZONTE; GABINETE DE PROCURADOR DE JUSTIÇA - SALA 414 0,00 0,00 0,00 153,00 0,00 0,00 0,00 0,00 0,00 28/02/2022
634 176100 ANTONIO MARCELO CAMPOS CAMPANELLA OFICIAL DO MP BELO HORIZONTE - COMARCA; COORD DE GABINETE DO PGJ 1.198,00 0,00 519,00 0,00 0,00 0,00 0,00 0,00 0,00 28/02/2022
635 1311500 ANTONIO MARZOLA PEREIRA JUNIOR ESTAGIARIO MACHADO; MACHADO-PJ-02PJ 0,00 0,00 0,00 189,00 0,00 0,00 0,00 0,00 0,00 28/02/2022
636 1308500 ANTONIO MAURICIO DA SILVA JUNIOR ESTAGIARIO MONTES CLAROS; COORD REG BACIA RIOS VERDE GRANDE E PARDO 0,00 0,00 0,00 18,00 144,60 0,00 0,00 0,00 0,00 28/02/2022
637 321001 ANTONIO OLINTO VIEIRA MACHADO ANALISTA DO MP BELO HORIZONTE - COMARCA; CENTRAL DE APOIO TECN-SETOR DE MEIO AMBIENTE 1.198,00 0,00 519,00 0,00 5.679,61 0,00 0,00 0,00 520,63 28/02/2022
638 356200 ANTONIO PAULA DA SILVA OFICIAL DO MP JUIZ DE FORA - COMARCA; JUIZ DE FORA-PJ-20PJ 1.198,00 0,00 519,00 0,00 5.893,49 0,00 0,00 0,00 540,24 28/02/2022
639 63400 ANTONIO PEDRO DA SILVA MELO PROMOT.ENTRANC.ESPECIAL SÃO JOÃO DEL REI - COMARCA; SAO JOAO DEL REI-PJ-01PJ 1.198,00 0,00 2.811,76 0,00 11.229,70 0,00 0,00 0,00 514,69 28/02/2022
640 119900 ANTONIO RODRIGUES DE PINHO OFICIAL DO MP GUANHÃES - COMARCA; GUANHAES-PJ-01PJ 1.198,00 0,00 519,00 0,00 5.192,49 0,00 0,00 0,00 475,98 28/02/2022
641 373300 ANTONIO SERGIO ANANIAS OFICIAL DO MP SÃO JOÃO NEPOMUCENO - COMARCA; SAO JOAO NEPOMUCENO-PJ-01PJ 1.198,00 0,00 519,00 0,00 0,00 0,00 0,00 0,00 0,00 28/02/2022
642 93500 ANTONIO SERGIO ROCHA DE PAULA PROCURADOR DE JUSTICA BELO HORIZONTE - COMARCA; PROC JUSTICA DIR DIFUSOS E COLETIVOS-GAB003 1.198,00 0,00 3.546,22 0,00 11.820,74 0,00 0,00 0,00 541,78 28/02/2022
643 68700 ANTONIO SERGIO TONET PROCURADOR DE JUSTICA BELO HORIZONTE - COMARCA; GABINETE DE PROCURADOR DE JUSTIÇA - SALA 913 1.198,00 0,00 1.851,08 0,00 10.638,67 0,00 0,00 0,00 541,78 28/02/2022
644 608100 ANTONIO SIDINEY VIEIRA LEMOS ANALISTA DO MP PIRAPORA - COMARCA; PIRAPORA-PJ-01PJ 1.198,00 0,00 519,00 0,00 5.634,51 0,00 0,00 0,00 516,50 28/02/2022
645 374700 ANTONIO SILVA NETO OFICIAL DO MP BELO HORIZONTE - COMARCA; GAECO - SECRETARIA 1.198,00 885,30 519,00 0,00 0,00 0,00 0,00 0,00 0,00 28/02/2022
646 636700 ANTONIUS VITORIANO FERNANDES OFICIAL DO MP BELO HORIZONTE - COMARCA; ASSESSORIA JURIDICA DO PROCON-MG 1.198,00 0,00 519,00 0,00 0,00 0,00 0,00 0,00 0,00 28/02/2022
647 1188100 ANY KARLA DE SOUZA GOMES SANTOS ESTAGIARIO MEDINA; MEDINA-PJ-UNPJ 0,00 0,00 0,00 153,00 0,00 0,00 0,00 0,00 0,00 28/02/2022
648 413200 ANY PEREIRA SILVA ANALISTA DO MP TRÊS PONTAS - COMARCA; TRES PONTAS-PJ-01PJ 1.198,00 0,00 519,00 0,00 5.620,98 0,00 0,00 0,00 515,26 28/02/2022
649 151401 APARECIDA DE FATIMA MENDES DE ALMEIDA ASSESSOR JUIZ DE FORA - COMARCA; JUIZ DE FORA-PJ-SECRETARIA 1.198,00 0,00 519,00 0,00 0,00 0,00 0,00 0,00 0,00 28/02/2022
650 329300 APARECIDA MARIA MELO DE ASSIS OFICIAL DO MP BELO HORIZONTE - COMARCA; BH-18PJ DIREITOS HUMANOS-SECRETARIA 1.198,00 0,00 519,00 0,00 0,00 0,00 0,00 0,00 0,00 28/02/2022
651 475300 APARECIDA MARLENE FREIRE ROSA ANALISTA DO MP BELO HORIZONTE - COMARCA; BH-02PJ FAMILIA-SECRETARIA 1.198,00 0,00 519,00 0,00 0,00 0,00 0,00 0,00 0,00 28/02/2022
652 653000 APARECIDA ROSA DE LIMA ASSESSOR BELO HORIZONTE - COMARCA; SECRETARIA PROCESSOS DISCIPES ADMINISTRATIVOS 1.198,00 0,00 519,00 0,00 2.287,74 0,00 0,00 0,00 209,71 28/02/2022
653 354500 APARECIDA VIEIRA DE CARVALHO OFICIAL DO MP BELO HORIZONTE - COMARCA; DIVISÃO DE EDUCAÇÃO PARA O CONSUMO 1.198,00 0,00 519,00 0,00 4.526,15 0,00 0,00 0,00 414,90 28/02/2022
654 551000 ARACELES BICALHO FELIX ANALISTA DO MP MANHUAÇU - COMARCA; MANHUACU-PJ-02PJ 1.198,00 0,00 519,00 0,00 0,00 0,00 0,00 0,00 0,00 28/02/2022
655 286200 ARACELI MEDRADO DOS SANTOS LIMA OFICIAL DO MP PARACATU - COMARCA; PARACATU-PJ-03PJ 1.198,00 0,00 519,00 0,00 0,00 0,00 0,00 0,00 0,00 28/02/2022
656 112200 ARAQUEM AUGUSTO DE MATOS AGENTE DO MP BELO HORIZONTE - COMARCA; BH-23PJ CIVEL-SEC EXP CIVEIS 1.198,00 0,00 519,00 0,00 0,00 0,00 0,00 0,00 0,00 28/02/2022
657 280600 ARDUINO FRATTEZI ANALISTA DO MP BELO HORIZONTE - COMARCA; CENTRAL DE APOIO TECNICO-SETOR CONTABIL 1.198,00 0,00 519,00 0,00 5.648,25 0,00 0,00 0,00 517,76 28/02/2022
658 67700 ARESLAN EUSTAQUIO MARTINS PROMOTOR 1A ENTRANCIA CARMO DA MATA - COMARCA; CARMO DA MATA-PJ-UNPJ 1.198,00 0,00 3.040,44 0,00 5.067,40 0,00 0,00 0,00 464,51 28/02/2022
659 520201 ARIANE DE FATIMA CARVALHO ALMEIDA RODRIGUES ANALISTA DO MP VESPASIANO - COMARCA; VESPASIANO-PJ-SECRETARIA 1.198,00 1.327,95 519,00 0,00 0,00 0,00 0,00 0,00 0,00 28/02/2022
660 1336800 ARIANE MAGALHAES DE PAULA GALDINO ESTAGIARIO CORONEL FABRICIANO; CORONEL FABRICIANO-PJ-02PJ 0,00 0,00 0,00 126,00 0,00 0,00 0,00 0,00 0,00 28/02/2022
661 1261600 ARIANE SOUZA MAGALHAES ESTAGIARIO IPATINGA; IPATINGA-PJ-11PJ 0,00 0,00 0,00 189,00 0,00 0,00 0,00 0,00 0,00 28/02/2022
662 537600 ARIELA FREIRE MONTIJO ANALISTA DO MP ARCOS - COMARCA; ARCOS-PJ-01PJ 1.198,00 885,30 519,00 0,00 0,00 0,00 0,00 0,00 0,00 28/02/2022
663 1219500 ARIELI MALTA DE OLIVEIRA ESTAGIARIO CATAGUASES; CATAGUASES-PJ-05PJ 0,00 0,00 0,00 189,00 0,00 0,00 0,00 0,00 0,00 28/02/2022
664 182000 ARILSON ALEXANDRE MARTINS MAGALHAES OFICIAL DO MP JOÃO MONLEVADE - COMARCA; JOAO MONLEVADE-PJ-01PJ 1.198,00 1.770,60 519,00 0,00 5.497,93 0,00 0,00 0,00 503,98 28/02/2022
665 511000 ARISLANE CAROLINA DA SILVA ANALISTA DO MP MONTE CARMELO - COMARCA; MONTE CARMELO-PJ-02PJ 1.198,00 1.770,60 519,00 0,00 0,00 0,00 0,00 0,00 0,00 28/02/2022
666 212000 ARLEN DE OLIVEIRA FERNANDES PROMOT.ENTRANC.ESPECIAL BELO HORIZONTE - COMARCA; BH-12PJ JUIZO CRIMINAL-GAB 098PJ 1.198,00 0,00 3.368,91 0,00 11.229,70 0,00 0,00 0,00 514,69 28/02/2022
667 170000 ARLEY BRITES DA SILVA ASSESSOR BELO HORIZONTE - COMARCA; BH-14PJ DEFESA CONSUMIDOR-SECRETARIA 1.198,00 0,00 519,00 0,00 1.438,17 0,00 0,00 0,00 131,83 28/02/2022
668 120400 ARLINDO CASSIO DA CRUZ OFICIAL DO MP SÃO GONÇALO DO SAPUCAÍ - COMARCA; SAO GONCALO DO SAPUCAI-PJ-01PJ 1.198,00 0,00 519,00 0,00 5.420,20 0,00 0,00 0,00 496,85 28/02/2022
669 243700 ARLINDO MARCIO LACERDA OFICIAL DO MP CONTAGEM - COMARCA; CONTAGEM-PJ-SECRETARIA 1.198,00 0,00 519,00 0,00 0,00 0,00 1.445,27 0,00 0,00 28/02/2022
670 111900 ARNALDO ALVES SOARES PROCURADOR DE JUSTICA BELO HORIZONTE - COMARCA; GABINETE DE PROCURADOR DE JUSTIÇA - SALA 306 1.198,00 0,00 3.546,22 0,00 5.910,37 0,00 0,00 0,00 0,00 28/02/2022
671 392100 ARNALDO DE ANDRADE OFICIAL DO MP DIVINÓPOLIS - COMARCA; DIVINOPOLIS-PJ-02PJ 1.198,00 885,30 519,00 0,00 5.962,36 0,00 1.445,27 0,00 546,55 28/02/2022
672 75900 ARNALDO GOMES RIBEIRO PROCURADOR DE JUSTICA BELO HORIZONTE - COMARCA; GABINETE DE PROCURADOR DE JUSTIÇA - SALA 602 1.198,00 0,00 0,00 0,00 11.820,74 0,00 0,00 0,00 541,78 28/02/2022
673 642400 ARTANE INARDE DE SIQUEIRA DAMASCENO ANALISTA DO MP BELO HORIZONTE - COMARCA; SECRETARIA DE ASSUNTOS INTERNACIONAIS 1.198,00 0,00 519,00 0,00 0,00 0,00 0,00 0,00 0,00 28/02/2022
674 1145900 ARTEMIS RIBEIRO DE NORONHA ESTAGIARIO SAO LOURENCO; SAO LOURENCO-PJ-02PJ 0,00 0,00 0,00 126,00 0,00 0,00 0,00 0,00 0,00 28/02/2022
675 1261800 ARTHUR DE LIMA SOSSAI ESTAGIARIO LAVRAS; COORD REG DO MA DA BACIA DO RIO GRANDE 0,00 0,00 0,00 45,00 0,00 0,00 0,00 0,00 0,00 28/02/2022
676 1276200 ARTHUR GONCALVES SERAFIM ESTAGIARIO PEDRO LEOPOLDO; PEDRO LEOPOLDO-PJ-03PJ 0,00 0,00 0,00 180,00 0,00 0,00 0,00 0,00 0,00 28/02/2022
677 1226900 ARTHUR JANUZZI CAPUTO GONCALVES ESTAGIARIO VICOSA; VICOSA-PJ-01PJ 0,00 0,00 0,00 36,00 0,00 0,00 0,00 0,00 0,00 28/02/2022
678 1125200 ARTHUR JOSE VIEIRA GOMES SALES ESTAGIARIO BELO HORIZONTE; GABINETE DE PROCURADOR DE JUSTIÇA - SALA 716 0,00 0,00 0,00 81,00 0,00 0,00 0,00 0,00 0,00 28/02/2022
679 1340200 ARTHUR SANTOS BRAGA ESTAGIARIO BELO HORIZONTE; CAO-FUNDACOES 0,00 0,00 0,00 144,00 0,00 0,00 0,00 0,00 0,00 28/02/2022
680 1306300 ARTUR CALDEIRA VELOSO FILHO ESTAGIARIO MONTES CLAROS; MONTES CLAROS-PJ-04PJ 0,00 0,00 0,00 189,00 0,00 0,00 0,00 0,00 0,00 28/02/2022
681 712100 ARTUR FONTE BOA TEOFILO ASSESSOR BELO HORIZONTE - COMARCA; DIRET DE ESTAGIOS E CONVENIOS ACADEMICOS 1.198,00 0,00 519,00 0,00 0,00 0,00 0,00 0,00 0,00 28/02/2022
682 221400 ARTUR FORSTER GIOVANNINI PROMOTOR 2A ENTRANCIA TRÊS PONTAS - COMARCA; TRES PONTAS-PJ-01PJ 1.198,00 0,00 3.200,47 0,00 10.668,22 0,00 0,00 0,00 488,96 28/02/2022
683 1398900 ARTUR MAIA DOS SANTOS CORREA ESTAGIARIO CARMO DO CAJURU; CARMO DO CAJURU-PJ-UNPJ 0,00 0,00 0,00 72,00 0,00 0,00 0,00 0,00 0,00 28/02/2022
684 1205000 ARTUR ROCHA RIBEIRO ESTAGIARIO BELO HORIZONTE; BH-13PJ JUIZO DE TOXICOS-GAB 164PJ 0,00 0,00 0,00 189,00 0,00 0,00 0,00 0,00 0,00 28/02/2022
685 1351100 ARTUR TAVARES PEREIRA SOARES ESTAGIARIO BELO HORIZONTE; BH-09PJ AUDITORIA MILITAR-GAB 161PJ
686 313500 ARY PEDROSA BITTENCOURT PROMOT.ENTRANC.ESPECIAL SANTA LUZIA - COMARCA; SANTA LUZIA-PJ-05PJ 1.198,00 0,00 2.225,98 0,00 11.229,70 0,00 0,00 0,00 514,69 28/02/2022
687 1252100 ARYELLE GONCALVES RODRIGUES SILVA ESTAGIARIO CLAUDIO; CLAUDIO-PJ-UNPJ 0,00 0,00 0,00 171,00 0,00 0,00 0,00 0,00 0,00 28/02/2022
688 1307900 ATENAS CRISTINI DE LACERDA E RODRIGUES ESTAGIARIO VICOSA; VICOSA-PJ-02PJ 0,00 0,00 0,00 135,00 241,00 0,00 0,00 0,00 0,00 28/02/2022
689 315700 ATHAIDE FRANCISCO PERES OLIVEIRA PROMOTOR 2A ENTRANCIA UNAÍ - COMARCA; UNAI-PJ-01PJ 1.198,00 0,00 3.200,47 0,00 0,00 0,00 0,00 0,00 0,00 28/02/2022
690 1181000 AUGUSTO CARMACIO ESTAGIARIO VARGINHA; COORD REG PJ DEF EDUC DIR CRIANCA ADOL SUL 0,00 0,00 0,00 126,00 0,00 0,00 0,00 0,00 0,00 28/02/2022
691 1304600 AUGUSTO JOSE SAD PEREIRA GOMES ESTAGIARIO CATAGUASES; CATAGUASES-PJ-02PJ 0,00 0,00 0,00 189,00 0,00 0,00 0,00 0,00 0,00 28/02/2022
692 702900 AUGUSTO PENA FIGUEIREDO CAPITAO BELO HORIZONTE - COMARCA; NUCLEO DE OPERACOES DE SEGURANCA DE PESSOAL 1.198,00 0,00 0,00 0,00 0,00 0,00 0,00 0,00 702,66 28/02/2022
693 666600 AUGUSTO REIS BALLARDIM PROMOTOR 1A ENTRANCIA ITAMARANDIBA - COMARCA; ITAMARANDIBA-PJ-UNPJ 1.198,00 0,00 1.546,48 0,00 5.067,40 0,00 0,00 0,00 464,51 28/02/2022
694 1374600 AUGUSTO RODRIGUES DOS SANTOS ALVES ESTAGIARIO BELO HORIZONTE; GABINETE DE PROCURADOR DE JUSTIÇA - SALA 605
695 302100 AUGUSTO ROUSSEAU DE CASTRO ANALISTA DO MP CATAGUASES - COMARCA; CATAGUASES-PJ-02PJ 1.198,00 0,00 519,00 0,00 5.871,88 0,00 0,00 0,00 538,26 28/02/2022
696 540200 AUREA AVELAR BITTENCOURT OFICIAL DO MP BELO HORIZONTE - COMARCA; GRUPO ESP PROM JUST DEF PROB ADM PAT PUB 1.198,00 0,00 519,00 0,00 0,00 0,00 0,00 0,00 0,00 28/02/2022
697 633501 AUREA GONTIJO BIRCHAL ASSESSOR BELO HORIZONTE - COMARCA; PROCURADOR-GERAL DE JUSTIÇA 1.198,00 0,00 519,00 0,00 0,00 0,00 0,00 0,00 0,00 28/02/2022
698 1286700 AUREA MARIA MILWARD PORTUGAL FLAMINI ESTAGIARIO INHAPIM; INHAPIM-PJ-02PJ 0,00 0,00 0,00 135,00 0,00 0,00 0,00 0,00 0,00 28/02/2022
699 183200 AURELIANO MAGELA DE REZENDE COORDENADOR/OFICIAL BELO HORIZONTE - COMARCA; COORD DE GABINETE DO PGJ 1.198,00 0,00 519,00 0,00 5.049,00 0,00 0,00 0,00 462,83 28/02/2022
700 106500 AVAIDE MARCOS MARIANO PROMOT.ENTRANC.ESPECIAL UBERLÂNDIA - COMARCA; UBERLANDIA-PJ-13PJ 1.198,00 0,00 1.405,88 0,00 16.844,55 0,00 0,00 0,00 514,69 28/02/2022
701 629400 AYESKA DA COSTA VAL MOURA DABIEN OFICIAL DO MP BELO HORIZONTE - COMARCA; BH-09PJ AUDITORIA MILITAR-SECRETARIA 1.198,00 0,00 519,00 0,00 0,00 0,00 0,00 0,00 0,00 28/02/2022
702 151800 AYLOR LUIZ MEIRELLES JUNIOR PROMOTOR 2A ENTRANCIA SÃO DOMINGOS DO PRATA - COMARCA; SAO DOMINGOS DO PRATA-PJ-UNPJ 1.198,00 0,00 2.577,46 0,00 16.002,33 0,00 0,00 0,00 488,96 28/02/2022
703 707400 AYMEE JOHANSSENN TYNEE CORREIA ALVES ASSESSOR PROMOTOR JUSTICA NOVA LIMA - COMARCA; NOVA LIMA-PJ-01PJ 1.198,00 0,00 519,00 0,00 0,00 0,00 0,00 0,00 0,00 28/02/2022
704 1231000 BARBARA ALEXANDRA DA SILVA ESTAGIARIO LIMA DUARTE; LIMA DUARTE-PJ-UNPJ 0,00 0,00 0,00 90,00 0,00 0,00 0,00 0,00 0,00 28/02/2022
705 1261300 BARBARA APARECIDA RODRIGUES DE CASTRO ESTAGIARIO MARTINHO CAMPOS; MARTINHO CAMPOS-PJ-UNPJ 0,00 0,00 0,00 162,00 0,00 0,00 0,00 0,00 0,00 28/02/2022
706 1323400 BARBARA ARANTES NASCIMENTO SOUZA ESTAGIARIO CRUZILIA; CRUZILIA-PJ-UNPJ 0,00 0,00 0,00 189,00 0,00 0,00 0,00 0,00 0,00 28/02/2022
707 1358500 BARBARA ASSENCAO DA SILVA FARIA ESTAGIARIO BELO HORIZONTE; COORD COMB RACISMO E TODA FORM DISCRIM 0,00 0,00 0,00 63,00 0,00 0,00 0,00 0,00 0,00 28/02/2022
708 1276600 BARBARA CAROLINE SOARES LEONARDO ESTAGIARIO IPATINGA; IPATINGA-PJ-09PJ 0,00 0,00 0,00 99,00 0,00 0,00 0,00 0,00 0,00 28/02/2022
709 701600 BARBARA CHAVES OLIVEIRA ASSESSOR PROCURADOR JUSTICA BELO HORIZONTE - COMARCA; PROC. JUSTICA DIR. DIFUSOS E COLETIVOS-SEC 1.198,00 0,00 519,00 0,00 0,00 0,00 0,00 0,00 0,00 28/02/2022
710 1150900 BARBARA COSTA ALVES ESTAGIARIO MONTES CLAROS; MONTES CLAROS-PJ-01PJ 0,00 0,00 0,00 135,00 0,00 0,00 0,00 0,00 0,00 28/02/2022
711 691900 BARBARA COUTINHO REIS ASSESSOR PROCURADOR JUSTICA BELO HORIZONTE - COMARCA; GABINETE DE PROCURADOR DE JUSTIÇA - SALA 912 1.198,00 0,00 519,00 0,00 0,00 0,00 0,00 0,00 0,00 28/02/2022
712 1292000 BARBARA CRISTINA DOS SANTOS BASTOS ESTAGIARIO SANTA LUZIA; SANTA LUZIA-PJ-01PJ 0,00 0,00 0,00 180,00 0,00 0,00 0,00 0,00 0,00 28/02/2022
713 692200 BARBARA CRISTINA MENDES BANDEIRA DE MELO DUTRA ASSESSOR PROCURADOR JUSTICA BELO HORIZONTE - COMARCA; GABINETE DE PROCURADOR DE JUSTIÇA - SALA 1009 1.198,00 0,00 519,00 0,00 0,00 0,00 0,00 0,00 0,00 28/02/2022
714 1134200 BARBARA DANIELA ELIAS JAQUES ESTAGIARIO PRADOS; PRADOS-PJ-UNPJ 0,00 0,00 0,00 189,00 0,00 0,00 0,00 0,00 0,00 28/02/2022
715 1118700 BARBARA DE MELO CARNEIRO ESTAGIARIO 0,00 0,00 0,00 27,00 0,00 0,00 0,00 0,00 0,00 28/02/2022
716 1168500 BARBARA DE OLIVEIRA ALVES ESTAGIARIO MANTENA; MANTENA-PJ-03PJ 0,00 0,00 0,00 90,00 0,00 0,00 0,00 0,00 0,00 28/02/2022
717 1168400 BARBARA DE SOUSA LIMA MELO ESTAGIARIO BELO HORIZONTE; PROMOT ESTADUAL DE DEF PATRI CULT E TUR DE MG 0,00 0,00 0,00 9,00 0,00 0,00 0,00 0,00 0,00 28/02/2022
718 1306500 BARBARA EVELYN LIMA CHAVES ESTAGIARIO BUENOPOLIS; BUENOPOLIS-PJ-UNPJ 0,00 0,00 0,00 189,00 0,00 0,00 0,00 0,00 0,00 28/02/2022
719 314700 BARBARA FRANCINE PRETTE NUNES PROMOTOR 1A ENTRANCIA PERDIZES - COMARCA; PERDIZES-PJ-UNPJ 1.198,00 0,00 2.656,11 0,00 5.067,40 0,00 0,00 0,00 464,51 28/02/2022
720 1240000 BARBARA FROTA RODRIGUES ESTAGIARIO BELO HORIZONTE; BH-18PJ VIOLENCIA DOMESTICA-GAB 178PJ 0,00 0,00 0,00 54,00 452,50 0,00 0,00 0,00 0,00 28/02/2022
721 1259900 BARBARA GABRIELE DE PAULA ALBERGARIA ESTAGIARIO PONTE NOVA; PONTE NOVA-PJ-01PJ 0,00 0,00 0,00 162,00 0,00 0,00 0,00 0,00 0,00 28/02/2022
722 1368200 BARBARA ISABELY LIMA OLIVEIRA ESTAGIARIO BELO HORIZONTE; BH-18PJ DIREITOS HUMANOS-GAB 183PJ 0,00 0,00 0,00 171,00 0,00 0,00 0,00 0,00 0,00 28/02/2022
723 652800 BARBARA JULIANNE MOREIRA CASTRO ASSESSOR PROCURADOR JUSTICA BELO HORIZONTE - COMARCA; ASSESS TECNICO-JUR JUNTO AS PROC. DE JUST 1.198,00 0,00 519,00 0,00 0,00 0,00 0,00 0,00 0,00 28/02/2022
724 707700 BARBARA LOUISE PUFF DE OLIVEIRA ASSESSOR PROMOTOR JUSTICA RIBEIRÃO DAS NEVES - COMARCA; RIBEIRAO DAS NEVES-PJ-02PJ 1.198,00 0,00 519,00 0,00 0,00 0,00 0,00 0,00 0,00 28/02/2022
725 1325300 BARBARA MARCONDES DOS REIS ESTAGIARIO ANDRADAS; ANDRADAS-PJ-01PJ 0,00 0,00 0,00 171,00 0,00 0,00 0,00 0,00 0,00 28/02/2022
726 666500 BARBARA MARTINS DE SOUZA PROMOTOR 2A ENTRANCIA MANTENA - COMARCA; MANTENA-PJ-02PJ 1.198,00 0,00 3.200,47 0,00 10.668,22 0,00 0,00 0,00 488,96 28/02/2022
727 1168100 BARBARA MIRANDA MEDRADO DE SOUZA ESTAGIARIO BELO HORIZONTE; BH-18PJ DIREITOS HUMANOS 0,00 0,00 0,00 81,00 0,00 0,00 0,00 0,00 0,00 28/02/2022
728 1270000 BARBARA MOREIRA MARTINS ESTAGIARIO GOVERNADOR VALADARES; COOR REG APOIO COM INC MOB VALE DO RIO DOCE 0,00 0,00 0,00 189,00 0,00 0,00 0,00 0,00 0,00 28/02/2022
729 1206200 BARBARA PORTES BRAGA ESTAGIARIO BELO HORIZONTE; GABINETE DE PROCURADOR DE JUSTIÇA - SALA 602 0,00 0,00 0,00 81,00 0,00 0,00 0,00 0,00 0,00 28/02/2022
730 663600 BARBARA REGINA PEREIRA DE PINHO MAGALHAES ASSESSOR PROMOTOR JUSTICA BELO HORIZONTE - COMARCA; CAO-DH CONT EXT ATIV POLIC E AP COMUNIT 1.198,00 0,00 519,00 0,00 0,00 0,00 0,00 0,00 0,00 28/02/2022
731 685500 BARBARA RODRIGUES DE PAULA PROMOTOR SUBSTITUTO GOVERNADOR VALADARES - COMARCA; GOVERNADOR VALADARES-PJ-10PJ 1.198,00 0,00 656,08 0,00 5.067,40 0,00 0,00 0,00 464,51 28/02/2022
732 692400 BARBARA SOUZA OLIVEIRA ASSESSOR PROMOTOR JUSTICA DIVINO - COMARCA; DIVINO-PJ-UNPJ 1.198,00 0,00 519,00 0,00 0,00 0,00 0,00 0,00 0,00 28/02/2022
733 546500 BARBARA ZACARONI GOULART OFICIAL DO MP BETIM - COMARCA; BETIM-PJ-08PJ 1.198,00 0,00 519,00 0,00 0,00 0,00 0,00 0,00 0,00 28/02/2022
734 316500 BEATRIZ ABILVIA DA SILVA ANALISTA DO MP GOVERNADOR VALADARES - COMARCA; GOVERNADOR VALADARES-PJ-07PJ 1.198,00 0,00 519,00 0,00 5.433,14 0,00 0,00 0,00 498,04 28/02/2022
735 311800 BEATRIZ APARECIDA SOARES GANEM OFICIAL DO MP ITAMBACURI - COMARCA; ITAMBACURI-PJ-02PJ 1.198,00 0,00 519,00 0,00 5.582,76 0,00 0,00 0,00 511,75 28/02/2022
736 266800 BEATRIZ AUGUSTA VILACA GOMES DE HUBER OFICIAL DO MP BELO HORIZONTE - COMARCA; BH-05PJ-JUÍZO SUCESSÕES-SEC 1.198,00 0,00 519,00 0,00 0,00 0,00 0,00 0,00 0,00 28/02/2022
737 1122400 BEATRIZ BIANCO HELENA ESTAGIARIO POCOS DE CALDAS; POCOS DE CALDAS-PJ-01PJ 0,00 0,00 0,00 54,00 771,20 0,00 0,00 0,00 0,00 28/02/2022
738 235200 BEATRIZ BOTELHO BATISTA OFICIAL DO MP BELO HORIZONTE - COMARCA; BH-21PJ TUTELA FUNDACOES-SECRETARIA 1.198,00 0,00 519,00 0,00 0,00 0,00 0,00 0,00 0,00 28/02/2022
739 1321300 BEATRIZ FERREIRA GUERRA ESTAGIARIO BELO HORIZONTE; BH-12PJ JUIZO CRIMINAL-GAB 093PJ 0,00 0,00 0,00 117,00 0,00 0,00 0,00 0,00 0,00 28/02/2022
740 1303100 BEATRIZ FONSECA FELICE BRASIL ESTAGIARIO UBERLANDIA; UBERLANDIA-PJ-03PJ 0,00 0,00 0,00 153,00 0,00 0,00 0,00 0,00 0,00 28/02/2022
741 182300 BEATRIZ PAULA SOUSA RAMOS OFICIAL DO MP MARIANA - COMARCA; MARIANA-PJ-01PJ 1.198,00 0,00 519,00 0,00 5.497,93 0,00 0,00 0,00 503,98 28/02/2022
742 1314100 BEATRIZ PAULINO DE FREITAS ESTAGIARIO CALDAS; CALDAS-PJ-UNPJ 0,00 0,00 0,00 117,00 0,00 0,00 0,00 0,00 0,00 28/02/2022
743 1359900 BEATRIZ PEREIRA LAMBOGLIA ESTAGIARIO UBERABA; UBERABA-PJ-13PJ 0,00 0,00 0,00 99,00 0,00 0,00 0,00 0,00 0,00 28/02/2022
744 1376100 BEATRIZ PORTO DOMINGUITO ESTAGIARIO VARGINHA; VARGINHA-PJ-06PJ 0,00 0,00 0,00 180,00 0,00 0,00 0,00 0,00 0,00 28/02/2022
745 1229800 BEATRIZ SILVA RODRIGUES ALVES ESTAGIARIO UBA; UBA-PJ-05PJ 0,00 0,00 0,00 99,00 0,00 0,00 0,00 0,00 0,00 28/02/2022
746 1376500 BELARMINA APARECIDA MENDES DE SOUZA ESTAGIARIO MORADA NOVA DE MINAS; MORADA NOVA DE MINAS-PJ-UNPJ 0,00 0,00 0,00 180,00 0,00 0,00 0,00 0,00 0,00 28/02/2022
747 507000 BELCHIOR FRANKLIN AMARAL LEITE ANALISTA DO MP BELO HORIZONTE - COMARCA; CENTRAL DE APOIO TECNICO 1.198,00 885,30 519,00 0,00 5.668,65 0,00 0,00 0,00 519,63 28/02/2022
748 345100 BENITO ELIAS RODRIGUES ANALISTA DO MP BARBACENA - COMARCA; BARBACENA - SECRETARIA DAS PJS CRIMINAIS 1.198,00 0,00 519,00 0,00 5.226,26 0,00 0,00 0,00 479,07 28/02/2022
749 207300 BENITO VIEIRA DOS SANTOS ANALISTA DO MP BELO HORIZONTE - COMARCA; PROC JUST ESP ACOES COMP ORIG CRIMINAL-ASSESS 1.198,00 0,00 519,00 0,00 5.269,64 0,00 0,00 0,00 483,05 28/02/2022
750 84700 BERGSON CARDOSO GUIMARAES PROMOT.ENTRANC.ESPECIAL BELO HORIZONTE - COMARCA; BH-21PJ TUTELA FUNDACOES-GAB 136PJ 1.198,00 0,00 3.368,91 0,00 0,00 0,00 0,00 0,00 0,00 28/02/2022
751 480200 BERNADETE NUNES DOS SANTOS ANALISTA DO MP GUANHÃES - COMARCA; GUANHAES-PJ-02PJ 1.198,00 0,00 519,00 0,00 0,00 0,00 0,00 0,00 0,00 28/02/2022
752 1240100 BERNARDO DANTAS GUIMARAES ESTAGIARIO POUSO ALEGRE; COORD REG PP SUL MINAS GERAIS POUSO ALEGRE 0,00 0,00 0,00 81,00 0,00 0,00 0,00 0,00 0,00 28/02/2022
753 456700 BERNARDO DE MOURA LIMA PAIVA JEHA PROMOTOR 2A ENTRANCIA CARMO DO PARANAÍBA - COMARCA; CARMO DO PARANAIBA-PJ-01PJ 1.198,00 0,00 3.200,47 0,00 16.002,33 0,00 0,00 0,00 488,96 28/02/2022
754 666800 BERNARDO DUMONT PIRES PROMOT.ENTRANC.ESPECIAL TEÓFILO OTONI - COMARCA; TEOFILO OTONI-PJ-02PJ 1.198,00 0,00 1.976,27 0,00 6.737,82 0,00 0,00 0,00 0,00 28/02/2022
755 1328700 BERNARDO JOSE MAIA BORGES ESTAGIARIO BELO HORIZONTE; GABINETE DE PROCURADOR DE JUSTIÇA - SALA 407 0,00 0,00 0,00 189,00 0,00 0,00 0,00 0,00 0,00 28/02/2022
756 1279900 BERNARDO RESENDE DOS SANTOS ESTAGIARIO BELO HORIZONTE; BH-13PJ JUIZO DE TOXICOS-GAB 137PJ 0,00 0,00 0,00 81,00 0,00 0,00 0,00 0,00 0,00 28/02/2022
757 74300 BERTOLDO MATEUS DE OLIVEIRA FILHO PROCURADOR DE JUSTICA BELO HORIZONTE - COMARCA; GABINETE DE PROCURADOR DE JUSTIÇA - SALA 903 1.198,00 0,00 2.694,61 0,00 0,00 0,00 0,00 0,00 0,00 28/02/2022
758 162900 BETANIA CABRAL DE PINA LARCHER PROMOT.ENTRANC.ESPECIAL CONTAGEM - COMARCA; CONTAGEM-PJ-18PJ 1.198,00 0,00 2.829,84 0,00 5.614,85 0,00 0,00 0,00 514,69 28/02/2022
759 378400 BETANIA FARNESI DE SOUZA E SILVA OFICIAL DO MP CURVELO - COMARCA; CURVELO-PJ-01PJ 1.198,00 0,00 519,00 0,00 0,00 0,00 0,00 0,00 0,00 28/02/2022
760 387400 BETANIA MENDONCA DE ASSIS CARVALHO ANALISTA DO MP JUIZ DE FORA - COMARCA; JUIZ DE FORA-PJ-03PJ 1.198,00 885,30 519,00 0,00 0,00 0,00 0,00 0,00 0,00 28/02/2022
761 1303900 BETHANIA FERREIRA E SILVA ESTAGIARIO UBERLANDIA; UBERLANDIA-PJ-10PJ 0,00 0,00 0,00 171,00 0,00 0,00 0,00 0,00 0,00 28/02/2022
762 1147500 BETHANIA MORENA RODRIGUES GOMES ESTAGIARIO RIBEIRAO DAS NEVES; RIBEIRAO DAS NEVES-PJ-10PJ 0,00 0,00 0,00 27,00 0,00 0,00 0,00 0,00 0,00 28/02/2022
763 1355000 BETHANIA PEREIRA GUALBERTO ESTAGIARIO PASSOS; PASSOS-PJ-05PJ 0,00 0,00 0,00 144,00 0,00 0,00 0,00 0,00 0,00 28/02/2022
764 1245400 BIANCA ARRUDA MOREIRA ESTAGIARIO MUTUM; MUTUM-PJ-UNPJ 0,00 0,00 0,00 144,00 0,00 0,00 0,00 0,00 0,00 28/02/2022
765 1401000 BIANCA BERNARDES DA SILVA ESTAGIARIO VARGINHA; VARGINHA-PJ-04PJ 0,00 0,00 0,00 45,00 0,00 0,00 0,00 0,00 0,00 28/02/2022
766 1192800 BIANCA CRISTINA PORTES ESTAGIARIO BARBACENA; BARBACENA-PJ-07PJ 0,00 0,00 0,00 153,00 0,00 0,00 0,00 0,00 0,00 28/02/2022
767 714400 BIANCA DE CASTRO RAMOS ASSESSOR PROMOTOR JUSTICA BETIM - COMARCA; BETIM-PJ-07PJ 1.198,00 0,00 519,00 0,00 0,00 0,00 0,00 0,00 0,00 28/02/2022
768 712700 BIANCA DE JESUS SOUZA ASSESSOR GOVERNADOR VALADARES - COMARCA; COOR REG APOIO COM INC MOB VALE DO RIO DOCE 1.198,00 0,00 519,00 0,00 0,00 0,00 0,00 0,00 0,00 28/02/2022
769 1278400 BIANCA DE SOUZA VILELA ESTAGIARIO BELO HORIZONTE; BH-13PJ JUIZO DE TOXICOS-GAB 079PJ 0,00 0,00 0,00 81,00 0,00 0,00 0,00 0,00 0,00 28/02/2022
770 1115600 BIANCA EDUARDA RIBEIRO COSTA ESTAGIARIO UBERABA; UBERABA-PJ-05PJ 0,00 0,00 0,00 9,00 1.086,00 0,00 0,00 0,00 0,00 28/02/2022
771 1293800 BIANCA GEORJUTTI VIEIRA ESTAGIARIO UBERLANDIA; UBERLANDIA-PJ-06PJ 0,00 0,00 0,00 171,00 0,00 0,00 0,00 0,00 0,00 28/02/2022
772 1278100 BIANCA LIDSEY CARVALHO PINTO ESTAGIARIO GUANHAES; GUANHAES-PJ-01PJ 0,00 0,00 0,00 72,00 0,00 0,00 0,00 0,00 0,00 28/02/2022
773 1354000 BIANCA NEVES BATISTA COSTA ESTAGIARIO BELO HORIZONTE; PROC JUST ATUACAO TRIBUNAIS SUPERIORES-GAB007 0,00 0,00 0,00 180,00 0,00 0,00 0,00 0,00 0,00 28/02/2022
774 450300 BIANCA OLIVEIRA DE ALBUQUERQUE ANALISTA DO MP BELO HORIZONTE - COMARCA; BH-10PJ EXECUÇÃO PENAL-SECRETARIA 1.198,00 885,30 519,00 0,00 0,00 0,00 0,00 0,00 0,00 28/02/2022
775 1367000 BIANCA RODRIGUES BICALHO ESTAGIARIO BELO HORIZONTE; DIR RELACOES INSTITUCIONAIS
776 535400 BIANCA SALOTO ROSSI ANALISTA DO MP SANTOS DUMONT - COMARCA; SANTOS DUMONT-PJ-01PJ 1.198,00 885,30 519,00 0,00 0,00 0,00 0,00 0,00 0,00 28/02/2022
777 1405700 BIANCA SIQUEIRA BERALDO SILVA ESTAGIARIO SILVIANOPOLIS; SILVIANOPOLIS-PJ-UNPJ 0,00 0,00 0,00 18,00 0,00 0,00 0,00 0,00 0,00 28/02/2022
778 120800 BRAS MARQUES DE SOUZA ANALISTA DO MP BELO HORIZONTE - COMARCA; SUPERINTENDENCIA DE GESTAO ADMINISTRATIVA 1.198,00 0,00 519,00 0,00 5.673,96 0,00 0,00 0,00 520,11 28/02/2022
779 1179500 BRENDA ALCANTARA RAMALHO ESTAGIARIO BETIM; BETIM-PJ-03PJ 0,00 0,00 0,00 189,00 0,00 0,00 0,00 0,00 0,00 28/02/2022
780 1373200 BRENDA BATISTA DOS SANTOS ESTAGIARIO ESTRELA DO SUL; ESTRELA DO SUL-PJ-UNPJ 0,00 0,00 0,00 162,00 0,00 0,00 0,00 0,00 0,00 28/02/2022
781 1159100 BRENDA CUSTODIO DE ABREU ESTAGIARIO CONCEICAO DAS ALAGOAS; CONCEICAO DAS ALAGOAS-PJ-01PJ 0,00 0,00 0,00 99,00 0,00 0,00 0,00 0,00 0,00 28/02/2022
782 1316700 BRENDA FAULKNER ASSIS DA SILVA ESTAGIARIO BELO HORIZONTE; BH-15PJ M AMB PAT HIST CULT-GAB 114PJ 0,00 0,00 0,00 126,00 0,00 0,00 0,00 0,00 0,00 28/02/2022
783 1204400 BRENDA GABRIELA ROCHA CRUZ ESTAGIARIO MANGA; MANGA-PJ-02PJ 0,00 0,00 0,00 171,00 0,00 0,00 0,00 0,00 0,00 28/02/2022
784 1127000 BRENDA LORENA DE ALMEIDA ESTAGIARIO CONTAGEM; CONTAGEM-PJ-09PJ 0,00 0,00 0,00 90,00 0,00 0,00 0,00 0,00 0,00 28/02/2022
785 1189700 BRENDA LORRANA FRANCO ESTAGIARIO UBERLANDIA; UBERLANDIA-PJ-20PJ 0,00 0,00 0,00 0,00 923,83 0,00 0,00 0,00 0,00 28/02/2022
786 1250300 BRENDA MOREIRA SANTOS ESTAGIARIO BELO HORIZONTE; BH-02PJ FAMILIA-GAB 018PJ
787 1179600 BRENDA SILVA ROCHA ESTAGIARIO BELO HORIZONTE; GABINETE DE PROCURADOR DE JUSTIÇA - SALA 715 0,00 0,00 0,00 9,00 0,00 0,00 0,00 0,00 0,00 28/02/2022
788 1266800 BRENDA TAVARES BRITO ESTAGIARIO PASSOS; PASSOS-PJ-03PJ 0,00 0,00 0,00 27,00 0,00 0,00 0,00 0,00 0,00 28/02/2022
789 1365100 BRENDA VIEIRA JORGE ESTAGIARIO BELO HORIZONTE; BH-23PJ INFRACIONAL-RECEPCAO 0,00 0,00 0,00 189,00 0,00 0,00 0,00 0,00 0,00 28/02/2022
790 1294100 BRENDA VITORIA SANTOS DE ALMEIDA ESTAGIARIO NOVA LIMA; NOVA LIMA-PJ-02PJ 0,00 0,00 0,00 189,00 0,00 0,00 0,00 0,00 0,00 28/02/2022
791 1242000 BRENDHA GOMES RUBERTO LIMA ESTAGIARIO MANTENA; MANTENA-PJ-02PJ 0,00 0,00 0,00 162,00 0,00 0,00 0,00 0,00 0,00 28/02/2022
792 1217200 BRENER MURILO DE BRAGANCA ESTAGIARIO MANHUACU; MANHUACU-PJ-01PJ 0,00 0,00 0,00 189,00 0,00 0,00 0,00 0,00 0,00 28/02/2022
793 710500 BRENNO VINICIUS MAGESTE ROSA ASSESSOR PROMOTOR JUSTICA MANHUAÇU - COMARCA; MANHUACU-PJ-02PJ 1.198,00 0,00 519,00 0,00 0,00 0,00 0,00 0,00 0,00 28/02/2022
794 372400 BRENO COSTA DA SILVA COELHO PROMOTOR 2A ENTRANCIA VISCONDE DO RIO BRANCO - COMARCA; GAECO REGIONAL ZONA MATA-VISCONDE RIO BRANCO 1.198,00 0,00 2.225,98 0,00 5.334,11 0,00 0,00 0,00 488,96 28/02/2022
795 460900 BRENO CRISTIANO DE SOUZA REZENDE ANALISTA DO MP ITAÚNA - COMARCA; ITAUNA-PJ-02PJ 1.198,00 0,00 519,00 0,00 0,00 0,00 0,00 0,00 0,00 28/02/2022
796 1329700 BRENO DRUMOND CHAGAS DE OLIVEIRA ESTAGIARIO BELO HORIZONTE; BH-07PJ 02 TRIBUNAL DO JURI-GAB 063PJ 0,00 0,00 0,00 54,00 0,00 0,00 0,00 0,00 0,00 28/02/2022
797 96700 BRENO LINHARES LINTZ PROMOT.ENTRANC.ESPECIAL UBERLÂNDIA - COMARCA; UBERLANDIA-PJ-10PJ 1.198,00 0,00 0,00 0,00 11.229,70 0,00 0,00 0,00 514,69 28/02/2022
798 439500 BRENO MAX DE JESUS SILVEIRA PROMOTOR 2A ENTRANCIA CARANGOLA - COMARCA; CARANGOLA-PJ-02PJ 1.198,00 0,00 984,12 0,00 10.668,22 0,00 0,00 0,00 488,96 28/02/2022
799 439300 BRENO NASCIMENTO PACHECO PROMOTOR 2A ENTRANCIA PATROCÍNIO - COMARCA; PATROCINIO-PJ-01PJ 1.198,00 0,00 3.200,47 0,00 10.668,22 0,00 0,00 0,00 488,96 28/02/2022
800 239000 BRENO VENANCIO ROMANINI OFICIAL DO MP BELO HORIZONTE - COMARCA; BH-20PJ ORD ECON TRIBUTARIA-SECRETARIA 1.198,00 0,00 519,00 0,00 0,00 0,00 0,00 0,00 0,00 28/02/2022
801 1383700 BRIGIDA CRISOSTOMO DA SILVA ESTAGIARIO CARATINGA; CARATINGA-PJ-07PJ 0,00 0,00 0,00 189,00 0,00 0,00 0,00 0,00 0,00 28/02/2022
802 1256300 BRUNA ALVES ARAUJO ESTAGIARIO CARMO DO PARANAIBA; CARMO DO PARANAIBA-PJ-02PJ 0,00 0,00 0,00 72,00 0,00 0,00 0,00 0,00 0,00 28/02/2022
803 1394600 BRUNA ANTONIETA DE OLIVEIRA VIEIRA ESTAGIARIO BELO HORIZONTE; BH-02PJ FAMILIA-GAB 028PJ
804 659300 BRUNA BODONI FACCIOLI PROMOTOR 2A ENTRANCIA NANUQUE - COMARCA; NANUQUE-PJ-01PJ 1.198,00 0,00 1.593,34 0,00 6.400,93 0,00 0,00 0,00 488,96 28/02/2022
805 1216100 BRUNA CASTANHEIRA GALINARI ESTAGIARIO BELO HORIZONTE; DIRET DE ESTAGIOS E CONVENIOS ACADEMICOS 0,00 0,00 0,00 36,00 1.013,60 0,00 0,00 0,00 0,00 28/02/2022
806 1153500 BRUNA DA CUNHA SILVA ESTAGIARIO BARBACENA; BARBACENA-PJ-04PJ 0,00 0,00 0,00 27,00 651,60 0,00 0,00 0,00 0,00 28/02/2022
807 1378300 BRUNA DE SA FERREIRA LIMA ESTAGIARIO JANUARIA; JANUARIA-PJ-01PJ 0,00 0,00 0,00 162,00 0,00 0,00 0,00 0,00 0,00 28/02/2022
808 1160000 BRUNA DEMETRIO PEREIRA ESTAGIARIO BELO HORIZONTE; BH-18PJ VIOLENCIA DOMESTICA-GAB 177PJ 0,00 0,00 0,00 162,00 0,00 0,00 0,00 0,00 0,00 28/02/2022
809 1386000 BRUNA DIAS RICALDONI ESTAGIARIO BELO HORIZONTE; ASSESSORIA TECNICA DO PROCON-MG
810 1360800 BRUNA DOS SANTOS NASCIMENTO MANDOLESI ESTAGIARIO BRASOPOLIS; BRASOPOLIS-PJ-UNPJ 0,00 0,00 0,00 63,00 0,00 0,00 0,00 0,00 0,00 28/02/2022
811 1283600 BRUNA EDUARDA GUIMARAES OLIVEIRA ESTAGIARIO BELO HORIZONTE; PROC JUST ATUACAO TRIBUNAIS SUPERIORES-GAB007 0,00 0,00 0,00 180,00 0,00 0,00 0,00 0,00 48,20 28/02/2022
812 1155000 BRUNA EVANGELISTA FERREIRA ESTAGIARIO AGUAS FORMOSAS; AGUAS FORMOSAS-PJ-UNPJ 0,00 0,00 0,00 180,00 0,00 0,00 0,00 0,00 0,00 28/02/2022
813 1384500 BRUNA FRANCA RAFAEL ESTAGIARIO BELO HORIZONTE; BH-12PJ JUIZO CRIMINAL-GAB 088PJ 0,00 0,00 0,00 162,00 0,00 0,00 0,00 0,00 0,00 28/02/2022
814 1348600 BRUNA FREIRE DE CARVALHO ESTAGIARIO BELO HORIZONTE; BH-12PJ JUIZO CRIMINAL-GAB 089PJ 0,00 0,00 0,00 117,00 0,00 0,00 0,00 0,00 0,00 28/02/2022
815 1231100 BRUNA GOMES MULLER ESTAGIARIO ITAJUBA; ITAJUBA-PJ-02PJ 0,00 0,00 0,00 117,00 0,00 0,00 0,00 0,00 0,00 28/02/2022
816 642300 BRUNA IZABELITA DE FATIMA OLIVEIRA COSTA OFICIAL DO MP BELO HORIZONTE - COMARCA; BH-02PJ FAMILIA-SECRETARIA 1.198,00 0,00 519,00 0,00 0,00 0,00 0,00 0,00 0,00 28/02/2022
817 513600 BRUNA KARLA MARTINS CARVALHO ANALISTA DO MP GOVERNADOR VALADARES - COMARCA; GOVERNADOR VALADARES-PJ-14PJ 1.198,00 0,00 519,00 0,00 5.800,10 0,00 0,00 0,00 531,68 28/02/2022
818 1330800 BRUNA LUISA PINHEIRO PINTO ESTAGIARIO ITAUNA; ITAUNA-PJ-01PJ 0,00 0,00 0,00 108,00 0,00 0,00 0,00 0,00 0,00 28/02/2022
819 1318500 BRUNA MAIARA DE JESUS BARBOSA ESTAGIARIO UBA; UBA-PJ-06PJ 0,00 0,00 0,00 189,00 0,00 0,00 0,00 0,00 0,00 28/02/2022
820 415100 BRUNA MARIA SOARES OLIVEIRA COSTA RAMOS ANALISTA DO MP UBÁ - COMARCA; COORD REG BACIA DO RIO PARAIBA DO SUL 1.198,00 0,00 519,00 0,00 0,00 0,00 0,00 0,00 0,00 28/02/2022
821 1328600 BRUNA MAYRA TERRA ESTAGIARIO VESPASIANO; VESPASIANO-PJ-05PJ 0,00 0,00 0,00 153,00 0,00 0,00 0,00 0,00 0,00 28/02/2022
822 692900 BRUNA MENDES COELHO ASSESSOR PROCURADOR JUSTICA BELO HORIZONTE - COMARCA; GABINETE DE PROCURADOR DE JUSTIÇA - SALA 801 1.198,00 0,00 519,00 0,00 0,00 0,00 0,00 0,00 0,00 28/02/2022
823 470000 BRUNA MORAES ANALISTA DO MP TOMBOS - COMARCA; TOMBOS-PJ-UNPJ 1.198,00 0,00 519,00 0,00 5.443,76 0,00 0,00 0,00 499,01 28/02/2022
824 1388300 BRUNA MORAIS DE SOUZA ESTAGIARIO ITABIRA; ITABIRA-PJ-02PJ 0,00 0,00 0,00 126,00 0,00 0,00 0,00 0,00 0,00 28/02/2022
825 1199500 BRUNA NATHANY OLIVEIRA MELO ESTAGIARIO UNAI; UNAI-PJ-01PJ 0,00 0,00 0,00 180,00 0,00 0,00 0,00 0,00 0,00 28/02/2022
826 614700 BRUNA NATTANY DE LIMA OFICIAL DO MP MANTENA - COMARCA; MANTENA-PJ-01PJ 1.198,00 885,30 519,00 0,00 782,86 0,00 0,00 0,00 71,76 28/02/2022
827 1150200 BRUNA PAULA RODRIGUES VASCONCELOS ESTAGIARIO UBERLANDIA; UBERLANDIA-PJ-02PJ 0,00 0,00 0,00 153,00 0,00 0,00 0,00 0,00 0,00 28/02/2022
828 1361800 BRUNA PERFEITO MARTINS BELLO ESTAGIARIO BELO HORIZONTE; GABINETE DE PROCURADOR DE JUSTIÇA - SALA 412 0,00 0,00 0,00 9,00 0,00 0,00 0,00 0,00 0,00 28/02/2022
829 693300 BRUNA RAMONY ROCHA DA CRUZ ASSESSOR PROMOTOR JUSTICA JAIBA - COMARCA; JAIBA-PJ-UNPJ 1.198,00 0,00 519,00 0,00 1.437,54 0,00 0,00 0,00 131,77 28/02/2022
830 631800 BRUNA RAPOSO JORGE OFICIAL DO MP JUIZ DE FORA - COMARCA; JUIZ DE FORA-PJ-06PJ 1.198,00 0,00 519,00 0,00 0,00 0,00 0,00 0,00 0,00 28/02/2022
831 1391100 BRUNA REIS PIMENTA ESTAGIARIO BELO HORIZONTE; BH-23PJ CIVEL-GAB 162PJ 0,00 0,00 0,00 99,00 0,00 0,00 0,00 0,00 0,00 28/02/2022
832 1180300 BRUNA RODRIGUES COBO ESTAGIARIO RIBEIRAO DAS NEVES; RIBEIRAO DAS NEVES-PJ-12PJ 0,00 0,00 0,00 9,00 0,00 0,00 0,00 0,00 0,00 28/02/2022
833 1239400 BRUNA RODRIGUES TORRES ESTAGIARIO BETIM; BETIM-PJ-13PJ 0,00 0,00 0,00 189,00 0,00 0,00 0,00 0,00 0,00 28/02/2022
834 707800 BRUNA ROMIE WERDINE ASSESSOR PROMOTOR JUSTICA IBIRITÉ - COMARCA; IBIRITE-PJ-06PJ 1.198,00 0,00 519,00 0,00 0,00 0,00 0,00 0,00 0,00 28/02/2022
835 1337600 BRUNA SALES VIEIRA ESTAGIARIO FRUTAL; FRUTAL-PJ-02PJ 0,00 0,00 0,00 189,00 0,00 0,00 0,00 0,00 0,00 28/02/2022
836 697400 BRUNA SILVA SANTOS ASSESSOR PROMOTOR JUSTICA TIMÓTEO - COMARCA; TIMOTEO-PJ-04PJ 1.198,00 0,00 519,00 0,00 0,00 0,00 0,00 0,00 0,00 28/02/2022
837 1174400 BRUNA STEHLING SCHIRMER ESTAGIARIO BELO HORIZONTE; GAECO 0,00 0,00 0,00 99,00 0,00 0,00 0,00 0,00 0,00 28/02/2022
838 1380100 BRUNA STEPHANIE TOLEDO FERNANDES ESTAGIARIO SETE LAGOAS; SETE LAGOAS-PJ-03PJ 0,00 0,00 0,00 189,00 0,00 0,00 0,00 0,00 0,00 28/02/2022
839 1191900 BRUNA STUHLER PINHEIRO ESTAGIARIO UBERLANDIA; UBERLANDIA-PJ-18PJ 0,00 0,00 0,00 135,00 0,00 0,00 0,00 0,00 0,00 28/02/2022
840 699300 BRUNA URSINE TIMO ASSESSOR PROCURADOR JUSTICA BELO HORIZONTE - COMARCA; PROC JUST ESP ACOES COMP ORIG CRIMINAL-ASSESS 1.198,00 0,00 519,00 0,00 0,00 0,00 0,00 0,00 0,00 28/02/2022
841 1364300 BRUNA YASMIM DE OLIVEIRA MOREIRA ESTAGIARIO BELO HORIZONTE; DIRET DE ESTAGIOS E CONVENIOS ACADEMICOS 0,00 0,00 0,00 27,00 0,00 0,00 0,00 0,00 0,00 28/02/2022
842 1283300 BRUNNA GABRIELA GONCALVES DE OLIVEIRA FERREIRA ESTAGIARIO BELO HORIZONTE; COORD ESTADUAL DE DEFESA DOS ANIMAIS 0,00 0,00 0,00 72,00 0,00 0,00 0,00 0,00 0,00 28/02/2022
843 225100 BRUNO ALEXANDER VIEIRA SOARES PROMOT.ENTRANC.ESPECIAL BELO HORIZONTE - COMARCA; BH-17PJ PATRIMONIO PUBLICO-GAB 004PJ 1.198,00 0,00 2.862,12 0,00 5.614,85 0,00 0,00 0,00 514,69 28/02/2022
844 1308900 BRUNO ALVES RODRIGUES ESTAGIARIO ITABIRA; ITABIRA-PJ-06PJ
845 463800 BRUNO ALVES TEIXEIRA ANALISTA DO MP UBERLÂNDIA - COMARCA; UBERLANDIA-PJ-04PJ 1.198,00 0,00 519,00 0,00 5.800,10 0,00 0,00 0,00 531,68 28/02/2022
846 1370200 BRUNO ANDRADE ALVARENGA ESTAGIARIO IPATINGA; IPATINGA-PJ-11PJ 0,00 0,00 0,00 189,00 0,00 0,00 0,00 0,00 0,00 28/02/2022
847 538500 BRUNO AUGUSTO DA SILVA OFICIAL DO MP SANTA LUZIA - COMARCA; SANTA LUZIA-PJ-03PJ 1.198,00 0,00 519,00 0,00 0,00 0,00 0,00 0,00 0,00 28/02/2022
848 318200 BRUNO BARROS DE SOUZA OFICIAL DO MP UBÁ - COMARCA; UBA-PJ-04PJ 1.198,00 0,00 519,00 0,00 5.759,82 0,00 0,00 0,00 527,98 28/02/2022
849 459600 BRUNO CASTELAR LUGAO MENDES OFICIAL DO MP BELO HORIZONTE - COMARCA; PROC JUST ATUACAO TRIBUNAIS SUPERIORES-GAB001 1.198,00 1.398,23 519,00 0,00 4.529,76 0,00 0,00 0,00 415,23 28/02/2022
850 361300 BRUNO CESAR MEDEIROS GIARDINI PROMOT.ENTRANC.ESPECIAL IPATINGA - COMARCA; IPATINGA-PJ-06PJ 1.198,00 0,00 2.647,75 0,00 11.229,70 0,00 0,00 0,00 514,69 28/02/2022
851 427400 BRUNO CESAR RIBEIRO DE PAIVA ANALISTA DO MP BELO HORIZONTE - COMARCA; ASSESS JUR DO CONS SUPERIOR DO MINISTERIO PUB 1.198,00 0,00 519,00 0,00 0,00 0,00 0,00 0,00 0,00 28/02/2022
852 380900 BRUNO CIRILO ANTUNES OFICIAL DO MP VARGINHA - COMARCA; VARGINHA-PJ-05PJ 1.198,00 0,00 519,00 0,00 5.440,15 0,00 0,00 0,00 498,68 28/02/2022
853 1242700 BRUNO DA SILVA LESSA ESTAGIARIO VICOSA; VICOSA-PJ-01PJ 0,00 0,00 0,00 81,00 0,00 0,00 0,00 0,00 0,00 28/02/2022
854 666700 BRUNO DE CARVALHO VASCONCELOS PROMOTOR SUBSTITUTO CORINTO - COMARCA; CORINTO-PJ-UNPJ 1.198,00 0,00 2.015,11 0,00 10.134,80 0,00 0,00 0,00 464,51 28/02/2022
855 329000 BRUNO DE MELO REIS ANALISTA DO MP PATROCÍNIO - COMARCA; PATROCINIO-PJ-02PJ 1.198,00 1.770,60 519,00 0,00 5.433,14 0,00 0,00 0,00 498,04 28/02/2022
856 1197800 BRUNO DURAES DE FARIAS ESTAGIARIO MONTES CLAROS; MONTES CLAROS-PJ-07PJ 0,00 0,00 0,00 135,00 0,00 0,00 0,00 0,00 0,00 28/02/2022
857 339700 BRUNO FERNANDO TORRES LANA PROMOT.ENTRANC.ESPECIAL UBÁ - COMARCA; UBA-PJ-05PJ 1.198,00 0,00 1.757,35 0,00 11.229,70 0,00 0,00 0,00 514,69 28/02/2022
858 1151500 BRUNO FERREIRA BRAS OLIVEIRA ESTAGIARIO UBERLANDIA; UBERLANDIA-PJ-08PJ 0,00 0,00 0,00 189,00 0,00 0,00 0,00 0,00 0,00 28/02/2022
859 1248000 BRUNO GARCIA RIBEIRO ESTAGIARIO ITAJUBA; ITAJUBA-PJ-05PJ 0,00 0,00 0,00 99,00 0,00 0,00 0,00 0,00 0,00 28/02/2022
860 697800 BRUNO GAZZOLA BEZERRA FALCAO ASSESSOR PROCURADOR JUSTICA BELO HORIZONTE - COMARCA; PROCURADOR-GERAL ADJUNTO JURIDICO- GABINETE 1.198,00 0,00 519,00 0,00 0,00 0,00 0,00 0,00 0,00 28/02/2022
861 360300 BRUNO GUERRA DE OLIVEIRA PROMOT.ENTRANC.ESPECIAL UBÁ - COMARCA; UBA-PJ-06PJ 1.198,00 0,00 1.405,88 0,00 15.721,58 0,00 0,00 0,00 514,69 28/02/2022
862 1381600 BRUNO HENRIQUE DE ANDRADE BRUNHARA ESTAGIARIO POUSO ALEGRE; POUSO ALEGRE-PJ-05PJ 0,00 0,00 0,00 189,00 0,00 0,00 0,00 0,00 0,00 28/02/2022
863 1376000 BRUNO HENRIQUE RODRIGUES DOS SANTOS ESTAGIARIO NOVO CRUZEIRO; NOVO CRUZEIRO-PJ-UNPJ 0,00 0,00 0,00 189,00 0,00 0,00 0,00 0,00 0,00 28/02/2022
864 378300 BRUNO HERDY LOPES DE OLIVEIRA ANALISTA DO MP GOVERNADOR VALADARES - COMARCA; GOVERNADOR VALADARES-PJ-03PJ 1.198,00 0,00 519,00 0,00 5.679,61 0,00 0,00 0,00 520,63 28/02/2022
865 1259500 BRUNO IZARIAS LIMA TEIXEIRA ESTAGIARIO BELO HORIZONTE; GABINETE DE PROCURADOR DE JUSTIÇA - SALA 602 0,00 0,00 0,00 36,00 0,00 0,00 0,00 0,00 0,00 28/02/2022
866 529700 BRUNO JOSE BUENO DIAS OFICIAL DO MP SÃO SEBASTIÃO DO PARAÍSO - COMARCA; SAO SEBASTIAO DO PARAISO-PJ-02PJ 1.198,00 0,00 519,00 0,00 808,34 0,00 0,00 0,00 74,10 28/02/2022
867 691600 BRUNO JOSE RIBEIRO ASSESSOR PROMOTOR JUSTICA CLÁUDIO - COMARCA; CLAUDIO-PJ-UNPJ 1.198,00 0,00 519,00 0,00 0,00 0,00 0,00 0,00 0,00 28/02/2022
868 350100 BRUNO LAUD SERRANO DOS REIS OFICIAL DO MP UBÁ - COMARCA; UBA-PJ-02PJ 1.198,00 0,00 519,00 0,00 5.578,22 0,00 0,00 0,00 511,34 28/02/2022
869 530600 BRUNO MARQUES DE ALMEIDA ROSSI PROMOTOR 1A ENTRANCIA PRESIDENTE OLEGÁRIO - COMARCA; PRESIDENTE OLEGARIO-PJ-UNPJ 1.198,00 0,00 3.040,44 0,00 14.188,72 0,00 0,00 0,00 464,51 28/02/2022
870 373800 BRUNO MARTINO DE ALBUQUERQUE ANALISTA DO MP PONTE NOVA - COMARCA; PONTE NOVA-PJ-03PJ 1.198,00 0,00 519,00 0,00 5.679,61 0,00 0,00 0,00 520,63 28/02/2022
871 1163200 BRUNO MORAIS MARQUES ESTAGIARIO CARMO DO PARANAIBA; CARMO DO PARANAIBA-PJ-01PJ 0,00 0,00 0,00 117,00 0,00 0,00 0,00 0,00 0,00 28/02/2022
872 470400 BRUNO NOVAIS CABRAL ANALISTA DO MP MUTUM - COMARCA; MUTUM-PJ-UNPJ 1.198,00 885,30 519,00 0,00 5.800,10 0,00 0,00 0,00 531,68 28/02/2022
873 457300 BRUNO OLIVEIRA MULLER PROMOT.ENTRANC.ESPECIAL ITABIRA - COMARCA; ITABIRA-PJ-04PJ 1.198,00 0,00 2.225,98 0,00 11.229,70 0,00 0,00 0,00 514,69 28/02/2022
874 648600 BRUNO RIBEIRO E MELO ASSESSOR BELO HORIZONTE - COMARCA; DIR RELACOES INSTITUCIONAIS 1.198,00 0,00 519,00 0,00 2.287,74 0,00 0,00 0,00 209,71 28/02/2022
875 369200 BRUNO ROBERTO DIAS DE OLIVEIRA OFICIAL DO MP BELO HORIZONTE - COMARCA; BH-22PJ PES COM DEF E IDOSOS-SECRETARIA 1.198,00 0,00 519,00 0,00 4.350,07 0,00 0,00 0,00 398,76 28/02/2022
876 547700 BRUNO ROBERTO SOUZA GONCALVES ANALISTA DO MP PARACATU - COMARCA; PARACATU-PJ-03PJ 1.198,00 1.770,60 519,00 0,00 0,00 0,00 0,00 0,00 0,00 28/02/2022
877 546100 BRUNO SA VIEIRA ANALISTA DO MP BARBACENA - COMARCA; BARBACENA-PJ-SECRETARIA 1.198,00 885,30 519,00 0,00 4.571,23 0,00 0,00 0,00 419,03 28/02/2022
878 438200 BRUNO SALES PEREIRA ANALISTA DO MP BELO HORIZONTE - COMARCA; CENTRAL DE APOIO TECNICO-SETOR CONTABIL 1.198,00 885,30 519,00 0,00 5.443,76 0,00 0,00 0,00 499,01 28/02/2022
879 537400 BRUNO SANT'ANA CESAR ANALISTA DO MP CONTAGEM - COMARCA; CONTAGEM-PJ-21PJ 1.198,00 0,00 519,00 0,00 4.571,23 0,00 0,00 0,00 419,03 28/02/2022
880 343500 BRUNO SCHIAVO CRUZ PROMOT.ENTRANC.ESPECIAL IPATINGA - COMARCA; GAECO REGIONAL DE IPATINGA 1.198,00 0,00 3.163,24 0,00 11.229,70 0,00 0,00 0,00 514,69 28/02/2022
881 1155100 BRUNO SOARES FONSECA ESTAGIARIO MONTES CLAROS; MONTES CLAROS-PJ-01PJ 0,00 0,00 0,00 144,00 0,00 0,00 0,00 0,00 0,00 28/02/2022
882 684000 BRUNO TORRANO AMORIM DE ALMEIDA PROMOTOR 2A ENTRANCIA SÃO FRANCISCO - COMARCA; SAO FRANCISCO-PJ-02PJ 1.198,00 0,00 2.010,61 0,00 5.334,11 0,00 0,00 0,00 488,96 28/02/2022
883 655800 CAEL KALINOWSKI SOUZA MATTA INVESTIGADOR DE POLICIA 2 BELO HORIZONTE - COMARCA; NUCLEO DE INFORMACOES E INTELIGENCIA 1.198,00 0,00 0,00 0,00 0,00 0,00 0,00 0,00 0,00 28/02/2022
884 1373900 CAIO ANTONIO DO AMARAL BRAGA ALVES ESTAGIARIO ESPERA FELIZ; ESPERA FELIZ-PJ-UNPJ 0,00 0,00 0,00 180,00 0,00 0,00 0,00 0,00 48,20 28/02/2022
885 666900 CAIO CESAR ESPIRITO SANTO DO NASCIMENTO PROMOTOR 2A ENTRANCIA SALINAS - COMARCA; SALINAS-PJ-01PJ 1.198,00 0,00 1.429,32 0,00 16.002,33 0,00 0,00 0,00 488,96 28/02/2022
886 685600 CAIO CESAR FERREIRA PROMOTOR SUBSTITUTO NOVO CRUZEIRO - COMARCA; NOVO CRUZEIRO-PJ-UNPJ 1.198,00 0,00 0,00 0,00 5.067,40 0,00 0,00 0,00 464,51 28/02/2022
887 1244600 CAIO CRIVELENTI RAFFAINI CASTRO ESTAGIARIO UBERLANDIA; UBERLANDIA-PJ-11PJ 0,00 0,00 0,00 189,00 0,00 0,00 0,00 0,00 0,00 28/02/2022
888 405800 CAIO FERNANDO RODRIGUES DE OLIVEIRA ANALISTA DO MP BELO HORIZONTE - COMARCA; GABINETE DE PROCURADOR DE JUSTIÇA - SALA 805 1.198,00 0,00 519,00 0,00 5.500,51 0,00 0,00 0,00 504,21 28/02/2022
889 530000 CAIO GUEDES DE OLIVEIRA ANALISTA DO MP DIAMANTINA - COMARCA; DIAMANTINA-PJ-02PJ 1.198,00 885,30 519,00 0,00 0,00 0,00 0,00 0,00 0,00 28/02/2022
890 1367800 CAIO MACIEL ARANTES ESTAGIARIO CAXAMBU; CAXAMBU-PJ-UNPJ 0,00 0,00 0,00 189,00 0,00 0,00 0,00 0,00 0,00 28/02/2022
891 491400 CAIO MIRANDA JUNQUEIRA ANALISTA DO MP BUENO BRANDAO - COMARCA; BUENO BRANDAO-PJ-UNPJ 1.198,00 0,00 519,00 0,00 0,00 0,00 0,00 0,00 0,00 28/02/2022
892 1298300 CAIO MONTEIRO ESTAGIARIO DIVINOPOLIS; DIVINOPOLIS-PJ-08PJ 0,00 0,00 0,00 180,00 0,00 0,00 0,00 0,00 0,00 28/02/2022
893 668300 CAIO PALLU COSTA PROMOTOR 2A ENTRANCIA MANTENA - COMARCA; MANTENA-PJ-03PJ 1.198,00 0,00 3.200,47 0,00 10.668,22 0,00 0,00 0,00 488,96 28/02/2022
894 671600 CAIO ROTHSAHL BOTELHO PROMOTOR 2A ENTRANCIA PEDRA AZUL - COMARCA; PEDRA AZUL-PJ-01PJ 1.198,00 0,00 1.845,34 0,00 10.668,22 0,00 0,00 0,00 488,96 28/02/2022
895 171000 CAIUS VINICIUS GONZAGA GOULART PROMOT.ENTRANC.ESPECIAL BELO HORIZONTE - COMARCA; BH-12PJ JUIZO CRIMINAL-GAB 106PJ 1.198,00 0,00 984,12 0,00 11.229,70 0,00 0,00 0,00 514,69 28/02/2022
896 82300 CALIXTO OLIVEIRA SOUZA PROMOT.ENTRANC.ESPECIAL DIVINÓPOLIS - COMARCA; DIVINOPOLIS-PJ-01PJ 1.198,00 0,00 2.577,46 0,00 5.614,85 0,00 0,00 0,00 514,69 28/02/2022
897 415800 CAMILA ALVES DA SILVA ANALISTA DO MP CAETÉ - COMARCA; CAETE-PJ-01PJ 1.198,00 0,00 519,00 0,00 5.500,51 0,00 0,00 0,00 504,21 28/02/2022
898 1399600 CAMILA AMIZADAI MOREIRA CAMPOS ESTAGIARIO SANTOS DUMONT; SANTOS DUMONT-PJ-03PJ 0,00 0,00 0,00 63,00 0,00 0,00 0,00 0,00 0,00 28/02/2022
899 684900 CAMILA APARECIDA PIRES PROMOTOR SUBSTITUTO VESPASIANO - COMARCA; VESPASIANO-PJ-02PJ 1.198,00 0,00 773,24 0,00 5.067,40 0,00 0,00 0,00 464,51 28/02/2022
900 1354100 CAMILA AUGUSTA DE ASSIS ESTAGIARIO BELO HORIZONTE; ASSESSORIA ESPECIAL DO PGJ 0,00 0,00 0,00 63,00 0,00 0,00 0,00 0,00 0,00 28/02/2022
901 1352800 CAMILA CAETANO SANTOS ESTAGIARIO LUZ; LUZ-PJ-UNPJ 0,00 0,00 0,00 126,00 0,00 0,00 0,00 0,00 0,00 28/02/2022
902 1364800 CAMILA CAMPOS PEREIRA ESTAGIARIO BELO HORIZONTE; BH-15PJ M AMB PAT HIST CULT-GAB 115PJ 0,00 0,00 0,00 99,00 0,00 0,00 0,00 0,00 0,00 28/02/2022
903 1199600 CAMILA CAROLINE DOS SANTOS FARIA DUARTE ESTAGIARIO UNAI; UNAI-PJ-03PJ 0,00 0,00 0,00 189,00 0,00 0,00 0,00 0,00 36,20 28/02/2022
904 555800 CAMILA CAROLINE ROCHA CHAVES OFICIAL DO MP SALINAS - COMARCA; SALINAS-PJ-01PJ 1.198,00 0,00 519,00 0,00 0,00 0,00 0,00 0,00 0,00 28/02/2022
905 445200 CAMILA CONDE ROCHA ANALISTA DO MP CONTAGEM - COMARCA; CONTAGEM-PJ-08PJ 1.198,00 0,00 519,00 0,00 2.061,33 0,00 0,00 0,00 188,96 28/02/2022
906 419900 CAMILA CUNNINGHAM PIMENTA DE PADUA ANALISTA DO MP BELO HORIZONTE - COMARCA; ASSESSORIA PSICOSSOCIAL 1.198,00 0,00 519,00 0,00 0,00 0,00 0,00 0,00 0,00 28/02/2022
907 714200 CAMILA DE SOUSA CUNHA ASSESSOR PROMOTOR JUSTICA PRADOS - COMARCA; PRADOS-PJ-UNPJ 1.198,00 0,00 519,00 0,00 0,00 0,00 0,00 0,00 0,00 28/02/2022
908 507700 CAMILA ELIZABETH RODRIGUES ANALISTA DO MP BELO HORIZONTE - COMARCA; BH-02PJ FAMILIA-SECRETARIA 1.198,00 0,00 519,00 0,00 5.853,17 0,00 0,00 0,00 536,54 28/02/2022
909 372700 CAMILA FONSECA LIMONGE ANALISTA DO MP BETIM - COMARCA; BETIM-PJ-01PJ 1.198,00 0,00 519,00 0,00 5.679,61 0,00 0,00 0,00 520,63 28/02/2022
910 621300 CAMILA GOLFETO DE SOUSA VALENTE OFICIAL DO MP CARANGOLA - COMARCA; CARANGOLA-PJ-SECRETARIA 1.198,00 1.327,95 519,00 0,00 782,86 0,00 0,00 0,00 71,76 28/02/2022
911 409800 CAMILA GONCALVES COSTA RIBEIRO ANALISTA DO MP INHAPIM - COMARCA; INHAPIM-PJ-02PJ 1.198,00 885,30 519,00 0,00 0,00 0,00 0,00 0,00 0,00 28/02/2022
912 335000 CAMILA GONTIJO DE PAIVA ANALISTA DO MP BELO HORIZONTE - COMARCA; COORD DE CONTROLE CONSTITUCIONALIDADE 1.198,00 0,00 519,00 0,00 0,00 0,00 0,00 0,00 0,00 28/02/2022
913 693400 CAMILA HECKSHER MONTEIRO ASSESSOR PROCURADOR JUSTICA BELO HORIZONTE - COMARCA; GABINETE DE PROCURADOR DE JUSTIÇA - SALA 613 1.198,00 0,00 519,00 0,00 0,00 0,00 0,00 0,00 0,00 28/02/2022
914 696000 CAMILA IMACULADA OLIVEIRA ASSESSOR PROCURADOR JUSTICA BELO HORIZONTE - COMARCA; GABINETE DE PROCURADOR DE JUSTIÇA - SALA 816 1.198,00 0,00 519,00 0,00 0,00 0,00 0,00 0,00 0,00 28/02/2022
915 1231200 CAMILA MARIZ MACEDO ESTAGIARIO BELO HORIZONTE; GABINETE DE PROCURADOR DE JUSTIÇA - SALA 802
916 547800 CAMILA MATTARELLI DE ABREU E SILVA ANALISTA DO MP BELO HORIZONTE - COMARCA; CAO-VIOLENCIA DOMESTICA E FAMILIAR 1.198,00 0,00 519,00 0,00 5.817,94 0,00 0,00 0,00 533,31 28/02/2022
917 1309200 CAMILA MONTALVAO BARBOSA ESTAGIARIO CURVELO; CURVELO-PJ-05PJ 0,00 0,00 0,00 117,00 0,00 0,00 0,00 0,00 0,00 28/02/2022
918 1183500 CAMILA MORAIS FERREIRA ESTAGIARIO BELO HORIZONTE; BH-02PJ FAMILIA-GAB 015PJ
919 1326100 CAMILA MOREIRA DE SOUZA SOBRINHO ESTAGIARIO BELO HORIZONTE; BH-23PJ INFRACIONAL-RECEPCAO 0,00 0,00 0,00 36,00 0,00 0,00 0,00 0,00 0,00 28/02/2022
920 1401400 CAMILA NAYANA SILVA FRANCO ESTAGIARIO PRESIDENTE OLEGARIO; PRESIDENTE OLEGARIO-PJ-UNPJ 0,00 0,00 0,00 45,00 0,00 0,00 0,00 0,00 0,00 28/02/2022
921 1180400 CAMILA NICACIO PEDROSA ALMEIDA ESTAGIARIO BELO HORIZONTE; GABINETE DE PROCURADOR DE JUSTIÇA - SALA 807 0,00 0,00 0,00 45,00 0,00 0,00 0,00 0,00 0,00 28/02/2022
922 1287600 CAMILA NUNES COELHO LAGE ESTAGIARIO BELO HORIZONTE; BH-24PJ JUIZO REG BARREIRO-GAB 003PJ
923 1141300 CAMILA OLIVEIRA GIACOMETO ESTAGIARIO UBERABA; UBERABA-PJ-10PJ
924 1345800 CAMILA RABELO SILVA ESTAGIARIO 0,00 0,00 0,00 36,00 0,00 0,00 0,00 0,00 0,00 28/02/2022
925 1386700 CAMILA RODRIGUES COSTA ESTAGIARIO UBERABA; UBERABA-PJ-06PJ 0,00 0,00 0,00 189,00 0,00 0,00 0,00 0,00 0,00 28/02/2022
926 1290600 CAMILA RODRIGUES MAURO ESTAGIARIO CONTAGEM; CONTAGEM-PJ-22PJ 0,00 0,00 0,00 27,00 0,00 0,00 0,00 0,00 0,00 28/02/2022
927 1382700 CAMILA SANTOS SANTIAGO ESTAGIARIO BELO HORIZONTE; COORD ESTADUAL DE DEFESA DOS ANIMAIS 0,00 0,00 0,00 99,00 0,00 0,00 0,00 0,00 0,00 28/02/2022
928 1294800 CAMILA SCHULTZ DE OLIVEIRA LIMA ESTAGIARIO BELO HORIZONTE; BH-18PJ DIREITOS HUMANOS-GAB 127PJ 0,00 0,00 0,00 45,00 0,00 0,00 0,00 0,00 0,00 28/02/2022
929 1373400 CAMILA STEPHANIE SANTOS SILVA ESTAGIARIO PEDRO LEOPOLDO; PEDRO LEOPOLDO-PJ-03PJ 0,00 0,00 0,00 144,00 0,00 0,00 0,00 0,00 36,20 28/02/2022
930 1170200 CAMILA VENANCIO DIAS ESTAGIARIO BELO HORIZONTE; PROC. JUSTICA DIR. DIFUSOS E COLETIVOS
931 1194500 CAMILE LORRANY FLAVIO ALVES ESTAGIARIO MONTES CLAROS; MONTES CLAROS-PJ-01PJ 0,00 0,00 0,00 180,00 0,00 0,00 0,00 0,00 0,00 28/02/2022
932 1347200 CAMILLA MARTINS DE FREITAS ESTAGIARIO BELO HORIZONTE; EXTINTA-COORD EST DEF DIR FAM PES DEFIC IDOSO 0,00 0,00 0,00 99,00 0,00 0,00 0,00 0,00 0,00 28/02/2022
933 1347600 CAMILLA PRINCE CAETANO DE OLIVEIRA ESTAGIARIO BELO HORIZONTE; EXTINTA-COORD EST DEF DIR FAM PES DEFIC IDOSO 0,00 0,00 0,00 90,00 0,00 0,00 0,00 0,00 0,00 28/02/2022
934 1361700 CAMILLA RABELO E SILVA ESTAGIARIO VARZEA DA PALMA; VARZEA DA PALMA-PJ-02PJ 0,00 0,00 0,00 171,00 0,00 0,00 0,00 0,00 0,00 28/02/2022
935 1334200 CAMILLA RODRIGUES FERREIRA ESTAGIARIO CONSELHEIRO LAFAIETE; CONSELHEIRO LAFAIETE-PJ-01PJ 0,00 0,00 0,00 144,00 0,00 0,00 0,00 0,00 0,00 28/02/2022
936 1340100 CAMILLE MOREIRA CARRILHO SOARES ESTAGIARIO BELO HORIZONTE; GABINETE DE PROCURADOR DE JUSTIÇA - SALA 301 0,00 0,00 0,00 45,00 0,00 0,00 0,00 0,00 0,00 28/02/2022
937 430000 CANDIDA MARINA COSTA ANALISTA DO MP BELO HORIZONTE - COMARCA; DIVISAO DE DOCUMENTACAO JURIDICA 1.198,00 0,00 519,00 0,00 0,00 0,00 0,00 0,00 0,00 28/02/2022
938 614300 CARINA CORTIELHA OFICIAL DO MP BELO HORIZONTE - COMARCA; BH-23PJ CIVEL-SEC EXP CIVEIS 1.198,00 0,00 519,00 0,00 0,00 0,00 0,00 0,00 627,43 28/02/2022
939 380400 CARINA DIAS FACANHA DE SOUZA ANALISTA DO MP SANTA RITA DO SAPUCAÍ - COMARCA; SANTA RITA DO SAPUCAI-PJ-SECRETARIA 1.198,00 0,00 519,00 0,00 0,00 0,00 0,00 0,00 0,00 28/02/2022
940 698300 CARINA ESTEPHANY FAVATO FERREIRA JUSTE ASSESSOR PROCURADOR JUSTICA BELO HORIZONTE - COMARCA; PROC. JUSTICA DIR. DIFUSOS E COLETIVOS-SEC 1.198,00 0,00 519,00 0,00 0,00 0,00 0,00 0,00 0,00 28/02/2022
941 1402400 CARINA RIBEIRO COELHO ESTAGIARIO BELO HORIZONTE; 18ª PJ DEFESA DOS DIREITOS HUMANOS, IGUALDADE
942 255000 CARLA ADRIANA DE MENEZES OFICIAL DO MP BELO HORIZONTE - COMARCA; CENT DE APOIO TEC-SETOR DEF,IDOSO E INFANC 1.198,00 0,00 519,00 0,00 5.759,82 0,00 0,00 0,00 527,98 28/02/2022
943 425100 CARLA ADRIANA DINIZ AMARAL OFICIAL DO MP CONTAGEM - COMARCA; CONTAGEM-PJ-SECRETARIA 1.198,00 0,00 519,00 0,00 425,20 0,00 0,00 0,00 38,98 28/02/2022
944 508100 CARLA ALESSANDRA FONSECA ANALISTA DO MP BELO HORIZONTE - COMARCA; CAO-ORDEM ECONOMICA E TRIBUTARIA-SECRETARIA 1.198,00 0,00 519,00 0,00 5.800,10 0,00 0,00 0,00 531,68 28/02/2022
945 607100 CARLA ANGELICA DIAS MIRANDA OFICIAL DO MP JABOTICATUBAS - COMARCA; JABOTICATUBAS-PJ-UNPJ 1.198,00 0,00 519,00 0,00 0,00 0,00 0,00 0,00 0,00 28/02/2022
946 351500 CARLA APARECIDA MENDES RAMIRIO OFICIAL DO MP PASSOS - COMARCA; PASSOS-PJ-01PJ 1.198,00 0,00 519,00 0,00 0,00 0,00 0,00 0,00 0,00 28/02/2022
947 713100 CARLA DOS SANTOS SOUZA ASSESSOR PROMOTOR JUSTICA ESPERA FELIZ - COMARCA; ESPERA FELIZ-PJ-UNPJ 1.198,00 0,00 519,00 0,00 0,00 0,00 0,00 0,00 0,00 28/02/2022
948 442800 CARLA GONCALVES COSTA SOALHEIRO ANALISTA DO MP GOVERNADOR VALADARES - COMARCA; GOVERNADOR VALADARES-PJ-11PJ 1.198,00 885,30 519,00 0,00 0,00 0,00 0,00 0,00 0,00 28/02/2022
949 321500 CARLA GONCALVES MASSOTE OFICIAL DO MP CAMPO BELO - COMARCA; CAMPO BELO-PJ-02PJ 1.198,00 0,00 519,00 0,00 0,00 0,00 0,00 0,00 0,00 28/02/2022
950 429200 CARLA HAUTEQUESTT BECHARA COORDENADOR/ANALISTA BELO HORIZONTE - COMARCA; DIRET DE INFORMACAO E CONHECIMENTO-DINC/CEAF 1.198,00 0,00 519,00 0,00 0,00 0,00 0,00 0,00 0,00 28/02/2022
951 1214400 CARLA LEOPOLDO DE OLIVEIRA ESTAGIARIO JUIZ DE FORA; GAECO REGIONAL DA ZONA DA MATA-JUIZ DE FORA 0,00 0,00 0,00 189,00 0,00 0,00 0,00 0,00 0,00 28/02/2022
952 157400 CARLA MARIA ALESSI LAFETA DE CARVALHO PROMOT.ENTRANC.ESPECIAL BELO HORIZONTE - COMARCA; BH-02PJ FAMILIA-GAB 029PJ 1.198,00 0,00 2.577,46 0,00 0,00 0,00 0,00 0,00 0,00 28/02/2022
953 247500 CARLA MATILDE GUIMARAES DE OLIVEIRA OFICIAL DO MP ITAJUBA - COMARCA; ITAJUBA-PJ-SECRETARIA 1.198,00 0,00 519,00 0,00 0,00 0,00 0,00 0,00 0,00 28/02/2022
954 226100 CARLA MERLI DA CONCEICAO ANALISTA DO MP BELO HORIZONTE - COMARCA; CENTRAL DE APOIO TECNICO-SETOR CONTABIL 1.198,00 0,00 519,00 0,00 5.871,88 0,00 0,00 0,00 538,26 28/02/2022
955 685700 CARLA PRISCILLA PEREIRA VIANA PROMOTOR SUBSTITUTO LAGOA DA PRATA - COMARCA; LAGOA DA PRATA-PJ-02PJ 1.198,00 0,00 2.389,49 0,00 10.134,80 0,00 0,00 0,00 464,51 28/02/2022
956 343100 CARLA REGINA GOULART SALARO DUVANEL PROMOT.ENTRANC.ESPECIAL GOVERNADOR VALADARES - COMARCA; GOVERNADOR VALADARES-PJ-06PJ 1.198,00 0,00 1.505,88 0,00 5.614,85 0,00 0,00 0,00 514,69 28/02/2022
957 1402100 CARLA ROBERTA MONTEIRO NASCIMENTO ESTAGIARIO BELO HORIZONTE; BH-13PJ JUIZO DE TOXICOS-COORD PJ 0,00 0,00 0,00 45,00 0,00 0,00 0,00 0,00 0,00 28/02/2022
958 532600 CARLA RODRIGUES FAZUOLI PROMOTOR 2A ENTRANCIA SACRAMENTO - COMARCA; SACRAMENTO-PJ-02PJ 1.198,00 0,00 820,10 0,00 10.668,22 0,00 0,00 0,00 488,96 28/02/2022
959 1324200 CARLA SUZIANE DOS SANTOS PINTO ESTAGIARIO PARAOPEBA; PARAOPEBA-PJ-UNPJ 0,00 0,00 0,00 189,00 0,00 0,00 0,00 0,00 0,00 28/02/2022
960 181401 CARLO MICHEL GAUDENSI COELHO ANALISTA DO MP BELO HORIZONTE - COMARCA; BH-08PJ JUIZADO ESPECIAL-SECRETARIA 1.198,00 0,00 519,00 0,00 5.100,52 0,00 0,00 0,00 467,55 28/02/2022
961 634000 CARLOS ALBERTO AMORMINO TRIGUEIRO ANALISTA DO MP BELO HORIZONTE - COMARCA; DIRET DE APOIO AS PROCURADORIAS DE JUSTICA 1.198,00 885,30 519,00 0,00 0,00 0,00 0,00 0,00 0,00 28/02/2022
962 232300 CARLOS ALBERTO DA SILVEIRA ISOLDI FILHO PROMOT.ENTRANC.ESPECIAL BELO HORIZONTE - COMARCA; CORREGEDORIA-GERAL-ASSESSORIA 1.198,00 0,00 3.368,91 0,00 11.229,70 0,00 0,00 0,00 514,69 28/02/2022
963 637900 CARLOS ALBERTO DE MOURA OFICIAL DO MP SETE LAGOAS - COMARCA; SETE LAGOAS-PJ-07PJ 1.198,00 0,00 519,00 0,00 0,00 0,00 0,00 0,00 0,00 28/02/2022
964 638700 CARLOS ALBERTO FERREIRA BRAGA ANALISTA DO MP VESPASIANO - COMARCA; VESPASIANO-PJ-06PJ 1.198,00 0,00 519,00 0,00 3.340,86 0,00 0,00 0,00 306,25 28/02/2022
965 54400 CARLOS ALBERTO RIBEIRO MOREIRA PROMOTOR 2A ENTRANCIA LAVRAS - COMARCA; LAVRAS-PJ-02PJ 1.198,00 0,00 2.811,76 0,00 10.668,22 0,00 0,00 0,00 488,96 28/02/2022
966 375801 CARLOS ALBERTO ROCHA ANALISTA DO MP VARGINHA - COMARCA; GAECO REGIONAL DE VARGINHA 1.198,00 885,30 519,00 0,00 0,00 0,00 0,00 0,00 0,00 28/02/2022
967 110700 CARLOS ALBERTO VALERA PROMOT.ENTRANC.ESPECIAL UBERABA - COMARCA; UBERABA-PJ-08PJ 1.198,00 0,00 1.288,73 0,00 11.229,70 0,00 0,00 0,00 514,69 28/02/2022
968 94200 CARLOS ANDRE MARIANI BITTENCOURT PROCURADOR DE JUSTICA BELO HORIZONTE - COMARCA; PROCURADORIA-GERAL ADJUNTA INSTITUCIONAL 1.198,00 0,00 3.546,22 0,00 17.731,11 0,00 0,00 0,00 541,78 28/02/2022
969 462800 CARLOS ANDREI SOARES FAGUNDES ANALISTA DO MP MONTES CLAROS - COMARCA; MONTES CLAROS-PJ-09PJ 1.198,00 0,00 519,00 0,00 5.800,10 0,00 0,00 0,00 531,68 28/02/2022
970 370300 CARLOS AUGUSTO BUENO DIAS ASSESSOR BELO HORIZONTE - COMARCA; SUPERINTENDÊNCIA DE ENGENHARIA E ARQUITETURA 1.198,00 0,00 519,00 0,00 415,90 0,00 0,00 0,00 38,12 28/02/2022
971 66200 CARLOS AUGUSTO CANEDO GONCALVES DA SILVA PROCURADOR DE JUSTICA BELO HORIZONTE - COMARCA; GABINETE DE PROCURADOR DE JUSTIÇA - SALA 911 1.198,00 0,00 3.546,22 0,00 5.910,37 0,00 0,00 0,00 541,78 28/02/2022
972 83200 CARLOS AUGUSTO ESTEVES DE CARVALHO PROMOT.ENTRANC.ESPECIAL JUIZ DE FORA - COMARCA; JUIZ DE FORA-PJ-16PJ 1.198,00 0,00 2.061,97 0,00 11.229,70 0,00 0,00 0,00 514,69 28/02/2022
973 143500 CARLOS AUGUSTO GOMES BRAGA PROMOT.ENTRANC.ESPECIAL BELO HORIZONTE - COMARCA; BH-03PJ EMPRESARIAL-GAB 036PJ 1.198,00 0,00 3.365,18 0,00 11.229,70 0,00 0,00 0,00 514,69 28/02/2022
974 110800 CARLOS CESAR MARQUES LUZ PROMOTOR 1A ENTRANCIA JACUTINGA - COMARCA; JACUTINGA-PJ-UNPJ 1.198,00 0,00 1.238,16 0,00 10.134,80 0,00 0,00 0,00 0,00 28/02/2022
975 505100 CARLOS CEZAR CARVALHO ANALISTA DO MP CONTAGEM - COMARCA; CONTAGEM-PJ-02PJ 1.198,00 0,00 519,00 0,00 0,00 0,00 0,00 0,00 0,00 28/02/2022
976 195900 CARLOS DE SOUZA FERREIRA OFICIAL DO MP COROMANDEL - COMARCA; COROMANDEL-PJ-01PJ 1.198,00 0,00 519,00 0,00 0,00 0,00 0,00 0,00 0,00 28/02/2022
977 344300 CARLOS EDUARDO AVANZI DE ALMEIDA PROMOTOR 2A ENTRANCIA CAMPO BELO - COMARCA; CAMPO BELO-PJ-03PJ 1.198,00 0,00 3.200,47 0,00 10.668,22 0,00 0,00 0,00 488,96 28/02/2022
978 196800 CARLOS EDUARDO DE OLIVEIRA MARINHO OFICIAL DO MP ALPINÓPOLIS - COMARCA; ALPINOPOLIS-PJ-UNPJ 1.198,00 0,00 519,00 0,00 5.695,28 0,00 0,00 0,00 522,07 28/02/2022
979 1269100 CARLOS EDUARDO DE SOUZA ESTAGIARIO BOTELHOS; BOTELHOS-PJ-UNPJ 0,00 0,00 0,00 189,00 0,00 0,00 0,00 0,00 0,00 28/02/2022
980 1306000 CARLOS EDUARDO DOS SANTOS WALTER ESTAGIARIO BETIM; BETIM-PJ-09PJ 0,00 0,00 0,00 135,00 0,00 0,00 0,00 0,00 0,00 28/02/2022
981 157500 CARLOS EDUARDO DUTRA PIRES PROMOT.ENTRANC.ESPECIAL SETE LAGOAS - COMARCA; SETE LAGOAS-PJ-02PJ 1.198,00 0,00 2.225,98 0,00 11.229,70 0,00 0,00 0,00 514,69 28/02/2022
982 483200 CARLOS EDUARDO FERNANDES NEVES RIBEIRO PROMOT.ENTRANC.ESPECIAL BARBACENA - COMARCA; BARBACENA-PJ-08PJ 1.198,00 0,00 1.842,20 0,00 16.844,55 0,00 0,00 0,00 514,69 28/02/2022
983 315400 CARLOS EDUARDO FERREIRA PINTO PROMOT.ENTRANC.ESPECIAL BELO HORIZONTE - COMARCA; CAO-MEIO AMBIENTE 1.198,00 0,00 3.368,91 0,00 16.844,55 0,00 0,00 0,00 514,69 28/02/2022
984 55300 CARLOS EDUARDO MAFRA CAVALCANTI PROCURADOR DE JUSTICA BELO HORIZONTE - COMARCA; GABINETE DE PROCURADOR DE JUSTIÇA - SALA 503 1.198,00 0,00 2.811,76 0,00 11.820,74 0,00 0,00 0,00 541,78 28/02/2022
985 650800 CARLOS EDUARDO NIZA DA SILVA OFICIAL DO MP IGARAPÉ - COMARCA; IGARAPE-PJ-01PJ 1.198,00 885,30 519,00 0,00 0,00 0,00 0,00 0,00 0,00 28/02/2022
986 491800 CARLOS EDUARDO ROMAN OFICIAL DO MP BARBACENA - COMARCA; BARBACENA-PJ-09PJ 1.198,00 0,00 519,00 0,00 0,00 0,00 0,00 0,00 0,00 28/02/2022
987 1333500 CARLOS EDUARDO SANTOS DIAS ESTAGIARIO ALMENARA; ALMENARA-PJ-COORD PJ 0,00 0,00 0,00 108,00 0,00 0,00 0,00 0,00 0,00 28/02/2022
988 157600 CARLOS EUGENIO SOUTO MAIOR FILIZOLA JUNIOR PROMOT.ENTRANC.ESPECIAL BELO HORIZONTE - COMARCA; BH-07PJ TRIBUNAL DO JURI 1.198,00 0,00 2.579,40 0,00 11.229,70 0,00 0,00 0,00 514,69 28/02/2022
989 299300 CARLOS HENRIQUE BICALHO ANALISTA DO MP BELO HORIZONTE - COMARCA; BH-17PJ PATRIMONIO PUBLICO-SECRETARIA 1.198,00 885,30 519,00 0,00 5.068,94 0,00 0,00 0,00 464,65 28/02/2022
990 1330100 CARLOS HENRIQUE DE CARVALHO FREIRE ESTAGIARIO CAMPO BELO; CAMPO BELO-PJ-01PJ 0,00 0,00 0,00 189,00 0,00 0,00 0,00 0,00 0,00 28/02/2022
991 205100 CARLOS HENRIQUE ESTEVES OFICIAL DO MP ITAMBACURI - COMARCA; ITAMBACURI-PJ-01PJ 1.198,00 0,00 519,00 0,00 5.628,28 0,00 0,00 0,00 515,93 28/02/2022
992 351600 CARLOS HENRIQUE FELICIO DA FONSECA OFICIAL DO MP JUIZ DE FORA - COMARCA; JUIZ DE FORA-PJ-21PJ 1.198,00 0,00 519,00 0,00 5.759,82 0,00 0,00 0,00 527,98 28/02/2022
993 210900 CARLOS HENRIQUE TORRES DE SOUZA PROMOT.ENTRANC.ESPECIAL BELO HORIZONTE - COMARCA; BH-06PJ JUIZO CIVEL-GAB 055PJ 1.198,00 0,00 3.368,91 0,00 11.229,70 0,00 0,00 0,00 514,69 28/02/2022
994 104600 CARLOS JOSE E SILVA FORTES PROMOT.ENTRANC.ESPECIAL DIVINÓPOLIS - COMARCA; DIVINOPOLIS-PJ-06PJ 1.198,00 0,00 2.624,31 0,00 5.614,85 0,00 0,00 0,00 514,69 28/02/2022
995 85400 CARLOS JOSE VIEIRA OFICIAL DO MP BELO HORIZONTE - COMARCA; DIRETORIA DO COLEGIO E DA CAMARA DE PJ 1.198,00 0,00 519,00 0,00 5.673,96 0,00 0,00 0,00 520,11 28/02/2022
996 1298700 CARLOS MAGNO DE ASSIS DUTRA ESTAGIARIO NOVA SERRANA; NOVA SERRANA-PJ-03PJ 0,00 0,00 0,00 153,00 0,00 0,00 0,00 0,00 0,00 28/02/2022
997 1142200 CARLOS MARTINS DE OLIVEIRA JUNIOR ESTAGIARIO 0,00 0,00 0,00 36,00 0,00 0,00 0,00 0,00 0,00 28/02/2022
998 229100 CARLOS MERCES DE OLIVEIRA ANALISTA DO MP BELO HORIZONTE - COMARCA; CENTRAL DE APOIO TECN-SETOR DE MEIO AMBIENTE 1.198,00 0,00 519,00 0,00 0,00 0,00 0,00 0,00 0,00 28/02/2022
999 538300 CARLOS RANGEL SILVA DE MELO ANALISTA DO MP BELO HORIZONTE - COMARCA; DIVISAO DE CONTROLE IMOBILIARIO 1.198,00 885,30 519,00 0,00 0,00 0,00 0,00 0,00 0,00 28/02/2022
1000 265100 CARLOS REIFF MIRANDA ANALISTA DO MP BELO HORIZONTE - COMARCA; BH-19PJ SAUDE-SECRETARIA 150PJ 1.198,00 0,00 519,00 0,00 0,00 0,00 0,00 0,00 0,00 28/02/2022
1001 305400 CARLOS ROCHA DE SOUZA OFICIAL DO MP MONTALVÂNIA - COMARCA; MONTALVANIA-PJ-SECRETARIA 1.198,00 0,00 519,00 0,00 2.229,06 0,00 0,00 0,00 204,33 28/02/2022
1002 371600 CARLOS SAMUEL BORGES CUNHA PROMOT.ENTRANC.ESPECIAL MANHUAÇU - COMARCA; MANHUACU-PJ-05PJ 1.198,00 0,00 1.757,35 0,00 11.229,70 0,00 0,00 0,00 514,69 28/02/2022
1003 1278600 CARLOS WAGNER VASCONCELOS REGO BARROS ESTAGIARIO SETE LAGOAS; SETE LAGOAS-PJ-SEC CRIMINAIS 0,00 0,00 0,00 108,00 0,00 0,00 0,00 0,00 253,40 28/02/2022
1004 293400 CARLOS WILDE RIBEIRO DE MELLO PROMOT.ENTRANC.ESPECIAL BARBACENA - COMARCA; BARBACENA-PJ-07PJ 1.198,00 0,00 2.858,63 0,00 11.229,70 0,00 0,00 0,00 514,69 28/02/2022
1005 1265300 CARMELITA DE ALMEIDA SOUZA ESTAGIARIO PRATAPOLIS; PRATAPOLIS-PJ-UNPJ 0,00 0,00 0,00 108,00 0,00 0,00 0,00 0,00 0,00 28/02/2022
1006 399900 CARMELITA EVANGELISTA DE SOUZA OFICIAL DO MP JOÃO PINHEIRO - COMARCA; JOAO PINHEIRO-PJ-01PJ 1.198,00 0,00 519,00 0,00 4.529,76 0,00 0,00 0,00 415,23 28/02/2022
1007 202000 CARMEN LUCIA MARIZ DE MACEDO OFICIAL DO MP BELO HORIZONTE - COMARCA; DIRETORIA GESTAO COMPRAS LICITACOES 1.198,00 0,00 519,00 0,00 0,00 0,00 0,00 0,00 0,00 28/02/2022
1008 1312300 CAROLINA ABREU DOS SANTOS ESTAGIARIO SETE LAGOAS; SETE LAGOAS-PJ-01PJ 0,00 0,00 0,00 189,00 0,00 0,00 0,00 0,00 0,00 28/02/2022
1009 1315000 CAROLINA AMARAL OLIVEIRA RODRIGUES ESTAGIARIO MONTES CLAROS; COORD REG SAUDE MACRORREGIAO SANITARIA NORTE 0,00 0,00 0,00 153,00 0,00 0,00 0,00 0,00 0,00 28/02/2022
1010 359700 CAROLINA ANDRADE BORGES DE MATTOS PROMOTOR SUBSTITUTO BICAS - COMARCA; BICAS-PJ-UNPJ 1.198,00 0,00 2.390,00 0,00 0,00 0,00 0,00 0,00 0,00 28/02/2022
1011 1385900 CAROLINA AQUINO DE SOUSA NUNES ESTAGIARIO CONTAGEM; CONTAGEM-PJ-06PJ 0,00 0,00 0,00 108,00 0,00 0,00 0,00 0,00 0,00 28/02/2022
1012 1403600 CAROLINA BEDESCHI CALAIS ESTAGIARIO BELO HORIZONTE; GABINETE DE PROCURADOR DE JUSTIÇA - SALA 707 0,00 0,00 0,00 18,00 0,00 0,00 0,00 0,00 0,00 28/02/2022
1013 701900 CAROLINA CARVALHO COSTA ASSESSOR PROCURADOR JUSTICA BELO HORIZONTE - COMARCA; GABINETE DE PROCURADOR DE JUSTIÇA - SALA 811 1.198,00 0,00 519,00 0,00 0,00 0,00 0,00 0,00 0,00 28/02/2022
1014 611000 CAROLINA CERIGATTO PROMOT.ENTRANC.ESPECIAL GOVERNADOR VALADARES - COMARCA; GOVERNADOR VALADARES-PJ-11PJ 1.198,00 0,00 0,00 0,00 11.229,70 0,00 0,00 0,00 514,69 28/02/2022
1015 228500 CAROLINA CHIARELLA DOS SANTOS RIBEIRO COORDENADOR/OFICIAL BELO HORIZONTE - COMARCA; DIVISAO TRANSPORTES 1.198,00 0,00 519,00 0,00 0,00 0,00 0,00 0,00 0,00 28/02/2022
1016 446500 CAROLINA COSTA VAL RODRIGUES COORDENADOR/ANALISTA BELO HORIZONTE - COMARCA; DIVISAO DE MATERIAIS 1.198,00 0,00 519,00 0,00 5.752,85 0,00 0,00 0,00 527,34 28/02/2022
1017 1198800 CAROLINA DINIZ MENDES ESTAGIARIO BELO HORIZONTE; BH-18PJ VIOLENCIA DOMESTICA-GAB 053PJ 0,00 0,00 0,00 189,00 0,00 0,00 0,00 0,00 241,00 28/02/2022
1018 603501 CAROLINA DOMINGOS BRANDAO RABELLO ANALISTA DO MP BARROSO - COMARCA; BARROSO-PJ-01PJ 1.198,00 0,00 519,00 0,00 0,00 0,00 0,00 0,00 0,00 28/02/2022
1019 404300 CAROLINA DOS SANTOS VIEIRA ANALISTA DO MP BELO HORIZONTE - COMARCA; BH-08PJ JUIZADO ESPECIAL-SECRETARIA 1.198,00 0,00 519,00 0,00 0,00 0,00 0,00 0,00 0,00 28/02/2022
1020 634600 CAROLINA FRARE LAMEIRINHA PROMOTOR 2A ENTRANCIA PATOS DE MINAS - COMARCA; COORD REG BACIAS PARACATU,URUCUIA E ABAETE 1.198,00 0,00 2.169,67 0,00 0,00 0,00 0,00 0,00 0,00 28/02/2022
1021 405401 CAROLINA GENTIL MEDEIROS MARQUEZ PROMOTOR SUBSTITUTO RIBEIRÃO DAS NEVES - COMARCA; RIBEIRAO DAS NEVES-PJ-11PJ 1.198,00 0,00 3.040,44 0,00 10.134,80 0,00 0,00 0,00 464,51 28/02/2022
1022 551200 CAROLINA LOPES ARANTES MASCARENHAS ANALISTA DO MP BELO HORIZONTE - COMARCA; EXTINTA-COORD EST DEF DIR FAM PES DEFIC IDOSO 1.198,00 885,30 519,00 0,00 0,00 0,00 0,00 0,00 0,00 28/02/2022
1023 622600 CAROLINA LOREDO LOPES CATIZANI OFICIAL DO MP RIBEIRÃO DAS NEVES - COMARCA; RIBEIRAO DAS NEVES-PJ-12PJ 1.198,00 0,00 519,00 0,00 0,00 0,00 0,00 0,00 0,00 28/02/2022
1024 1244000 CAROLINA MARIA DE ANDRADE RAMOS ESTAGIARIO GUARANI; GUARANI-PJ-UNPJ 0,00 0,00 0,00 189,00 0,00 0,00 0,00 0,00 0,00 28/02/2022
1025 362900 CAROLINA MARQUES ANDRADE PROMOT.ENTRANC.ESPECIAL UBERABA - COMARCA; UBERABA-PJ-16PJ 1.198,00 0,00 3.105,50 0,00 13.475,64 0,00 0,00 0,00 514,69 28/02/2022
1026 457400 CAROLINA MELO CAMPOS PROMOTOR SUBSTITUTO RIBEIRÃO DAS NEVES - COMARCA; RIBEIRAO DAS NEVES-PJ-10PJ 1.198,00 0,00 937,25 0,00 5.067,40 0,00 0,00 0,00 464,51 28/02/2022
1027 382200 CAROLINA MENDES CHAVES LIN ANALISTA DO MP BELO HORIZONTE - COMARCA; BH-12PJ JUIZO CRIMINAL-GAB 088PJ 1.198,00 885,30 519,00 0,00 0,00 0,00 0,00 0,00 0,00 28/02/2022
1028 313600 CAROLINA MENDONCA DE SIQUEIRA PROMOT.ENTRANC.ESPECIAL BETIM - COMARCA; BETIM-PJ-08PJ 1.198,00 0,00 1.405,88 0,00 5.614,85 0,00 0,00 0,00 514,69 28/02/2022
1029 461900 CAROLINA MURTA TEIXEIRA DIAS ANALISTA DO MP BELO HORIZONTE - COMARCA; CENTRO AUTOCOMPOSICAO DE CONFLITOS 1.198,00 0,00 519,00 0,00 0,00 0,00 0,00 0,00 0,00 28/02/2022
1030 1279400 CAROLINA OLIVEIRA SARDINHA ESTAGIARIO BELO HORIZONTE; DIRETORIA DE PAGAMENTO DE PESSOAL-DPAG 0,00 0,00 0,00 126,00 0,00 0,00 0,00 0,00 0,00 28/02/2022
1031 1193900 CAROLINA PEREIRA VIEIRA ESTAGIARIO BELO HORIZONTE; GABINETE DE PROCURADOR DE JUSTIÇA - SALA 406 0,00 0,00 0,00 126,00 0,00 0,00 0,00 0,00 0,00 28/02/2022
1032 509600 CAROLINA PINTO DE OLIVEIRA SOUZA ANALISTA DO MP MURIAÉ - COMARCA; MURIAE-PJ-01PJ 1.198,00 885,30 519,00 0,00 5.800,10 0,00 0,00 0,00 531,68 28/02/2022
1033 526400 CAROLINA QUEIROZ DE CARVALHO PROMOT.ENTRANC.ESPECIAL CONSELHEIRO LAFAIETE - COMARCA; CONSELHEIRO LAFAIETE-PJ-02PJ 1.198,00 0,00 2.653,03 0,00 0,00 0,00 0,00 0,00 0,00 28/02/2022
1034 667000 CAROLINA RITA TORRES GRUBER PROMOTOR 2A ENTRANCIA SÃO FRANCISCO - COMARCA; SAO FRANCISCO-PJ-01PJ 1.198,00 0,00 1.593,34 0,00 10.668,22 0,00 0,00 0,00 488,96 28/02/2022
1035 629100 CAROLINA RODRIGUES AMARAL ANALISTA DO MP BELO HORIZONTE - COMARCA; PROC. JUSTICA DIR. DIFUSOS E COLETIVOS-SEC 1.198,00 0,00 519,00 0,00 0,00 0,00 0,00 0,00 0,00 28/02/2022
1036 502600 CAROLINA RODRIGUES RUBEN ANALISTA DO MP BELO HORIZONTE - COMARCA; BH-18PJ VIOLENCIA DOMESTICA-GAB 007PJ 1.198,00 1.770,60 519,00 0,00 5.800,10 0,00 0,00 0,00 531,68 28/02/2022
1037 1176700 CAROLINA SOUZA ALVES ESTAGIARIO SABARA; SABARA-PJ-03PJ
1038 1144200 CAROLINA TEIXEIRA SILVA ESTAGIARIO ARINOS; ARINOS-PJ-UNPJ 0,00 0,00 0,00 189,00 0,00 0,00 0,00 0,00 0,00 28/02/2022
1039 1261000 CAROLINA VALADARES TANTIKITMANEE ESTAGIARIO BELO HORIZONTE; DIRETORIA DE PRODUCAO EDITORIAL 0,00 0,00 0,00 45,00 0,00 0,00 0,00 0,00 0,00 28/02/2022
1040 529600 CAROLINA VAZ DE MELO MAMBRINI ANALISTA DO MP BELO HORIZONTE - COMARCA; BH-14PJ DEFESA CONSUMIDOR-GAB 005PJ 1.198,00 0,00 519,00 0,00 0,00 0,00 0,00 0,00 0,00 28/02/2022
1041 619100 CAROLINA ZAKHIA NARDELLI RODRIGUES ANALISTA DO MP NEPOMUCENO - COMARCA; NEPOMUCENO-PJ-UNPJ 1.198,00 885,30 519,00 0,00 402,46 0,00 0,00 0,00 36,89 28/02/2022
1042 517600 CAROLINE ALVES DE OLIVEIRA MULLER ANALISTA DO MP VISCONDE DO RIO BRANCO - COMARCA; VISCONDE DO RIO BRANCO-PJ-01PJ 1.198,00 0,00 519,00 0,00 1.450,02 0,00 0,00 0,00 132,92 28/02/2022
1043 373200 CAROLINE ANTUNES RIBEIRO OFICIAL DO MP JACUI - COMARCA; JACUI-PJ-UNPJ 1.198,00 0,00 519,00 0,00 5.268,63 0,00 0,00 0,00 482,96 28/02/2022
1044 1201600 CAROLINE APARECIDA SOARES FERREIRA ESTAGIARIO ITAJUBA; ITAJUBA-PJ-01PJ 0,00 0,00 0,00 81,00 0,00 0,00 0,00 0,00 0,00 28/02/2022
1045 1294300 CAROLINE CRISTINA DA COSTA MAIA ESTAGIARIO PATOS DE MINAS; COORD REG PJ DEF EDU DIR CRI ADO AL PAR NOROE 0,00 0,00 0,00 189,00 0,00 0,00 0,00 0,00 0,00 28/02/2022
1046 556800 CAROLINE DE SOUZA CARDOSO DOMINGUES OFICIAL DO MP BRASÍLIA DE MINAS - COMARCA; BRASILIA DE MINAS-PJ-02PJ 1.198,00 0,00 519,00 0,00 0,00 0,00 0,00 0,00 0,00 28/02/2022
1047 1143700 CAROLINE ESTEVES DE CARVALHO ESTAGIARIO 0,00 0,00 0,00 9,00 0,00 0,00 0,00 0,00 0,00 28/02/2022
1048 499400 CAROLINE MARQUES DE LOURDES MARZULLO OFICIAL DO MP JUIZ DE FORA - COMARCA; JUIZ DE FORA-PJ-08PJ 1.198,00 1.327,95 519,00 0,00 0,00 0,00 0,00 0,00 0,00 28/02/2022
1049 616800 CAROLINE MONTEIRO DE BARROS ANALISTA DO MP CONTAGEM - COMARCA; CONTAGEM-PJ-11PJ 1.198,00 0,00 519,00 0,00 402,46 0,00 0,00 0,00 36,89 28/02/2022
1050 1395700 CAROLINE OLIVEIRA MOREIRA DOS SANTOS ESTAGIARIO IBIRITE; IBIRITE-PJ-03PJ 0,00 0,00 0,00 117,00 0,00 0,00 0,00 0,00 0,00 28/02/2022
1051 1401200 CAROLINE ORLETTI GUARISE ESTAGIARIO GOVERNADOR VALADARES; GOVERNADOR VALADARES-PJ-01PJ 0,00 0,00 0,00 27,00 0,00 0,00 0,00 0,00 0,00 28/02/2022
1052 342500 CAROLINE PESTANA GOMES PROMOT.ENTRANC.ESPECIAL VESPASIANO - COMARCA; VESPASIANO-PJ-06PJ 1.198,00 0,00 3.368,91 0,00 13.475,64 0,00 0,00 0,00 514,69 28/02/2022
1053 1368000 CAROLINE SILVA LOPES ESTAGIARIO BELO HORIZONTE; PROC. JUSTICA DIR. DIFUSOS E COLETIVOS 0,00 0,00 0,00 189,00 0,00 0,00 0,00 0,00 0,00 28/02/2022
1054 1310800 CAROLINE STHEFANE TEIXEIRA MIRANDA ESTAGIARIO LAGOA DA PRATA; LAGOA DA PRATA-PJ-01PJ 0,00 0,00 0,00 189,00 0,00 0,00 0,00 0,00 0,00 28/02/2022
1055 618100 CAROLINE VASCONCELOS COSTA LANZA ANALISTA DO MP PARAOPEBA - COMARCA; PARAOPEBA-PJ-UNPJ 1.198,00 2.655,90 519,00 0,00 0,00 0,00 0,00 0,00 0,00 28/02/2022
1056 1253900 CAROLINNY MARTINS DE OLIVEIRA ESTAGIARIO BELO HORIZONTE; DIRET DE ESTAGIOS E CONVENIOS ACADEMICOS 0,00 0,00 0,00 27,00 0,00 0,00 0,00 0,00 0,00 28/02/2022
1057 699000 CAROLLINA RODRIGUES SOUTO AMARAL ASSESSOR PROCURADOR JUSTICA BELO HORIZONTE - COMARCA; GABINETE DE PROCURADOR DE JUSTIÇA - SALA 405 1.198,00 0,00 519,00 0,00 0,00 0,00 0,00 0,00 0,00 28/02/2022
1058 210600 CASSANDRA DA CONCEICAO DANTAS SERRAO PROMOT.ENTRANC.ESPECIAL BELO HORIZONTE - COMARCA; BH-02PJ FAMILIA-GAB 026PJ 1.198,00 0,00 2.015,10 0,00 5.614,85 0,00 0,00 0,00 0,00 28/02/2022
1059 604000 CASSIA APARECIDA DA SILVA OFICIAL DO MP PARACATU - COMARCA; PARACATU-PJ-01PJ 1.198,00 0,00 519,00 0,00 0,00 0,00 0,00 0,00 0,00 28/02/2022
1060 268800 CASSIA BEATRIZ TEIXEIRA OFICIAL DO MP BELO HORIZONTE - COMARCA; PROC JUST ESP ACOES COMP ORIG CRIMINAL-SEC 1.198,00 0,00 519,00 0,00 5.412,79 0,00 0,00 0,00 496,17 28/02/2022
1061 500000 CASSIA DE OLIVEIRA COSTA VIANA ANALISTA DO MP SETE LAGOAS - COMARCA; SETE LAGOAS-PJ-09PJ 1.198,00 0,00 519,00 0,00 0,00 0,00 0,00 0,00 0,00 28/02/2022
1062 368800 CASSIA LUISA BATISTA MENDONCA WEBER OFICIAL DO MP BELO HORIZONTE - COMARCA; DIVISÃO DE EDUCAÇÃO PARA O CONSUMO 1.198,00 0,00 519,00 0,00 0,00 0,00 0,00 0,00 0,00 28/02/2022
1063 622200 CASSIA VAZ DE AZEVEDO LISBOA MARZANO ASSESSOR BELO HORIZONTE - COMARCA; CGMP-SECRETARIA DA CORREGEDORIA-GERAL DO MP 1.198,00 885,30 519,00 0,00 0,00 0,00 0,00 0,00 0,00 28/02/2022
1064 156100 CASSIA VIRGINIA SERRA TEIXEIRA GONTIJO PROCURADOR DE JUSTICA BELO HORIZONTE - COMARCA; GABINETE DE PROCURADOR DE JUSTIÇA - SALA 804 1.198,00 0,00 2.694,61 0,00 11.820,74 0,00 0,00 0,00 541,78 28/02/2022
1065 121000 CASSIO HENRIQUE AFONSO DA SILVA OFICIAL DO MP BELO HORIZONTE - COMARCA; CGMP-ASSESSORIA JURIDICA 1.198,00 0,00 519,00 0,00 5.119,08 0,00 0,00 0,00 469,25 28/02/2022
1066 1374800 CASSIO LUCAS RIBAS NUNES ESTAGIARIO SAO LOURENCO; SAO LOURENCO-PJ-03PJ 0,00 0,00 0,00 144,00 0,00 0,00 0,00 0,00 0,00 28/02/2022
1067 512001 CATARINA NATALINO CALIXTO COORDENADOR/ANALISTA BELO HORIZONTE - COMARCA; DIRETORIA GESTAO TRANSPORTES 1.198,00 0,00 519,00 0,00 0,00 0,00 0,00 0,00 0,00 28/02/2022
1068 606200 CATARINE DE SIQUEIRA DE QUADROS ANALISTA DO MP CONTAGEM - COMARCA; CONTAGEM-PJ-07PJ 1.198,00 885,30 519,00 0,00 4.571,23 0,00 0,00 0,00 419,03 28/02/2022
1069 622300 CECILIA APARECIDA PEREIRA ASSUNCAO OFICIAL DO MP TRÊS PONTAS - COMARCA; TRES PONTAS-PJ-SECRETARIA 1.198,00 885,30 519,00 0,00 782,86 0,00 0,00 0,00 71,76 28/02/2022
1070 538000 CECILIA FONTES DE MATOS PIMENTEL ANALISTA DO MP PALMA - COMARCA; PALMA-PJ-UNPJ 1.198,00 885,30 519,00 0,00 5.817,94 0,00 0,00 0,00 533,31 28/02/2022
1071 261300 CECILIO ANTONIO CAMPOS DOS REIS ANALISTA DO MP BELO HORIZONTE - COMARCA; AUDITORIA INTERNA 1.198,00 0,00 519,00 0,00 5.871,88 0,00 0,00 0,00 538,26 28/02/2022
1072 386400 CEFAS AMORELI DE FIGUEIREDO OFICIAL DO MP CABO VERDE - COMARCA; CABO VERDE-PJ-SECRETARIA 1.198,00 0,00 519,00 0,00 0,00 0,00 0,00 0,00 0,00 28/02/2022
1073 105600 CELIA BEATRIZ GOMES DOS SANTOS PROCURADOR DE JUSTICA BELO HORIZONTE - COMARCA; PROC JUSTICA DIR DIFUSOS E COLETIVOS-GAB006 1.198,00 0,00 1.851,08 0,00 11.820,74 0,00 0,00 0,00 541,78 28/02/2022
1074 149000 CELIA MAGALHAES CLAROS SOSSI OFICIAL DO MP GOVERNADOR VALADARES - COMARCA; GAECO REGIONAL DE GOVERNADOR VALADARES 1.198,00 0,00 519,00 0,00 5.920,73 0,00 0,00 0,00 542,73 28/02/2022
1075 421000 CELINA BENEDITA DE SOUZA ALMEIDA OFICIAL DO MP CAMBUÍ - COMARCA; CAMBUI-PJ-01PJ 1.198,00 0,00 519,00 0,00 5.846,56 0,00 0,00 0,00 535,93 28/02/2022
1076 1365700 CELIO AUGUSTO SANTOS RODRIGUES ESTAGIARIO PEDRA AZUL; PEDRA AZUL-PJ-01PJ 0,00 0,00 0,00 189,00 0,00 0,00 0,00 0,00 0,00 28/02/2022
1077 252900 CELIO DE MELO CASTOR ANALISTA DO MP BELO HORIZONTE - COMARCA; DIVISAO FROTA 1.198,00 0,00 519,00 0,00 0,00 0,00 0,00 0,00 0,00 28/02/2022
1078 486300 CELIO DIMAS ESTEVES RUAS PROMOT.ENTRANC.ESPECIAL CORONEL FABRICIANO - COMARCA; CORONEL FABRICIANO-PJ-02PJ 1.198,00 0,00 3.368,91 0,00 5.614,85 0,00 0,00 0,00 514,69 28/02/2022
1079 395700 CELIO FERREIRA LIMA OFICIAL DO MP CONTAGEM - COMARCA; CONTAGEM-PJ-SECRETARIA 1.198,00 0,00 519,00 0,00 0,00 0,00 0,00 0,00 0,00 28/02/2022
1080 281300 CELMA REGINA PEREIRA SANTOS ANALISTA DO MP BELO HORIZONTE - COMARCA; PROMOT ESTADUAL DE DEF PATRI CULT E TUR DE MG 1.198,00 0,00 519,00 0,00 0,00 0,00 0,00 0,00 0,00 28/02/2022
1081 535600 CELSO MEDEIROS DE PAIVA OFICIAL DO MP RIO PRETO - COMARCA; RIO PRETO-PJ-SECRETARIA 1.198,00 0,00 519,00 0,00 244,76 158,76 0,00 0,00 22,44 28/02/2022
1082 157700 CELSO PENNA FERNANDES JUNIOR PROMOT.ENTRANC.ESPECIAL BELO HORIZONTE - COMARCA; BH-23PJ CIVEL-GAB 162PJ 1.198,00 0,00 2.694,61 0,00 5.614,85 0,00 0,00 0,00 514,69 28/02/2022
1083 93700 CESAR ANTONIO COSSI PROCURADOR DE JUSTICA BELO HORIZONTE - COMARCA; GABINETE DE PROCURADOR DE JUSTIÇA - SALA 805 1.198,00 0,00 2.858,63 0,00 5.910,37 0,00 0,00 0,00 541,78 28/02/2022
1084 293100 CESAR ANTONIO DE LIMA PROMOT.ENTRANC.ESPECIAL POÇOS DE CALDAS - COMARCA; POCOS DE CALDAS-PJ-03PJ 1.198,00 0,00 2.898,63 0,00 11.229,70 0,00 0,00 0,00 514,69 28/02/2022
1085 293800 CESAR AUGUSTO DOS SANTOS PROMOT.ENTRANC.ESPECIAL BELO HORIZONTE - COMARCA; BH-12PJ JUIZO CRIMINAL-GAB 091PJ 1.198,00 0,00 984,12 0,00 11.229,70 0,00 0,00 0,00 514,69 28/02/2022
1086 367000 CESAR NARVAES DE AVELAR OFICIAL DO MP BELO HORIZONTE - COMARCA; DIVISAO DE MEMORIA INSTITUCIONAL 1.198,00 0,00 519,00 0,00 0,00 0,00 0,00 0,00 0,00 28/02/2022
1087 226500 CESAR SILVEIRA BARROUIN OFICIAL DO MP BELO HORIZONTE - COMARCA; DIRETORIA DE ADMINISTRACAO FINANCEIRA 1.198,00 0,00 519,00 0,00 5.829,16 0,00 0,00 0,00 534,34 28/02/2022
1088 293500 CESAR YOSHIKAWA PROMOT.ENTRANC.ESPECIAL BELO HORIZONTE - COMARCA; BH-12PJ JUIZO CRIMINAL-GAB 083PJ 1.198,00 0,00 2.530,59 0,00 11.229,70 0,00 0,00 0,00 514,69 28/02/2022
1089 1125600 CEZAR AUGUSTO RANGEL MARQUES ESTAGIARIO JUIZ DE FORA; JUIZ DE FORA-PJ-22PJ 0,00 0,00 0,00 18,00 0,00 0,00 0,00 0,00 0,00 28/02/2022
1090 121400 CEZAR MORENO CONCEICAO TAVARES OFICIAL DO MP BELO HORIZONTE - COMARCA; COORD DE INCLUSAO E MOBILIZACAO SOCIAIS 1.198,00 885,30 519,00 0,00 5.920,73 0,00 0,00 0,00 542,73 28/02/2022
1091 1175900 CHARLENE MARISE DA SILVA ESTAGIARIO ESMERALDAS; ESMERALDAS-PJ-02PJ 0,00 0,00 0,00 108,00 0,00 0,00 0,00 0,00 0,00 28/02/2022
1092 664100 CHARLES BARBOSA DA SILVA 3O.SARGENTO BELO HORIZONTE - COMARCA; NUCLEO DE OPERACOES DE SEGURANCA DE PESSOAL 1.198,00 0,00 0,00 0,00 0,00 0,00 0,00 0,00 0,00 28/02/2022
1093 210400 CHARLES DANIEL FRANCA SALOMAO PROMOT.ENTRANC.ESPECIAL PARÁ DE MINAS - COMARCA; PARA DE MINAS-PJ-02PJ 1.198,00 0,00 1.921,38 0,00 0,00 0,00 0,00 0,00 0,00 28/02/2022
1094 669200 CHARLES HENRIQUE SQUARCIO CABO BELO HORIZONTE - COMARCA; GAECO - SETOR POLICIAL MILITAR 1.198,00 0,00 0,00 0,00 0,00 0,00 0,00 0,00 0,00 28/02/2022
1095 243800 CHARLES MARTINS MUNIZ OFICIAL DO MP BELO HORIZONTE - COMARCA; LAB TECNOLOGIA CONTRA LAVAGEM DINHEIRO 1.198,00 0,00 0,00 0,00 5.829,16 0,00 0,00 0,00 534,34 28/02/2022
1096 193500 CHARLIN CESAR KOURLY OFICIAL DO MP ARAGUARI - COMARCA; ARAGUARI-PJ-07PJ 1.198,00 0,00 519,00 0,00 5.628,28 0,00 0,00 0,00 515,93 28/02/2022
1097 385500 CHILLEN PEIXOTO DE MOURA OFICIAL DO MP BELO HORIZONTE - COMARCA; DIVISAO DE MATERIAIS 1.198,00 885,30 519,00 0,00 0,00 0,00 0,00 0,00 0,00 28/02/2022
1098 1387400 CHISTOFER MACHADO ROSA ESTAGIARIO DIVINOPOLIS; DIVINOPOLIS-PJ-12PJ 0,00 0,00 0,00 189,00 0,00 0,00 0,00 0,00 0,00 28/02/2022
1099 534500 CHRISTIAN DOUGLAS BRITO RUAS OFICIAL DO MP SÃO JOÃO DA PONTE - COMARCA; SAO JOAO DA PONTE-PJ-SECRETARIA 1.198,00 0,00 519,00 0,00 808,34 0,00 0,00 0,00 74,10 28/02/2022
1100 370600 CHRISTIAN KARINE FELIX PRATES ASSESSOR BELO HORIZONTE - COMARCA; SUPRIN DE PLANEJAMENTO E COORDENACAO 1.198,00 0,00 519,00 0,00 0,00 0,00 0,00 0,00 0,00 28/02/2022
1101 435800 CHRISTIANA BAHIA ANDRADE PINA ANALISTA DO MP BELO HORIZONTE - COMARCA; LABORATORIO TECNOLOGIA INTELIGENCIA 1.198,00 885,30 519,00 0,00 5.500,51 0,00 0,00 0,00 504,21 28/02/2022
1102 516800 CHRISTIANE FERREIRA DO NASCIMENTO ANALISTA DO MP POUSO ALEGRE - COMARCA; POUSO ALEGRE-PJ-08PJ 1.198,00 0,00 519,00 0,00 0,00 0,00 0,00 0,00 0,00 28/02/2022
1103 176000 CHRISTIANE JUNQUEIRA PULITI ANDRADE DE BARROS ASSESSOR BELO HORIZONTE - COMARCA; PROCURADORIA-GERAL ADJUNTA INSTITUCIONAL 1.198,00 0,00 519,00 0,00 0,00 0,00 0,00 0,00 0,00 28/02/2022
1104 319200 CHRISTIANE MARIA DE ASSIS RUSSO OFICIAL DO MP BELO HORIZONTE - COMARCA; CAO-ORDEM ECONOMICA E TRIBUTARIA-SECRETARIA 1.198,00 885,30 519,00 0,00 0,00 0,00 0,00 0,00 0,00 28/02/2022
1105 510300 CHRISTIANE MARY DE CARVALHO FERREIRA ANALISTA DO MP BELO HORIZONTE - COMARCA; DIRETORIA DE SISTEMAS DE INFORMACAO 1.198,00 0,00 519,00 0,00 0,00 0,00 0,00 0,00 0,00 28/02/2022
1106 424900 CHRISTIANE PEREIRA TURNER DE ARAUJO OFICIAL DO MP BELO HORIZONTE - COMARCA; CAO-PATRIMONIO PUBLICO 1.198,00 885,30 519,00 0,00 4.677,25 0,00 0,00 0,00 428,75 28/02/2022
1107 513700 CHRISTIANE VIEIRA SOARES PEDERSOLI COORDENADOR/ANALISTA BELO HORIZONTE - COMARCA; ASSESSORIA JURIDICA DO PROCON-MG 1.198,00 0,00 519,00 0,00 0,00 0,00 0,00 0,00 0,00 28/02/2022
1108 163300 CHRISTIANNE COTRIM ASSAD BENSOUSSAN PROMOT.ENTRANC.ESPECIAL BELO HORIZONTE - COMARCA; BH-12PJ JUIZO CRIMINAL-GAB 087PJ 1.198,00 0,00 3.092,94 0,00 11.229,70 0,00 0,00 0,00 514,69 28/02/2022
1109 371400 CHRISTIANO LEONARDO GONZAGA GOMES PROMOTOR 2A ENTRANCIA SABARÁ - COMARCA; SABARA-PJ-01PJ 1.198,00 0,00 1.405,88 0,00 5.334,11 0,00 0,00 0,00 488,96 28/02/2022
1110 412300 CHRYSTIAN MACHADO RIBEIRO ANALISTA DO MP VARGINHA - COMARCA; VARGINHA-PJ-04PJ 1.198,00 0,00 519,00 0,00 5.500,51 0,00 0,00 0,00 504,21 28/02/2022
1111 513800 CHRYSTIANE DO NASCIMENTO DE MAGALHAES OFICIAL DO MP UBERLÂNDIA - COMARCA; UBERLANDIA-PJ-10PJ 1.198,00 0,00 519,00 0,00 3.310,57 0,00 0,00 0,00 303,47 28/02/2022
1112 497900 CIBELE DE FREITAS SANCHES DIAS ANALISTA DO MP SABARÁ - COMARCA; SABARA-PJ-03PJ 1.198,00 0,00 519,00 0,00 5.800,10 0,00 0,00 0,00 531,68 28/02/2022
1113 500900 CIBELLE SILVA PRADO ALVARENGA ANALISTA DO MP ITANHANDU - COMARCA; ITANHANDU-PJ-UNPJ 1.198,00 885,30 519,00 0,00 5.800,10 0,00 0,00 0,00 531,68 28/02/2022
1114 1364400 CIBELLY OLIVEIRA SOARES ESTAGIARIO TEOFILO OTONI; TEOFILO OTONI-PJ-07PJ 0,00 0,00 0,00 162,00 0,00 0,00 0,00 0,00 0,00 28/02/2022
1115 1271700 CINARA DE CAMPOS ESTEVES ESTAGIARIO CURVELO; CURVELO-PJ-03PJ 0,00 0,00 0,00 144,00 0,00 0,00 0,00 0,00 0,00 28/02/2022
1116 296400 CINTIA APARECIDA MOREIRA NAVES E RODRIGUES ANALISTA DO MP CAMPO BELO - COMARCA; CAMPO BELO-PJ-01PJ 1.198,00 0,00 519,00 0,00 5.648,25 0,00 0,00 0,00 517,76 28/02/2022
1117 171200 CINTIA MARIA OLIVEIRA DE LUCENA PROMOT.ENTRANC.ESPECIAL BELO HORIZONTE - COMARCA; BH-23PJ INFRACIONAL-GAB 144PJ 1.198,00 0,00 2.015,10 0,00 11.229,70 0,00 0,00 0,00 514,69 28/02/2022
1118 1209800 CINTIA MOREIRA SILVA ESTAGIARIO BELO VALE; BELO VALE-PJ-UNPJ 0,00 0,00 0,00 54,00 0,00 0,00 0,00 0,00 0,00 28/02/2022
1119 407900 CINTIA NETO COMELLI ANALISTA DO MP BELO HORIZONTE - COMARCA; CENTRAL DE APOIO TECNICO-SETOR CONTABIL 1.198,00 0,00 519,00 0,00 0,00 0,00 0,00 0,00 0,00 28/02/2022
1120 304700 CINTIA QUEIROZ OFICIAL DO MP BELO HORIZONTE - COMARCA; OUVIDORIA DO MPMG 1.198,00 0,00 519,00 0,00 5.759,82 0,00 0,00 0,00 527,98 28/02/2022
1121 163000 CINTIA ROBERTA GOMES DE LIMA PROMOTOR 2A ENTRANCIA VARGINHA - COMARCA; COORD REG PJ DEF EDUC DIR CRIANCA ADOL SUL 1.198,00 0,00 1.921,38 0,00 5.334,11 0,00 0,00 0,00 488,96 28/02/2022
1122 286100 CIRO CANGUSSU CORDEIRO OFICIAL DO MP IPATINGA - COMARCA; IPATINGA-PJ-09PJ 1.198,00 885,30 519,00 0,00 0,00 0,00 0,00 0,00 0,00 28/02/2022
1123 1345100 CIRO SILVA PERES ESTAGIARIO 0,00 0,00 0,00 117,00 0,00 0,00 0,00 0,00 0,00 28/02/2022
1124 689900 CISSA NOGUEIRA NUNES ASSESSOR PROCURADOR JUSTICA BELO HORIZONTE - COMARCA; GABINETE DE PROCURADOR DE JUSTIÇA - SALA 608 1.198,00 0,00 519,00 0,00 0,00 0,00 0,00 0,00 0,00 28/02/2022
1125 1384800 CLARA ALICE COSTA GONTIJO ESTAGIARIO SANTA RITA DO SAPUCAI; SANTA RITA DO SAPUCAI-PJ-01PJ 0,00 0,00 0,00 171,00 0,00 0,00 0,00 0,00 0,00 28/02/2022
1126 1345900 CLARA ATAIDE LOPES DE SOUZA ESTAGIARIO 0,00 0,00 0,00 72,00 0,00 0,00 0,00 0,00 0,00 28/02/2022
1127 1404100 CLARA COSTA MATTEDI ESTAGIARIO OURO PRETO; OURO PRETO-PJ-03PJ 0,00 0,00 0,00 9,00 0,00 0,00 0,00 0,00 0,00 28/02/2022
1128 1381300 CLARA DE SALES DUARTE ESTAGIARIO BELO HORIZONTE; GABINETE DE PROCURADOR DE JUSTIÇA - SALA 305 0,00 0,00 0,00 54,00 0,00 0,00 0,00 0,00 0,00 28/02/2022
1129 681700 CLARA FERREIRA ALKIMIM ASSESSOR PROMOTOR JUSTICA PEDRA AZUL - COMARCA; PEDRA AZUL-PJ-02PJ 1.198,00 0,00 519,00 0,00 4.312,63 0,00 0,00 0,00 395,32 28/02/2022
1130 715500 CLARA ISABELLE SOUSA FARIA ASSESSOR PROCURADOR JUSTICA BELO HORIZONTE - COMARCA; GABINETE DE PROCURADOR DE JUSTIÇA - SALA 714 1.960,36 0,00 1.038,00 0,00 0,00 0,00 0,00 0,00 4.312,63 28/02/2022
1131 1261100 CLARA LIMA LIPOVETSKY ESTAGIARIO BELO HORIZONTE; CORREGEDORIA-GERAL-ASSESSORIA 0,00 0,00 0,00 45,00 0,00 0,00 0,00 0,00 0,00 28/02/2022
1132 484900 CLARA MARIA HOEHNE SEPULVEDA PROMOT.ENTRANC.ESPECIAL SETE LAGOAS - COMARCA; SETE LAGOAS-PJ-09PJ 1.198,00 0,00 3.227,86 0,00 10.106,73 0,00 0,00 0,00 514,69 28/02/2022
1133 1157800 CLARA MARIA RODRIGUES DA SILVA ESTAGIARIO BELO HORIZONTE; BH-08PJ JUIZADO ESPECIAL-GAB 071PJ 0,00 0,00 0,00 0,00 603,33 0,00 0,00 0,00 0,00 28/02/2022
1134 695500 CLARA RODRIGUES BLACH ASSESSOR PROCURADOR JUSTICA BELO HORIZONTE - COMARCA; GABINETE DE PROCURADOR DE JUSTIÇA - SALA 1003 1.198,00 0,00 519,00 0,00 0,00 0,00 0,00 0,00 0,00 28/02/2022
1135 1332500 CLARA RODRIGUES DE SALLES ESTAGIARIO BELO HORIZONTE; BH-12PJ JUIZO CRIMINAL-GAB 085PJ 0,00 0,00 0,00 189,00 0,00 0,00 0,00 0,00 0,00 28/02/2022
1136 1324500 CLARA VIEIRA DE REZENDE ESTAGIARIO BELO HORIZONTE; PROC. JUSTICA DIR. DIFUSOS E COLETIVOS 0,00 0,00 0,00 9,00 0,00 0,00 0,00 0,00 0,00 28/02/2022
1137 412500 CLARICE GOMES MAROTTA ANALISTA DO MP BELO HORIZONTE - COMARCA; COORD ESTADUAL DE DEFESA DOS ANIMAIS 1.198,00 0,00 519,00 0,00 5.958,88 0,00 0,00 0,00 546,23 28/02/2022
1138 1367400 CLARICE SOUZA CARVALHO ESTAGIARIO BARBACENA; BARBACENA-PJ-06PJ 0,00 0,00 0,00 144,00 0,00 0,00 0,00 0,00 0,00 28/02/2022
1139 605300 CLARISSA AZEVEDO ROCHA OFICIAL DO MP BELO HORIZONTE - COMARCA; BH-17PJ PATRIMONIO PUBLICO-SECRETARIA 1.198,00 0,00 519,00 0,00 0,00 0,00 0,00 0,00 0,00 28/02/2022
1140 1387500 CLARISSA DE CARVALHO PATARO ESTAGIARIO PONTE NOVA; PONTE NOVA-PJ-02PJ 0,00 0,00 0,00 207,00 0,00 0,00 0,00 0,00 108,60 28/02/2022
1141 308100 CLARISSA DUARTE BELLONI DIRETOR/ANALISTA BELO HORIZONTE - COMARCA; DIRETORIA-GERAL 1.198,00 2.655,90 519,00 0,00 5.137,15 0,00 0,00 0,00 470,91 28/02/2022
1142 402100 CLARISSA GOBBO DOS SANTOS PROMOT.ENTRANC.ESPECIAL BELO HORIZONTE - COMARCA; GRUPO ESP PROM JUST DEF PROB ADM PAT PUB 1.198,00 0,00 3.368,91 0,00 11.229,70 0,00 0,00 0,00 514,69 28/02/2022
1143 497100 CLARISSA ROCHA GUIDI ANALISTA DO MP BELO HORIZONTE - COMARCA; BH-02PJ FAMILIA-SECRETARIA 1.198,00 1.770,60 519,00 0,00 0,00 0,00 0,00 0,00 0,00 28/02/2022
1144 661600 CLARISSE PEREZ DO NASCIMENTO NASCIF MENDES PROMOTOR 1A ENTRANCIA PIRANGA - COMARCA; PIRANGA-PJ-UNPJ 1.198,00 0,00 3.040,44 0,00 10.134,80 0,00 0,00 0,00 464,51 28/02/2022
1145 641800 CLARISSE TAVARES GONCALVES OFICIAL DO MP BELO HORIZONTE - COMARCA; BH-07PJ 01 TRIBUNAL JURI-SECRETARIA 1.198,00 0,00 519,00 0,00 0,00 0,00 0,00 0,00 0,00 28/02/2022
1146 463700 CLAUDIA ADRIANA FERRAO DIAS ANALISTA DO MP SETE LAGOAS - COMARCA; SETE LAGOAS-PJ-06PJ 1.198,00 0,00 519,00 0,00 0,00 0,00 0,00 0,00 0,00 28/02/2022
1147 415400 CLAUDIA ALMEIDA DE VASCONCELLOS BARROS ASSESSOR/OFICIAL BELO HORIZONTE - COMARCA; DIVISAO DE SERVICOS 1.198,00 0,00 519,00 0,00 5.988,97 0,00 0,00 0,00 691,15 28/02/2022
1148 207000 CLAUDIA APARECIDA VILELA MACHADO ANALISTA DO MP BELO HORIZONTE - COMARCA; CENTRAL DE APOIO TECNICO-SETOR CONTABIL 1.198,00 0,00 519,00 0,00 5.269,64 0,00 0,00 0,00 483,05 28/02/2022
1149 314400 CLAUDIA AUGUSTA LOPES DE MENDONCA PROMOT.ENTRANC.ESPECIAL BELO HORIZONTE - COMARCA; BH-09PJ AUDITORIA MILITAR-GAB 074PJ 1.198,00 0,00 3.368,91 0,00 11.229,70 0,00 0,00 0,00 514,69 28/02/2022
1150 365700 CLAUDIA BREGUEZ CUNHA ANALISTA DO MP VARGINHA - COMARCA; VARGINHA-PJ-07PJ 1.198,00 2.603,60 519,00 0,00 5.559,02 0,00 0,00 0,00 509,58 28/02/2022
1151 430500 CLAUDIA CECILIA SANTANA VENCESLAU OFICIAL DO MP BELO HORIZONTE - COMARCA; DIRETORIA DE INTELIGENCIA 1.198,00 0,00 519,00 0,00 5.952,87 0,00 0,00 0,00 545,68 28/02/2022
1152 98300 CLAUDIA DE OLIVEIRA IGNEZ PROMOTOR 2A ENTRANCIA NOVA LIMA - COMARCA; NOVA LIMA-PJ-01PJ 1.198,00 0,00 1.288,73 0,00 10.668,22 0,00 0,00 0,00 0,00 28/02/2022
1153 167300 CLAUDIA DO AMARAL XAVIER PROMOT.ENTRANC.ESPECIAL BELO HORIZONTE - COMARCA; BH-18PJ DIREITOS HUMANOS-GAB 125PJ 1.198,00 0,00 2.015,10 0,00 11.229,70 0,00 0,00 0,00 514,69 28/02/2022
1154 1270500 CLAUDIA DUARTE DE MELO ESTAGIARIO 0,00 0,00 0,00 108,00 0,00 0,00 0,00 0,00 0,00 28/02/2022
1155 163100 CLAUDIA FERREIRA DE SOUZA PROMOT.ENTRANC.ESPECIAL BELO HORIZONTE - COMARCA; BH-02PJ FAMILIA-GAB 035PJ 1.198,00 0,00 3.368,91 0,00 5.614,85 0,00 0,00 0,00 514,69 28/02/2022
1156 174500 CLAUDIA FERREIRA PACHECO DE FREITAS PROMOT.ENTRANC.ESPECIAL BELO HORIZONTE - COMARCA; SECRETARIA-GERAL-GABINETE 1.198,00 0,00 3.368,91 0,00 16.844,55 0,00 0,00 0,00 514,69 28/02/2022
1157 480400 CLAUDIA GOULART DE SOUZA OFICIAL DO MP PASSOS - COMARCA; PASSOS-PJ-06PJ 1.198,00 0,00 519,00 0,00 3.798,17 0,00 0,00 0,00 348,17 28/02/2022
1158 519800 CLAUDIA HELENA CORREA DE ALMEIDA ANALISTA DO MP BELO HORIZONTE - COMARCA; BH-12PJ JUIZO CRIMINAL-GAB 096PJ 1.198,00 0,00 519,00 0,00 6.323,72 0,00 0,00 0,00 1.538,64 28/02/2022
1159 422100 CLAUDIA IACOMINI CABRAL ANALISTA DO MP BELO HORIZONTE - COMARCA; CENT DE APOIO TEC-SETOR DEF,IDOSO E INFANC 1.198,00 0,00 519,00 0,00 0,00 0,00 0,00 0,00 0,00 28/02/2022
1160 258200 CLAUDIA LAGE MICHALAROS ANALISTA DO MP BELO HORIZONTE - COMARCA; CENTRAL DE APOIO TECN-SETOR DE MEIO AMBIENTE 1.198,00 0,00 519,00 0,00 5.119,08 0,00 0,00 0,00 469,25 28/02/2022
1161 284600 CLAUDIA LENI DE FREITAS OFICIAL DO MP CONTAGEM - COMARCA; CONTAGEM-PJ-SECRETARIA 1.198,00 0,00 519,00 0,00 0,00 0,00 0,00 0,00 0,00 28/02/2022
1162 175200 CLAUDIA LOPES SILVA SCIOLI PROMOT.ENTRANC.ESPECIAL POUSO ALEGRE - COMARCA; POUSO ALEGRE-PJ-07PJ 1.198,00 0,00 3.092,94 0,00 11.229,70 0,00 0,00 0,00 514,69 28/02/2022
1163 433600 CLAUDIA LUIZA SANTIAGO FELICIO ANALISTA DO MP BELO HORIZONTE - COMARCA; CENT DE APOIO TEC-SETOR DEF,IDOSO E INFANC 1.198,00 0,00 519,00 0,00 0,00 0,00 0,00 0,00 0,00 28/02/2022
1164 317000 CLAUDIA MACHADO ALVES ASSESSOR/OFICIAL BELO HORIZONTE - COMARCA; DIR GOVERNANCA TECNOLOGIA INFORMACAO 1.198,00 0,00 519,00 0,00 5.947,38 0,00 0,00 0,00 874,26 28/02/2022
1165 155300 CLAUDIA MACIEL MIRANDA OFICIAL DO MP CONGONHAS - COMARCA; CONGONHAS-PJ-02PJ 1.198,00 0,00 519,00 0,00 5.224,18 0,00 0,00 0,00 478,88 28/02/2022
1166 242200 CLAUDIA MICHELLE DIAS MUNIZ BALEEIRO OFICIAL DO MP MONTE AZUL - COMARCA; MONTE AZUL-PJ-SECRETARIA 1.198,00 0,00 519,00 0,00 5.829,16 0,00 0,00 0,00 534,34 28/02/2022
1167 236500 CLAUDIA NETO COMELLI PROMOT.ENTRANC.ESPECIAL BELO HORIZONTE - COMARCA; BH-23PJ INFRACIONAL-GAB 039PJ 1.198,00 0,00 3.170,07 0,00 11.229,70 0,00 0,00 0,00 514,69 28/02/2022
1168 623000 CLAUDIA PATRICIA SILVA RODRIGUES RAPOSEIRAS OFICIAL DO MP PARÁ DE MINAS - COMARCA; PARA DE MINAS-PJ-02PJ 1.198,00 885,30 519,00 0,00 0,00 0,00 0,00 0,00 0,00 28/02/2022
1169 418400 CLAUDIA REGINA MARTINS BONIFACIO OFICIAL DO MP ITUIUTABA - COMARCA; ITUIUTABA-PJ-06PJ 1.198,00 0,00 519,00 0,00 4.677,25 0,00 0,00 0,00 428,75 28/02/2022
1170 498300 CLAUDIA SOUTO FARIAS BRAUN OFICIAL DO MP TEÓFILO OTONI - COMARCA; TEOFILO OTONI-PJ-SECRETARIA 1.198,00 0,00 519,00 0,00 1.469,71 0,00 0,00 0,00 134,72 28/02/2022
1171 79600 CLAUDIA SPRANGER E SILVA LUIZ MOTTA PROCURADOR DE JUSTICA BELO HORIZONTE - COMARCA; GABINETE DE PROCURADOR DE JUSTIÇA - SALA 706 1.198,00 0,00 1.288,73 0,00 3.546,22 0,00 0,00 0,00 0,00 28/02/2022
1172 206500 CLAUDIA VALERIA FONSECA ANDRADE ANALISTA DO MP BELO HORIZONTE - COMARCA; BH-23PJ INF-FISC MED SOC FEC 1.198,00 0,00 519,00 0,00 0,00 0,00 0,00 0,00 0,00 28/02/2022
1173 277500 CLAUDIO ANTONIO BORGES BRUNSWICK ALVARES OFICIAL DO MP BELO HORIZONTE - COMARCA; BH-15PJ M AMB 16PJ HAB URB-SECRETARIA 1.198,00 0,00 519,00 0,00 0,00 0,00 0,00 0,00 0,00 28/02/2022
1174 444800 CLAUDIO ARESIO DO CARMO ANALISTA DO MP SETE LAGOAS - COMARCA; SETE LAGOAS-PJ-01PJ 1.198,00 0,00 519,00 0,00 5.587,12 0,00 0,00 0,00 512,15 28/02/2022
1175 532100 CLAUDIO DANIEL FONSECA DE ALMEIDA PROMOTOR 2A ENTRANCIA MARIANA - COMARCA; MARIANA-PJ-02PJ 1.198,00 0,00 2.225,98 0,00 10.668,22 0,00 0,00 0,00 488,96 28/02/2022
1176 76700 CLAUDIO EMANUEL DA CUNHA PROCURADOR DE JUSTICA BELO HORIZONTE - COMARCA; GABINETE DE PROCURADOR DE JUSTIÇA - SALA 305 1.198,00 0,00 2.811,76 0,00 5.910,37 0,00 0,00 0,00 0,00 28/02/2022
1177 100500 CLAUDIO FERREIRA DE OLIVEIRA FILHO PROMOTOR 2A ENTRANCIA LAMBARI - COMARCA; LAMBARI-PJ-UNPJ 1.198,00 0,00 2.694,61 0,00 16.002,33 0,00 0,00 0,00 488,96 28/02/2022
1178 545100 CLAUDIO HENRIQUE MACEDO DE SOUZA FRANSOZO ANALISTA DO MP OURO PRETO - COMARCA; OURO PRETO-PJ-03PJ 1.198,00 885,30 519,00 0,00 0,00 0,00 0,00 0,00 0,00 28/02/2022
1179 353500 CLAUDIO HENRIQUE PEDRO DA ROCHA OFICIAL DO MP BELO HORIZONTE - COMARCA; DIVISAO TRANSPORTES 1.198,00 0,00 519,00 0,00 0,00 0,00 0,00 0,00 0,00 28/02/2022
1180 265800 CLAUDIO KUPIDLOWSKY FERNANDES OFICIAL DO MP BELO HORIZONTE - COMARCA; SECRETARIA DO PROCON-MG 1.198,00 0,00 519,00 0,00 5.759,82 0,00 0,00 0,00 527,98 28/02/2022
1181 193600 CLAUDIO LEITE FONTES OFICIAL DO MP ITUIUTABA - COMARCA; ITUIUTABA-PJ-02PJ 1.198,00 0,00 519,00 0,00 5.638,99 0,00 0,00 0,00 516,91 28/02/2022
1182 102000 CLAUDIO LUIZ GONCALVES MARINS PROMOTOR 2A ENTRANCIA GUAXUPÉ - COMARCA; GUAXUPE-PJ-03PJ 1.198,00 0,00 3.200,47 0,00 5.334,11 0,00 0,00 0,00 488,96 28/02/2022
1183 163200 CLAUDIO MAIA DE BARROS PROMOT.ENTRANC.ESPECIAL BELO HORIZONTE - COMARCA; COORD EST PJ TRIBUNAL JURI 1.198,00 0,00 2.835,20 0,00 11.229,70 0,00 0,00 0,00 514,69 28/02/2022
1184 329400 CLAUDIO MARCIO BERNARDES OFICIAL DO MP ITAÚNA - COMARCA; ITAUNA-PJ-03PJ 1.198,00 885,30 519,00 0,00 4.793,14 0,00 0,00 0,00 439,37 28/02/2022
1185 1221400 CLAUDIO ODARHA NASCIMENTO ESTAGIARIO CURVELO; CURVELO-PJ-02PJ 0,00 0,00 0,00 189,00 0,00 0,00 0,00 0,00 0,00 28/02/2022
1186 270200 CLAUDIO RABELO ALVES OFICIAL DO MP FORMIGA - COMARCA; FORMIGA-PJ-03PJ 1.198,00 0,00 519,00 0,00 5.764,49 0,00 0,00 0,00 528,41 28/02/2022
1187 264700 CLAUDIO ROBERTO KFURI DE ARAUJO ANALISTA DO MP BELO HORIZONTE - COMARCA; CENTRAL DE APOIO TECNICO-SETOR DE INFORMATICA 1.198,00 0,00 519,00 0,00 0,00 0,00 0,00 0,00 0,00 28/02/2022
1188 188600 CLAUDIO SALES OFICIAL DO MP NEPOMUCENO - COMARCA; NEPOMUCENO-PJ-SECRETARIA 1.198,00 0,00 519,00 0,00 0,00 0,00 0,00 0,00 0,00 28/02/2022
1189 543300 CLAUDIO SILVA DE CARVALHO ANALISTA DO MP CAMPO BELO - COMARCA; CAMPO BELO-PJ-03PJ 1.198,00 0,00 519,00 0,00 3.774,80 0,00 0,00 0,00 346,02 28/02/2022
1190 144300 CLAUDIO VARELLA DE SOUZA PROCURADOR DE JUSTICA BELO HORIZONTE - COMARCA; GABINETE DE PROCURADOR DE JUSTIÇA - SALA 712 1.198,00 0,00 1.288,73 0,00 5.910,37 0,00 0,00 0,00 541,78 28/02/2022
1191 160700 CLAUDIO VICENTE HESS ASSESSOR BELO HORIZONTE - COMARCA; CENTRAL DE APOIO TECNICO-SETOR DE INFORMATICA 1.198,00 0,00 519,00 0,00 5.642,77 0,00 0,00 0,00 517,25 28/02/2022
1192 312900 CLAUDIO VIEIRA FIRPE OFICIAL DO MP BELO HORIZONTE - COMARCA; DIR RELACOES INSTITUCIONAIS 1.198,00 0,00 519,00 0,00 5.759,82 0,00 0,00 0,00 527,98 28/02/2022
1193 634100 CLEA CRISTINA GUERRA DE FREITAS COSTA OFICIAL DO MP BELO HORIZONTE - COMARCA; BH-18PJ VIOLENCIA DOMESTICA-SECRETARIA 1.198,00 885,30 519,00 0,00 5.925,91 0,00 0,00 0,00 543,21 28/02/2022
1194 244800 CLEBER AUGUSTO DO NASCIMENTO PROMOTOR 2A ENTRANCIA CAMPO BELO - COMARCA; CAMPO BELO-PJ-04PJ 1.198,00 0,00 3.200,47 0,00 10.668,22 0,00 0,00 0,00 488,96 28/02/2022
1195 439000 CLEBER COUTO PROMOT.ENTRANC.ESPECIAL PATOS DE MINAS - COMARCA; GAECO REGIONAL DE PATOS DE MINAS 1.198,00 0,00 3.207,75 0,00 11.229,70 0,00 0,00 0,00 514,69 28/02/2022
1196 459200 CLEIA ZILLE PEREIRA ANALISTA DO MP BELO HORIZONTE - COMARCA; BH-07PJ 01 TRIBUNAL JURI-SECRETARIA 1.198,00 0,00 519,00 0,00 0,00 0,00 0,00 0,00 0,00 28/02/2022
1197 481800 CLEIDE CARDOSO DA SILVA ANALISTA DO MP MANHUAÇU - COMARCA; MANHUACU-PJ-04PJ 1.198,00 0,00 519,00 0,00 0,00 0,00 0,00 0,00 0,00 28/02/2022
1198 225000 CLEIDE PEREIRA DA SILVA PROMOT.ENTRANC.ESPECIAL BELO HORIZONTE - COMARCA; BH-09PJ AUDITORIA MILITAR-GAB 161PJ 1.198,00 0,00 1.077,84 0,00 0,00 0,00 0,00 0,00 0,00 28/02/2022
1199 347600 CLEIDIMAR DE OLIVEIRA SILVA OFICIAL DO MP PATOS DE MINAS - COMARCA; PATOS DE MINAS-PJ-03PJ 1.198,00 0,00 519,00 0,00 5.578,22 0,00 0,00 0,00 511,34 28/02/2022
1200 396500 CLEIDISON BATISTA DE ANDRADE OFICIAL DO MP RESPLENDOR - COMARCA; RESPLENDOR-PJ-UNPJ 1.198,00 0,00 519,00 0,00 4.677,25 0,00 0,00 0,00 428,75 28/02/2022
1201 535100 CLEISON ALVES DA SILVA ANALISTA DO MP BOA ESPERANÇA - COMARCA; BOA ESPERANCA-PJ-01PJ 1.198,00 0,00 519,00 0,00 4.571,23 0,00 0,00 0,00 419,03 28/02/2022
1202 298100 CLEONICE AUGUSTA BARROS DE OLIVEIRA ANALISTA DO MP JUIZ DE FORA - COMARCA; JUIZ DE FORA-PJ-08PJ 1.198,00 0,00 519,00 0,00 0,00 0,00 0,00 0,00 0,00 28/02/2022
1203 264100 CLETO HENRIQUE ANDRADE SILVA ANALISTA DO MP BELO HORIZONTE - COMARCA; DIRETORIA DE SISTEMAS DE INFORMACAO 1.198,00 0,00 519,00 0,00 5.871,88 0,00 0,00 0,00 538,26 28/02/2022
1204 334400 CLEUBA DE OLIVEIRA BARCELOS GONCALVES OFICIAL DO MP DIVINÓPOLIS - COMARCA; COORD REG SAUDE MACRORREGIAO SANITARIA OESTE 1.198,00 0,00 519,00 0,00 5.759,82 0,00 0,00 0,00 527,98 28/02/2022
1205 347500 CLEUSA CORDEIRO DA MATA PIMENTA OFICIAL DO MP CAMPO BELO - COMARCA; CAMPO BELO-PJ-01PJ 1.198,00 0,00 519,00 0,00 5.800,10 0,00 0,00 0,00 531,68 28/02/2022
1206 92400 CLEVERSON RAYMUNDO SBARZI GUEDES PROMOT.ENTRANC.ESPECIAL JUIZ DE FORA - COMARCA; JUIZ DE FORA-PJ-14PJ 1.198,00 0,00 3.368,91 0,00 5.614,85 0,00 0,00 0,00 0,00 28/02/2022
1207 675000 CLEVERTON FRANCISCO GONCALVES DA SILVA CAPITAO 1.198,00 0,00 0,00 0,00 0,00 0,00 0,00 0,00 722,17 28/02/2022
1208 1231400 CLEYSON THIAGO PEREIRA COELHO ESTAGIARIO VICOSA; VICOSA-PJ-03PJ 0,00 0,00 0,00 153,00 0,00 0,00 0,00 0,00 0,00 28/02/2022
1209 510200 CLEZIO SALES SILVA OFICIAL DO MP BRASÓPOLIS - COMARCA; BRASOPOLIS-PJ-UNPJ 1.198,00 1.770,60 519,00 0,00 1.469,71 0,00 0,00 0,00 134,72 28/02/2022
1210 323000 CLOTILDE DE PADUA VIEIRA OFICIAL DO MP BELO HORIZONTE - COMARCA; BH-19PJ SAUDE-SECRETARIA 129PJ 1.198,00 0,00 519,00 0,00 0,00 0,00 0,00 0,00 0,00 28/02/2022
1211 285200 CLOVIS ANDRE LUDTKE OFICIAL DO MP BELO HORIZONTE - COMARCA; DIVISAO DE MANUTENCAO PREDIAL 1.198,00 0,00 519,00 0,00 5.759,82 0,00 0,00 0,00 527,98 28/02/2022
1212 381100 CONCEICAO APARECIDA TEIXEIRA ARANTES ANALISTA DO MP BELO HORIZONTE - COMARCA; BH-23PJ INFRACIONAL-ASS JURIDICA 1.198,00 0,00 519,00 0,00 0,00 0,00 0,00 0,00 1.767,96 28/02/2022
1213 249900 CONSTANTINO CEZAR GOMES MOTA OFICIAL DO MP MONTES CLAROS - COMARCA; COORD REG BACIA RIOS VERDE GRANDE E PARDO 1.198,00 1.770,60 519,00 0,00 0,00 0,00 0,00 0,00 0,00 28/02/2022
1214 594800 COSME COELHO TEIXEIRA 3O.SARGENTO BELO HORIZONTE - COMARCA; NUCLEO DE CONTRAINTELIGENCIA 1.198,00 0,00 0,00 0,00 0,00 0,00 0,00 0,00 0,00 28/02/2022
1215 481000 CRISHMA ANALIA LOMBELLO ANALISTA DO MP JUIZ DE FORA - COMARCA; JUIZ DE FORA-PJ-13PJ 1.198,00 0,00 519,00 0,00 0,00 0,00 0,00 0,00 0,00 28/02/2022
1216 1399300 CRISLAYNE SOUZA MELO ESTAGIARIO ARAGUARI; ARAGUARI-PJ-07PJ 0,00 0,00 0,00 81,00 0,00 0,00 0,00 0,00 0,00 28/02/2022
1217 523900 CRISTHYANE BAZOLI COSTA GUEDES COUTO OFICIAL DO MP BELO HORIZONTE - COMARCA; BH-04PJ JUIZO REG PÚBLICOS-SECRETARIA 1.198,00 0,00 519,00 0,00 2.697,51 0,00 0,00 0,00 247,27 28/02/2022
1218 187000 CRISTIAN DAYVSON EVANGELISTA OFICIAL DO MP JUIZ DE FORA - COMARCA; JUIZ DE FORA-PJ-13PJ 1.198,00 0,00 519,00 0,00 5.986,63 0,00 0,00 0,00 548,77 28/02/2022
1219 245000 CRISTIAN LUCIO DA SILVA PROMOT.ENTRANC.ESPECIAL BELO HORIZONTE - COMARCA; BH-07PJ 03 TRIBUNAL DO JURI-GAB 064PJ 1.198,00 0,00 2.905,50 0,00 16.844,55 0,00 0,00 0,00 514,69 28/02/2022
1220 682100 CRISTIAN TRISTAO DE ANDRADE ASSESSOR PROMOTOR JUSTICA TRÊS CORACOES - COMARCA; TRES CORACOES-PJ-04PJ 1.198,00 0,00 519,00 0,00 1.437,54 0,00 0,00 0,00 0,00 28/02/2022
1221 319800 CRISTIANA GONCALVES DOS SANTOS GUSMAO OFICIAL DO MP PARAOPEBA - COMARCA; PARAOPEBA-PJ-UNPJ 1.198,00 0,00 519,00 0,00 0,00 0,00 0,00 0,00 0,00 28/02/2022
1222 520600 CRISTIANA JANAINA BARBOZA JUVENCIO DOS SANTOS ANALISTA DO MP BELO HORIZONTE - COMARCA; BH-02PJ FAMILIA-SECRETARIA 1.198,00 0,00 519,00 0,00 6.323,72 0,00 0,00 0,00 1.538,64 28/02/2022
1223 195600 CRISTIANA SOARES HALABI OFICIAL DO MP UBERABA - COMARCA; UBERABA-PJ-01PJ 1.198,00 0,00 519,00 0,00 5.413,91 0,00 0,00 0,00 496,28 28/02/2022
1224 218900 CRISTIANE ALVES BELLES OFICIAL DO MP JUIZ DE FORA - COMARCA; JUIZ DE FORA-PJ-10PJ 1.198,00 1.327,95 519,00 0,00 2.229,06 0,00 0,00 0,00 204,33 28/02/2022
1225 291600 CRISTIANE CAMPOS AMORIM BARONY PROMOTOR 2A ENTRANCIA CARANGOLA - COMARCA; CARANGOLA-PJ-03PJ 1.198,00 0,00 2.930,63 0,00 10.668,22 0,00 0,00 0,00 488,96 28/02/2022
1226 263600 CRISTIANE CARVALHO COUTINHO OFICIAL DO MP BELO HORIZONTE - COMARCA; BH-23PJ INFRACIONAL-SEC EXP 1.198,00 0,00 519,00 0,00 0,00 0,00 0,00 0,00 0,00 28/02/2022
1227 541000 CRISTIANE COELHO ALVES OFICIAL DO MP ITABIRA - COMARCA; ITABIRA-PJ-03PJ 1.198,00 0,00 519,00 0,00 0,00 0,00 0,00 0,00 0,00 28/02/2022
1228 441700 CRISTIANE CORRADO DE ANDRADE ANALISTA DO MP BELO HORIZONTE - COMARCA; DIRETORIA DE SISTEMAS DE INFORMACAO 1.198,00 0,00 519,00 0,00 0,00 0,00 0,00 0,00 0,00 28/02/2022
1229 1304100 CRISTIANE DA CONCEICAO FERREIRA ESTAGIARIO JABOTICATUBAS; JABOTICATUBAS-PJ-UNPJ 0,00 0,00 0,00 189,00 0,00 0,00 0,00 0,00 0,00 28/02/2022
1230 375100 CRISTIANE DAS DORES ERCIO DE LIMA OFICIAL DO MP GOVERNADOR VALADARES - COMARCA; COOR REG APOIO COM INC MOB VALE DO RIO DOCE 1.198,00 0,00 519,00 0,00 0,00 0,00 0,00 0,00 0,00 28/02/2022
1231 1163300 CRISTIANE DE FREITAS SOARES ESTAGIARIO MANHUACU; MANHUACU-PJ-02PJ 0,00 0,00 0,00 54,00 0,00 0,00 0,00 0,00 0,00 28/02/2022
1232 178800 CRISTIANE DE LIMA HOSKEN OFICIAL DO MP BELO HORIZONTE - COMARCA; BH-14PJ DEFESA CONSUMIDOR-GAB 110PJ 1.198,00 0,00 519,00 0,00 5.628,28 0,00 0,00 0,00 515,93 28/02/2022
1233 494000 CRISTIANE DE MELO MARQUEZ OLIVEIRA ANALISTA DO MP UBERLÂNDIA - COMARCA; UBERLANDIA-PJ-06PJ 1.198,00 885,30 519,00 0,00 5.857,93 0,00 0,00 0,00 536,98 28/02/2022
1234 266100 CRISTIANE DE OLIVEIRA CASTRO OFICIAL DO MP BELO HORIZONTE - COMARCA; BH-14PJ DEFESA CONSUMIDOR-SECRETARIA 1.198,00 0,00 519,00 0,00 0,00 0,00 1.445,27 0,00 0,00 28/02/2022
1235 329500 CRISTIANE DOS REIS SILVA OFICIAL DO MP ARAXÁ - COMARCA; ARAXA-PJ-04PJ 1.198,00 0,00 519,00 0,00 5.759,82 0,00 0,00 0,00 527,98 28/02/2022
1236 301600 CRISTIANE GODINHO PIRES ANALISTA DO MP BETIM - COMARCA; BETIM-PJ-06PJ 1.198,00 0,00 519,00 0,00 5.871,88 0,00 0,00 0,00 538,26 28/02/2022
1237 406100 CRISTIANE GONCALVES CHAVES ANALISTA DO MP BELO HORIZONTE - COMARCA; BH-14PJ DEFESA CONSUMIDOR-GAB 112PJ 1.198,00 0,00 519,00 0,00 5.383,80 0,00 0,00 0,00 493,52 28/02/2022
1238 487600 CRISTIANE LOPES DE OLIVEIRA OFICIAL DO MP DIVINÓPOLIS - COMARCA; DIVINOPOLIS-PJ-03PJ 1.198,00 0,00 519,00 0,00 1.469,71 0,00 0,00 0,00 134,72 28/02/2022
1239 502500 CRISTIANE MACIEL DE OLIVEIRA GOMES ANALISTA DO MP JUIZ DE FORA - COMARCA; JUIZ DE FORA-PJ-05PJ 1.198,00 885,30 519,00 0,00 5.800,10 0,00 0,00 0,00 531,68 28/02/2022
1240 285500 CRISTIANE MAGALHAES LOURENCO ANALISTA DO MP BELO HORIZONTE - COMARCA; CENTRAL DE APOIO TECNICO-SETOR CONTABIL 1.198,00 0,00 519,00 0,00 5.648,25 0,00 0,00 0,00 517,76 28/02/2022
1241 536500 CRISTIANE MICHELE DE SOUZA ANALISTA DO MP BARÃO DE COCAIS - COMARCA; BARAO DE COCAIS-PJ-UNPJ 1.198,00 0,00 519,00 0,00 0,00 0,00 0,00 0,00 0,00 28/02/2022
1242 346600 CRISTIANE NOGUEIRA ANDRADE ANALISTA DO MP BELO HORIZONTE - COMARCA; CENTRAL DE APOIO TECNICO-SETOR CONTABIL 1.198,00 0,00 519,00 0,00 0,00 0,00 0,00 0,00 0,00 28/02/2022
1243 234000 CRISTIANE OLIVEIRA TOSTES OFICIAL DO MP JUIZ DE FORA - COMARCA; JUIZ DE FORA-PJ-08PJ 1.198,00 885,30 519,00 0,00 5.383,80 0,00 0,00 0,00 493,52 28/02/2022
1244 445800 CRISTIANE ORZIL COSTA OFICIAL DO MP SANTA LUZIA - COMARCA; SANTA LUZIA-PJ-05PJ 1.198,00 885,30 519,00 0,00 2.070,06 0,00 0,00 0,00 -8,10 28/02/2022
1245 616100 CRISTIANE PAES RODRIGUES MARCICANO ANALISTA DO MP CATAGUASES - COMARCA; CATAGUASES-PJ-05PJ 1.198,00 885,30 519,00 0,00 3.340,86 0,00 0,00 0,00 306,25 28/02/2022
1246 612300 CRISTIANE RIBEIRO DOS REIS ARCANJO OFICIAL DO MP BELO HORIZONTE - COMARCA; DIRETORIA DE PAGAMENTO DE PESSOAL-DPAG
1247 257700 CRISTIANE RODRIGUES PAES NUNES ANALISTA DO MP BELO HORIZONTE - COMARCA; BH-22PJ PES COM DEF E IDOSOS-ORIENTACAO PSIC 1.198,00 885,30 519,00 0,00 5.871,88 0,00 0,00 0,00 538,26 28/02/2022
1248 1372000 CRISTIANE SALES RODRIGUES ESTAGIARIO ARAXA; ARAXA-PJ-02PJ 0,00 0,00 0,00 171,00 0,00 0,00 0,00 0,00 0,00 28/02/2022
1249 510800 CRISTIANE SANTOS FERNANDES ORNELES ANALISTA DO MP BELO HORIZONTE - COMARCA; BH-03PJ EMPRESARIAL-SECRETARIA 1.198,00 0,00 519,00 0,00 5.800,10 0,00 0,00 0,00 531,68 28/02/2022
1250 535701 CRISTIANE SANTOS MIRANDA ANALISTA DO MP CONTAGEM - COMARCA; CONTAGEM-PJ-20PJ 1.198,00 0,00 519,00 0,00 5.752,03 0,00 0,00 0,00 527,27 28/02/2022
1251 163400 CRISTIANO CASSIOLATO PROMOTOR 1A ENTRANCIA CARMO DO RIO CLARO - COMARCA; CARMO DO RIO CLARO-PJ-UNPJ 1.198,00 0,00 3.040,44 0,00 10.134,80 0,00 0,00 0,00 464,51 28/02/2022
1252 484000 CRISTIANO CESAR PIMENTA DAYRELL DA CUNHA PROMOT.ENTRANC.ESPECIAL SETE LAGOAS - COMARCA; SETE LAGOAS-PJ-01PJ 1.198,00 0,00 3.368,91 0,00 11.229,70 0,00 0,00 0,00 514,69 28/02/2022
1253 299901 CRISTIANO DA COSTA MATA PROMOT.ENTRANC.ESPECIAL IPATINGA - COMARCA; COORD REG SAUDE MACRORREGIAO SANIT VALE ACO 1.198,00 0,00 3.368,91 0,00 16.844,55 0,00 0,00 0,00 514,69 28/02/2022
1254 536200 CRISTIANO DE OLIVEIRA ANALISTA DO MP CONCEIÇÃO DO MATO DENTRO - COMARCA; CONCEICAO DO MATO DENTRO-PJ-UNPJ 1.198,00 885,30 519,00 0,00 0,00 0,00 0,00 0,00 0,00 28/02/2022
1255 675100 CRISTIANO GERALDO CUNHA CABO BELO HORIZONTE - COMARCA; GAECO - SETOR POLICIAL MILITAR 1.198,00 0,00 0,00 0,00 0,00 0,00 0,00 0,00 0,00 28/02/2022
1256 1399200 CRISTIANO MORAIS COSTA ESTAGIARIO BELO HORIZONTE; DIVISAO DE MANUTENCAO PREDIAL 0,00 0,00 0,00 72,00 0,00 0,00 0,00 0,00 0,00 28/02/2022
1257 440000 CRISTIANO MOREIRA SILVA PROMOTOR 2A ENTRANCIA CAPELINHA - COMARCA; CAPELINHA-PJ-02PJ 1.198,00 0,00 3.200,47 0,00 5.334,11 0,00 0,00 0,00 488,96 28/02/2022
1258 167400 CRISTIANO ROCHA GAZAL PROMOTOR 1A ENTRANCIA CAMBUQUIRA - COMARCA; CAMBUQUIRA-PJ-UNPJ 1.198,00 0,00 2.108,83 0,00 10.134,80 0,00 0,00 0,00 464,51 28/02/2022
1259 477400 CRISTIANO SOARES ELEUTERIO ANALISTA DO MP BELO HORIZONTE - COMARCA; GABINETE DE PROCURADOR DE JUSTIÇA - SALA 812 1.198,00 0,00 519,00 0,00 0,00 0,00 0,00 0,00 0,00 28/02/2022
1260 449400 CRISTIANO TEIXEIRA RODRIGUES LANA ANALISTA DO MP BELO HORIZONTE - COMARCA; BH-18PJ VIOLENCIA DOMESTICA-GAB 185PJ 1.198,00 0,00 519,00 0,00 5.668,65 0,00 0,00 0,00 -407,74 28/02/2022
1261 106600 CRISTINA BECHARA KALLAS PROMOTOR 2A ENTRANCIA PASSOS - COMARCA; PASSOS-PJ-03PJ 1.198,00 0,00 2.694,61 0,00 5.334,11 0,00 0,00 0,00 488,96 28/02/2022
1262 239400 CRISTINA DE FATIMA CRUZ E SILVA OFICIAL DO MP MONTE SANTO DE MINAS - COMARCA; MONTE SANTO DE MINAS-PJ-SECRETARIA 1.198,00 0,00 519,00 0,00 0,00 0,00 0,00 0,00 0,00 28/02/2022
1263 544000 CRISTINA DE OLIVEIRA TERRA ANALISTA DO MP BELO HORIZONTE - COMARCA; BH-18PJ VIOLENCIA DOMESTICA 1.198,00 0,00 519,00 0,00 4.571,23 0,00 0,00 0,00 419,03 28/02/2022
1264 356800 CRISTINA DE PINHO BARROSO OFICIAL DO MP SABINÓPOLIS - COMARCA; SABINOPOLIS-PJ-UNPJ 1.198,00 1.244,35 519,00 0,00 0,00 0,00 0,00 0,00 0,00 28/02/2022
1265 649500 CRISTINA DO DIVINO ESPIRITO SANTOS OFICIAL DO MP DIVINÓPOLIS - COMARCA; DIVINOPOLIS-PJ-12PJ 1.198,00 0,00 519,00 0,00 0,00 0,00 0,00 0,00 0,00 28/02/2022
1266 218500 CRISTINA FAGUNDES SIQUEIRA PROMOTOR 2A ENTRANCIA ARAGUARI - COMARCA; ARAGUARI-PJ-04PJ 1.198,00 0,00 3.200,47 0,00 16.002,33 0,00 0,00 0,00 488,96 28/02/2022
1267 484500 CRISTINA FERREIRA LABARRERE NASCIMENTO PROMOTOR SUBSTITUTO BELO HORIZONTE - COMARCA; BH-18PJ VIOLENCIA DOMESTICA-GAB 185PJ 1.198,00 0,00 1.921,37 0,00 10.134,80 0,00 0,00 0,00 464,51 28/02/2022
1268 348201 CRISTINA MARIA DA SILVA ANALISTA DO MP ARAXÁ - COMARCA; ARAXA-PJ-06PJ 1.198,00 885,30 519,00 0,00 0,00 0,00 0,00 0,00 0,00 28/02/2022
1269 434900 CRISTINA MELO DE MADUREIRA ANALISTA DO MP BELO HORIZONTE - COMARCA; BH-07PJ 01 TRIBUNAL JURI-SECRETARIA 1.198,00 0,00 519,00 0,00 0,00 0,00 0,00 0,00 0,00 28/02/2022
1270 307700 CRISTINA TEIXEIRA MARQUES OFICIAL DO MP BELO HORIZONTE - COMARCA; CENTRAL DE APOIO TECNICO-SETOR CONTABIL 1.198,00 0,00 519,00 0,00 4.756,40 0,00 0,00 0,00 436,00 28/02/2022
1271 58700 CRISTOVAM JOAQUIM FERNANDES RAMOS FILHO PROCURADOR DE JUSTICA BELO HORIZONTE - COMARCA; PROC JUST ESP ACOES COMP ORIG CRIMINAL 0,00 0,00 1.405,88 0,00 0,00 0,00 0,00 0,00 0,00 28/02/2022
1272 265300 CRISTOVAO SANCHES DE MEDEIROS ANALISTA DO MP BELO HORIZONTE - COMARCA; DIRETORIA DE CONTABILIDADE 1.198,00 0,00 519,00 0,00 0,00 0,00 0,00 0,00 0,00 28/02/2022
1273 349800 CROZEIR LUIZ DA SILVA OFICIAL DO MP UNAÍ - COMARCA; UNAI-PJ-SECRETARIA 1.198,00 0,00 519,00 0,00 5.617,23 281,61 0,00 0,00 514,91 28/02/2022
1274 490500 CYNTHIA CRISTINA DE SOUZA OLIVEIRA VALENTE ANALISTA DO MP BELO HORIZONTE - COMARCA; BH-09PJ AUDITORIA MILITAR-SECRETARIA 1.198,00 0,00 519,00 0,00 0,00 0,00 0,00 0,00 0,00 28/02/2022
1275 344200 CYNTHIA DUARTE VILELA PROMOTOR 2A ENTRANCIA SABARÁ - COMARCA; SABARA-PJ-03PJ 1.198,00 0,00 3.200,47 0,00 16.002,33 0,00 0,00 0,00 488,96 28/02/2022
1276 389800 CYNTHIA GARIGLIO DOS SANTOS OFICIAL DO MP PERDIZES - COMARCA; PERDIZES-PJ-SECRETARIA 1.198,00 885,30 519,00 0,00 5.882,75 0,00 0,00 0,00 539,25 28/02/2022
1277 335101 CYNTHIA GONTIJO D ASSUNCAO ANALISTA DO MP BELO HORIZONTE - COMARCA; FEPDC-SECRETARIA EXECUTIVA 1.198,00 885,30 519,00 0,00 0,00 0,00 0,00 0,00 0,00 28/02/2022
1278 223600 CYNTHIA MARIA DOS SANTOS SILVA JORGE PROMOT.ENTRANC.ESPECIAL BELO HORIZONTE - COMARCA; BH-13PJ JUIZO DE TOXICOS-GAB 011PJ 1.198,00 0,00 2.741,48 0,00 11.229,70 0,00 0,00 0,00 514,69 28/02/2022
1279 531200 CYNTIA CAMPOS GIRO PROMOTOR 2A ENTRANCIA PONTE NOVA - COMARCA; PONTE NOVA-PJ-05PJ 1.198,00 0,00 2.161,35 0,00 0,00 0,00 0,00 0,00 0,00 28/02/2022
1280 269700 CYNTIA ROCHA CAVALCANTI OFICIAL DO MP UBERLÂNDIA - COMARCA; UBERLANDIA-PJ-06PJ 1.198,00 885,30 519,00 0,00 5.412,79 0,00 0,00 0,00 496,17 28/02/2022
1281 1276900 DAFINE EMILE ARAUJO ESTAGIARIO BELO HORIZONTE; DIRETORIA DE PRODUCAO EDITORIAL 0,00 0,00 0,00 9,00 0,00 0,00 0,00 0,00 0,00 28/02/2022
1282 1214500 DAIANE CAROLINE DE PAULA ESTAGIARIO PIRANGA; PIRANGA-PJ-UNPJ 0,00 0,00 0,00 180,00 0,00 0,00 0,00 0,00 0,00 28/02/2022
1283 1343100 DAIANE MIRANDA VIEIRA ESTAGIARIO MANHUACU; MANHUACU-PJ-02PJ 0,00 0,00 0,00 135,00 0,00 0,00 0,00 0,00 0,00 28/02/2022
1284 1311800 DAIANE RIOGA VIANA ESTAGIARIO BELO HORIZONTE; GABINETE DE PROCURADOR DE JUSTIÇA - SALA 507 0,00 0,00 0,00 9,00 0,00 0,00 0,00 0,00 0,00 28/02/2022
1285 278000 DAIRTON LOPES MARTINS FILHO COORDENADOR/ANALISTA BELO HORIZONTE - COMARCA; DIRETORIA DE SISTEMAS DE INFORMACAO 1.198,00 0,00 519,00 0,00 5.589,03 0,00 0,00 0,00 512,33 28/02/2022
1286 392700 DALIANA CHAVES IBRAIM MARINHO OFICIAL DO MP ITAÚNA - COMARCA; ITAUNA-PJ-04PJ 1.198,00 0,00 519,00 0,00 3.206,21 0,00 0,00 0,00 293,90 28/02/2022
1287 1370300 DALIANA MONTEIRO DE ARAUJO COSTA ESTAGIARIO BELO HORIZONTE; BH-17PJ PATRIMONIO PUBLICO-GAB 122PJ 0,00 0,00 0,00 36,00 0,00 0,00 0,00 0,00 0,00 28/02/2022
1288 558101 DALLEY TASSIA SILVA ANALISTA DO MP MORADA NOVA DE MINAS - COMARCA; MORADA NOVA DE MINAS-PJ-UNPJ 1.198,00 885,30 519,00 0,00 0,00 0,00 0,00 0,00 0,00 28/02/2022
1289 1219700 DALMO HUSSID FERREIRA ESTAGIARIO UBERABA; UBERABA-PJ-16PJ 0,00 0,00 0,00 63,00 0,00 0,00 0,00 0,00 0,00 28/02/2022
1290 476700 DALTON DAUD ANALISTA DO MP ARAGUARI - COMARCA; ARAGUARI-PJ-05PJ 1.198,00 0,00 519,00 0,00 5.800,10 0,00 0,00 0,00 531,68 28/02/2022
1291 1308800 DANIEL ALEFE GOUVEIA DE MELLO ESTAGIARIO GOVERNADOR VALADARES; GOVERNADOR VALADARES-PJ-04PJ 0,00 0,00 0,00 189,00 0,00 0,00 0,00 0,00 0,00 28/02/2022
1292 426900 DANIEL ALVES DA SILVA OFICIAL DO MP BELO HORIZONTE - COMARCA; DIVISAO TRANSPORTES 1.198,00 0,00 519,00 0,00 1.469,71 0,00 0,00 0,00 134,72 28/02/2022
1293 343900 DANIEL ANGELO DE OLIVEIRA RANGEL PROMOTOR 1A ENTRANCIA RIO PRETO - COMARCA; RIO PRETO-PJ-UNPJ 1.198,00 0,00 2.436,87 0,00 10.134,80 0,00 0,00 0,00 464,51 28/02/2022
1294 122000 DANIEL ANTONIO VIEIRA OFICIAL DO MP ENTRE-RIOS DE MINAS - COMARCA; ENTRE RIOS DE MINAS-PJ-SECRETARIA 1.198,00 0,00 519,00 0,00 0,00 0,00 0,00 0,00 0,00 28/02/2022
1295 685900 DANIEL AUGUSTO DE CAMARGO LIMA CAMPOS PROMOTOR SUBSTITUTO JEQUITINHONHA - COMARCA; JEQUITINHONHA-PJ-UNPJ 1.198,00 0,00 773,24 0,00 15.202,20 0,00 0,00 0,00 464,51 28/02/2022
1296 1375600 DANIEL AUGUSTO ROCHA DE ALMEIDA ESTAGIARIO BELO HORIZONTE; OUVIDORIA DO MPMG 0,00 0,00 0,00 144,00 0,00 0,00 0,00 0,00 0,00 28/02/2022
1297 311501 DANIEL BATISTA MENDES PROMOT.ENTRANC.ESPECIAL BELO HORIZONTE - COMARCA; BH-24PJ JUIZO REG BARREIRO-GAB 003PJ 1.198,00 0,00 3.368,91 0,00 11.229,70 0,00 0,00 0,00 514,69 28/02/2022
1298 1340300 DANIEL BRENDO ALVES CORREIA ESTAGIARIO IPATINGA; IPATINGA-PJ-05PJ 0,00 0,00 0,00 189,00 0,00 0,00 0,00 0,00 0,00 28/02/2022
1299 437801 DANIEL CASTRO E MELO PROMOTOR 2A ENTRANCIA JANAÚBA - COMARCA; JANAUBA-PJ-03PJ 1.198,00 0,00 0,00 0,00 10.668,22 0,00 0,00 0,00 0,00 28/02/2022
1300 1289400 DANIEL DA ROCHA MARCELO ESTAGIARIO BELO HORIZONTE; PROC. JUSTICA DIR. DIFUSOS E COLETIVOS 0,00 0,00 0,00 9,00 0,00 0,00 0,00 0,00 0,00 28/02/2022
1301 313800 DANIEL DE OLIVEIRA MALARD PROMOT.ENTRANC.ESPECIAL BELO HORIZONTE - COMARCA; CORREGEDORIA-GERAL-ASSESSORIA 1.198,00 0,00 2.530,59 0,00 11.229,70 0,00 0,00 0,00 514,69 28/02/2022
1302 170200 DANIEL DE SA RODRIGUES PROMOT.ENTRANC.ESPECIAL BELO HORIZONTE - COMARCA; CAO-PATRIMONIO PUBLICO 1.198,00 0,00 3.368,91 0,00 11.229,70 0,00 0,00 0,00 514,69 28/02/2022
1303 456600 DANIEL DOS SANTOS RODRIGUES PROMOT.ENTRANC.ESPECIAL CONTAGEM - COMARCA; CONTAGEM-PJ-20PJ 1.198,00 0,00 3.368,91 0,00 5.614,85 0,00 0,00 0,00 514,69 28/02/2022
1304 1344800 DANIEL FERNANDES JARDIM ESTAGIARIO BELO HORIZONTE; GABINETE DE PROCURADOR DE JUSTIÇA - SALA 716 0,00 0,00 0,00 189,00 0,00 0,00 0,00 0,00 0,00 28/02/2022
1305 1347700 DANIEL FERREIRA BERNARDES ESTAGIARIO CATAGUASES; CATAGUASES-PJ-01PJ 0,00 0,00 0,00 81,00 0,00 0,00 0,00 0,00 0,00 28/02/2022
1306 714000 DANIEL FERREIRA CAMARA ASSESSOR PROMOTOR JUSTICA RIBEIRÃO DAS NEVES - COMARCA; RIBEIRAO DAS NEVES-PJ-12PJ 1.198,00 0,00 519,00 0,00 0,00 0,00 0,00 0,00 0,00 28/02/2022
1307 411000 DANIEL FERREIRA DA SILVA ANALISTA DO MP GOVERNADOR VALADARES - COMARCA; GOVERNADOR VALADARES-PJ-15PJ 1.198,00 1.770,60 519,00 0,00 0,00 0,00 0,00 0,00 0,00 28/02/2022
1308 703500 DANIEL FILIPE DE DEUS SOARES ASSESSOR PROMOTOR JUSTICA ITABIRITO - COMARCA; ITABIRITO-PJ-02PJ 1.198,00 0,00 519,00 0,00 0,00 0,00 0,00 0,00 0,00 28/02/2022
1309 309000 DANIEL GOMES DOS SANTOS ANALISTA DO MP POÇOS DE CALDAS - COMARCA; POCOS DE CALDAS-PJ-05PJ 1.198,00 0,00 519,00 0,00 5.648,25 0,00 0,00 0,00 517,76 28/02/2022
1310 554500 DANIEL GOMES PEREIRA OFICIAL DO MP NANUQUE - COMARCA; NANUQUE-PJ-02PJ 1.198,00 0,00 519,00 0,00 808,34 0,00 0,00 0,00 74,10 28/02/2022
1311 453000 DANIEL GONCALVES PEREIRA ANALISTA DO MP UNAÍ - COMARCA; UNAI-PJ-02PJ 1.198,00 2.213,25 519,00 0,00 5.800,10 0,00 0,00 0,00 531,68 28/02/2022
1312 495500 DANIEL GUIMARAES CABRAL OFICIAL DO MP BELO HORIZONTE - COMARCA; BH-17PJ PATRIMONIO PUBLICO-SECRETARIA 1.198,00 0,00 519,00 0,00 5.699,94 0,00 0,00 0,00 522,49 28/02/2022
1313 442900 DANIEL GUIMARAES GONCALVES ANALISTA DO MP UBERLÂNDIA - COMARCA; UBERLANDIA-PJ-03PJ 1.198,00 0,00 519,00 0,00 5.620,98 0,00 0,00 0,00